[[{"header":{"parameterUnit":"m.s-1","parameterCategory":1,"la1":31.0,"la2":29.5877,"lo1":-88.7671,"lo2":-86.6584,"dy":0.0162,"dx":0.0185,"nx":115,"ny":88,"refTime":"2024-07-05T18:00:00:Z","depth":0,"parameterNumber":2,"parameterNumberName":"U-component_of_WINDS"},"data":[0.0,0.0,0.0,0.0,0.0,0.0,0.0,0.0,0.0,0.0,0.0,0.0,0.0,0.0,0.0,0.0,0.0,0.0,0.0,0.0,0.0,0.0,0.0,0.0,0.0,0.0,0.0,0.0,0.0,0.0,0.0,0.0,0.0,0.0,0.0,0.0,0.0,0.0,0.0,0.0,0.0,0.0,0.0,0.0,0.0,0.0,0.0,0.0,0.0,0.0,0.0,0.0,0.0,0.0,0.0,0.0,0.0,0.0,0.0,0.0,0.0,0.0,0.0,0.0,0.0,0.0,0.0,0.0,0.0,0.0,0.0,0.0,0.0,0.0,0.0,0.0,0.0,0.0,0.0,0.0,0.0,0.0,0.0,0.0,0.0,0.0,0.0,0.0,0.0,0.0,0.0,0.0,0.0,0.0,0.0,0.0,0.0,0.0,0.0,0.0,0.0,0.0,0.0,0.0,0.0,0.0,0.0,0.0,0.0,0.0,0.0,0.0,0.0,0.0,0.0,0.0,0.0,0.0,0.0,0.0,0.0,0.0,0.0,0.0,0.0,0.0,0.0,0.0,0.0,0.0,0.0,0.0,0.0,0.0,0.0,0.0,0.0,0.0,0.0,0.0,0.0,0.0,0.0,0.0,0.0,0.0,0.0,0.0,0.0,0.0,0.0,0.0,0.0,0.0,0.0,0.0,0.0,0.0,0.0,0.0,0.0,0.0,0.0,0.0,0.0,0.0,0.0,0.0,0.0,0.0,0.0,0.0,0.0,0.0,0.0,0.0,0.0,0.0,0.0,0.0,0.0,0.0,0.0,0.0,0.0,0.0,0.0,0.0,0.0,0.0,0.0,0.0,0.0,0.0,0.0,0.0,0.0,0.0,0.0,0.0,0.0,0.0,0.0,0.0,0.0,0.0,0.0,0.0,0.0,0.0,0.0,0.0,0.0,0.0,0.0,0.0,0.0,0.0,0.0,0.0,0.0,0.0,0.0,0.0,0.0,0.0,0.0,0.0,0.0,0.0,0.0,0.0,0.0,0.0,0.0,0.0,0.0,0.0,0.0,0.0,0.0,0.0,0.0,0.0,0.0,0.0,0.0,0.0,0.0,0.0,0.0,0.0,0.0,0.0,0.0,0.0,0.0,0.0,0.0,0.0,0.0,0.0,0.0,0.0,0.0,0.0,0.0,0.0,0.0,0.0,0.0,0.0,0.0,0.0,0.0,0.0,0.0,0.0,0.0,0.0,0.0,0.0,0.0,0.0,0.0,0.0,0.0,0.0,0.0,0.0,0.0,0.0,0.0,0.0,0.0,0.0,0.0,0.0,0.0,0.0,0.0,0.0,0.0,0.0,0.0,0.0,0.0,0.0,0.0,0.0,0.0,0.0,0.0,0.0,0.0,0.0,0.0,0.0,0.0,0.0,0.0,0.0,0.0,0.0,0.0,0.0,0.0,0.0,0.0,0.0,0.0,0.0,0.0,0.0,0.0,0.0,0.0,0.0,0.0,0.0,0.0,0.0,0.0,0.0,0.0,0.0,0.0,0.0,0.0,0.0,0.0,0.0,0.0,0.0,0.0,0.0,0.0,0.0,0.0,0.0,0.0,0.0,0.0,0.0,0.0,0.0,0.0,0.0,0.0,0.0,0.0,0.0,0.0,0.0,0.0,0.0,0.0,0.0,0.0,0.0,0.0,0.0,0.0,0.0,0.0,0.0,0.0,0.0,0.0,0.0,0.0,0.0,0.0,0.0,0.0,0.0,0.0,0.0,0.0,0.0,0.0,0.0,0.0,0.0,0.0,0.0,0.0,0.0,0.0,0.0,0.0,0.0,0.0,0.0,0.0,0.0,0.0,0.0,0.0,0.0,0.0,0.0,0.0,0.0,0.0,0.0,0.0,0.0,0.0,0.0,0.0,0.0,0.0,0.0,0.0,0.0,0.0,0.0,0.0,0.0,0.0,0.0,0.0,0.0,0.0,0.0,0.0,0.0,0.0,0.0,0.0,0.0,0.0,0.0,0.0,0.0,0.0,0.0,0.0,0.0,0.0,0.0,0.0,0.0,0.0,0.0,0.0,0.0,0.0,0.0,0.0,0.0,0.0,0.0,0.0,0.0,0.0,0.0,0.0,0.0,0.0,0.0,0.0,0.0,0.0,0.0,0.0,0.0,0.0,0.0,0.0,0.0,0.0,0.0,0.0,0.0,0.0,0.0,0.0,0.0,0.0,0.0,0.0,0.0,0.0,0.0,0.0,0.0,0.0,0.0,0.0,0.0,0.0,0.0,0.0,0.0,0.0,0.0,0.0,0.0,0.0,0.0,0.0,0.0,0.0,0.0,0.0,0.0,0.0,0.0,0.0,0.0,0.0,0.0,0.0,0.0,0.0,0.0,0.0,0.0,0.0,0.0,0.0,0.0,0.0,0.0,0.0,0.0,0.0,0.0,0.0,0.0,0.0,0.0,0.0,0.0,0.0,0.0,0.0,0.0,0.0,0.0,0.0,0.0,0.0,0.0,0.0,0.0,0.0,0.0,0.0,0.0,0.0,0.0,0.0,0.0,0.0,0.0,0.0,0.0,0.0,0.0,0.0,0.0,0.0,0.0,0.0,0.0,0.0,0.0,0.0,0.0,0.0,0.0,0.0,0.0,0.0,0.0,0.0,0.0,0.0,0.0,0.0,0.0,0.0,0.0,0.0,0.0,0.0,0.0,0.0,0.0,0.0,0.0,0.0,0.0,0.0,0.0,0.0,0.0,0.0,0.0,0.0,0.0,0.0,0.0,0.0,0.0,0.0,0.0,0.0,0.0,0.0,0.0,0.0,0.0,0.0,0.0,0.0,0.0,0.0,0.0,0.0,0.0,0.0,0.0,0.0,0.0,0.0,0.0,0.0,0.0,0.0,0.0,0.0,0.0,0.0,0.0,0.0,0.0,0.0,0.0,0.0,0.0,0.0,0.0,0.0,0.0,0.0,0.0,0.0,0.0,0.0,0.0,0.0,0.0,0.0,0.0,0.0,0.0,0.0,0.0,0.0,0.0,0.0,0.0,0.0,0.0,0.0,0.0,0.0,0.0,0.0,0.0,0.0,0.0,0.0,0.0,0.0,0.0,0.0,0.0,0.0,0.0,0.0,0.0,0.0,0.0,0.0,0.0,0.0,0.0,0.0,0.0,0.0,0.0,0.0,0.0,0.0,0.0,0.0,0.0,0.0,0.0,0.0,0.0,0.0,0.0,0.0,0.0,0.0,0.0,0.0,0.0,0.0,0.0,0.0,0.0,0.0,0.0,0.0,0.0,0.0,0.0,0.0,0.0,0.0,0.0,0.0,0.0,0.0,0.0,0.0,0.0,0.0,0.0,0.0,0.0,0.0,0.0,0.0,0.0,0.0,0.0,0.0,0.0,0.0,0.0,0.0,0.0,0.0,0.0,0.0,0.0,0.0,0.0,0.0,0.0,0.0,0.0,0.0,0.0,0.0,0.0,0.0,0.0,0.0,0.0,0.0,0.0,0.0,0.0,0.0,0.0,0.0,0.0,0.0,0.0,0.0,0.0,0.0,0.0,0.0,0.0,0.0,0.0,0.0,0.0,0.0,0.0,0.0,0.0,0.0,0.0,0.0,0.0,0.0,0.0,0.0,0.0,0.0,0.0,0.0,0.0,0.0,0.0,0.0,0.0,0.0,0.0,0.0,0.0,0.0,0.0,0.0,0.0,0.0,0.0,0.0,0.0,0.0,0.0,0.0,0.0,0.0,0.0,0.0,0.0,0.0,0.0,0.0,0.0,0.0,0.0,0.0,0.0,0.0,0.0,0.0,0.0,0.0,0.0,0.0,0.0,0.0,0.0,0.0,0.0,0.0,0.0,0.0,0.0,0.0,0.0,0.0,0.0,0.0,0.0,0.0,0.0,0.0,0.0,0.0,0.0,0.0,0.0,0.0,0.0,0.0,0.0,0.0,0.0,0.0,0.0,0.0,0.0,0.0,0.0,0.0,0.0,0.0,0.0,0.0,0.0,0.0,0.0,0.0,0.0,0.0,0.0,0.0,0.0,0.0,0.0,0.0,0.0,0.0,0.0,0.0,0.0,0.0,0.0,0.0,0.0,0.0,0.0,0.0,0.0,0.0,0.0,0.0,0.0,0.0,0.0,0.0,0.0,0.0,0.0,0.0,0.0,0.0,0.0,0.0,0.0,0.0,0.0,0.0,0.0,0.0,0.0,0.0,0.0,0.0,0.0,0.0,0.0,0.0,0.0,0.0,0.0,0.0,0.0,0.0,0.0,0.0,0.0,-0.696,0.0,0.0,0.0,0.0,0.0,0.0,0.0,0.0,0.0,0.0,0.0,0.0,0.0,0.0,0.0,0.0,0.0,0.0,0.0,0.0,0.0,0.0,0.0,0.0,0.0,0.0,0.0,0.0,0.0,0.0,0.0,0.0,0.0,0.0,0.0,0.0,0.0,0.0,0.0,0.0,0.0,0.0,0.0,0.0,0.0,0.0,0.0,0.0,0.0,0.0,0.0,0.0,0.0,0.0,0.0,0.0,0.0,0.0,0.0,0.0,0.0,0.0,0.0,0.0,0.0,0.0,0.0,0.0,0.0,0.0,0.0,0.0,0.0,0.0,0.0,0.0,0.0,0.0,0.0,0.0,0.0,0.0,0.0,0.0,0.0,0.0,0.0,0.0,0.0,0.0,0.0,0.0,0.0,0.0,0.0,0.0,0.0,0.0,0.0,0.0,0.0,0.0,0.0,0.0,0.0,0.0,0.0,0.0,0.0,0.0,-0.7075,-0.7394,-0.7272,-0.7162,-0.7077,0.0,0.0,0.0,0.0,0.0,0.0,0.0,0.0,0.0,0.0,0.0,0.0,0.0,0.0,0.0,0.0,0.0,0.0,0.0,0.0,0.0,0.0,0.0,0.0,0.0,0.0,0.0,0.0,0.0,0.0,0.0,0.0,0.0,0.0,0.0,0.0,0.0,0.0,0.0,0.0,0.0,0.0,0.0,0.0,0.0,0.0,0.0,0.0,0.0,0.0,0.0,0.0,0.0,0.0,0.0,0.0,0.0,0.0,0.0,0.0,0.0,0.0,0.0,0.0,0.0,0.0,0.0,0.0,0.0,0.0,0.0,0.0,0.0,0.0,0.0,0.0,0.0,0.0,0.0,0.0,0.0,0.0,0.0,0.0,0.0,0.0,0.0,0.0,0.0,0.0,0.0,0.0,0.0,0.0,0.0,0.0,0.0,0.0,0.0,0.0,0.0,0.0,0.0,0.0,0.0,0.0,0.0,0.0,0.0,0.0,0.0,0.0,-0.813,-0.7983,-0.791,0.0,0.0,0.0,0.0,0.0,0.0,0.0,0.0,0.0,0.0,0.0,0.0,0.0,0.0,0.0,0.0,0.0,0.0,0.0,0.0,0.0,0.0,0.0,0.0,0.0,0.0,0.0,0.0,0.0,0.0,0.0,0.0,0.0,0.0,0.0,0.0,0.0,0.0,0.0,0.0,0.0,0.0,0.0,0.0,0.0,0.0,0.0,0.0,0.0,0.0,0.0,0.0,0.0,0.0,0.0,0.0,0.0,0.0,0.0,0.0,0.0,0.0,0.0,0.0,0.0,0.0,0.0,0.0,0.0,0.0,0.0,0.0,0.0,0.0,0.0,0.0,0.0,0.0,0.0,0.0,0.0,0.0,0.0,0.0,0.0,0.0,0.0,0.0,0.0,0.0,0.0,0.0,0.0,0.0,0.0,0.0,0.0,0.0,0.0,0.0,0.0,0.0,0.0,0.0,0.0,0.0,0.0,0.0,0.0,0.0,-0.8497,-1.0443,-1.046,0.0,-1.0002,0.0,0.0,0.0,0.0,0.0,0.0,0.0,0.0,0.0,0.0,0.0,0.0,0.0,0.0,0.0,0.0,0.0,0.0,0.0,0.0,0.0,0.0,0.0,0.0,0.0,0.0,0.0,0.0,0.0,0.0,0.0,0.0,0.0,0.0,0.0,0.0,0.0,0.0,0.0,0.0,0.0,0.0,0.0,0.0,0.0,0.0,0.0,0.0,0.0,0.0,0.0,0.0,0.0,0.0,0.0,0.0,0.0,0.0,0.0,0.0,0.0,0.0,0.0,0.0,0.0,0.0,0.0,0.0,0.0,0.0,0.0,0.0,0.0,0.0,0.0,0.0,0.0,0.0,0.0,0.0,0.0,0.0,0.0,0.0,0.0,0.0,0.0,0.0,0.0,0.0,0.0,0.0,0.0,0.0,0.0,0.0,0.0,0.0,0.0,0.0,0.0,0.0,0.0,0.0,0.0,0.0,0.0,0.0,0.0,0.0,0.0,-1.0948,-1.0861,-1.0602,0.0,0.0,0.0,0.0,0.0,0.0,0.0,0.0,0.0,0.0,0.0,0.0,0.0,0.0,0.0,0.0,0.0,0.0,0.0,0.0,0.0,0.0,0.0,0.0,0.0,0.0,0.0,0.0,0.0,0.0,0.0,0.0,0.0,0.0,0.0,0.0,0.0,0.0,0.0,0.0,0.0,0.0,0.0,0.0,0.0,0.0,0.0,0.0,0.0,0.0,0.0,0.0,0.0,0.0,0.0,0.0,0.0,0.0,0.0,0.0,0.0,0.0,0.0,0.0,0.0,0.0,0.0,0.0,0.0,0.0,0.0,0.0,0.0,0.0,0.0,0.0,0.0,0.0,0.0,0.0,0.0,0.0,0.0,0.0,0.0,0.0,0.0,0.0,0.0,0.0,0.0,0.0,0.0,0.0,0.0,0.0,0.0,0.0,0.0,0.0,0.0,0.0,0.0,0.0,0.0,0.0,0.0,0.0,0.0,0.0,-1.0279,0.0,-1.1691,-1.1482,-1.0951,-1.013,0.0,0.0,0.0,0.0,0.0,0.0,0.0,0.0,0.0,0.0,0.0,0.0,0.0,0.0,0.0,0.0,0.0,0.0,0.0,0.0,0.0,0.0,0.0,0.0,0.0,0.0,0.0,0.0,0.0,0.0,0.0,0.0,0.0,0.0,0.0,0.0,0.0,0.0,0.0,0.0,0.0,0.0,0.0,0.0,0.0,0.0,0.0,0.0,0.0,0.0,0.0,0.0,0.0,0.0,0.0,0.0,0.0,0.0,0.0,0.0,0.0,0.0,0.0,0.0,0.0,0.0,0.0,0.0,0.0,0.0,0.0,0.0,0.0,0.0,0.0,0.0,0.0,0.0,0.0,0.0,0.0,0.0,0.0,0.0,0.0,0.0,0.0,0.0,0.0,0.0,0.0,0.0,0.0,0.0,0.0,0.0,0.0,0.0,0.0,0.0,0.0,0.0,0.0,0.0,0.0,0.0,0.0,0.0,0.0,-1.1698,-1.1644,-1.3333,-1.288,-1.1753,0.0,0.0,0.0,0.0,0.0,0.0,0.0,0.0,0.0,0.0,0.0,0.0,0.0,0.0,0.0,0.0,0.0,0.0,0.0,0.0,0.0,0.0,0.0,0.0,0.0,0.0,0.0,0.0,0.0,0.0,0.0,0.0,0.0,0.0,0.0,0.0,0.0,0.0,0.0,0.0,0.0,0.0,0.0,0.0,0.0,0.0,0.0,0.0,0.0,0.0,0.0,0.0,0.0,0.0,0.0,0.0,0.0,0.0,0.0,0.0,0.0,0.0,0.0,0.0,0.0,0.0,0.0,0.0,0.0,0.0,0.0,0.0,0.0,0.0,0.0,0.0,0.0,0.0,0.0,0.0,0.0,0.0,0.0,0.0,0.0,0.0,0.0,0.0,0.0,0.0,0.0,0.0,0.0,0.0,0.0,0.0,0.0,0.0,0.0,0.0,0.0,0.0,0.0,0.0,0.0,0.0,0.0,0.0,0.0,-0.9681,-1.042,-1.2515,0.0,-1.2877,-1.1135,0.0,0.0,0.0,0.0,0.0,0.0,0.0,0.0,0.0,0.0,0.0,0.0,0.0,0.0,0.0,0.0,0.0,0.0,0.0,0.0,0.0,0.0,0.0,0.0,0.0,0.0,0.0,0.0,0.0,0.0,0.0,0.0,0.0,0.0,0.0,0.0,0.0,0.0,0.0,0.0,0.0,0.0,0.0,0.0,0.0,0.0,0.0,0.0,0.0,0.0,0.0,0.0,0.0,0.0,0.0,0.0,0.0,0.0,0.0,0.0,0.0,0.0,0.0,0.0,0.0,0.0,0.0,0.0,0.0,0.0,0.0,0.0,0.0,0.0,0.0,0.0,0.0,0.0,0.0,0.0,0.0,0.0,0.0,0.0,0.0,0.0,0.0,0.0,0.0,0.0,0.0,0.0,0.0,0.0,0.0,0.0,0.0,0.0,0.0,0.0,0.0,0.0,0.0,0.0,0.0,0.0,0.0,0.0,0.0,-0.943,0.0,-1.366,0.0,-1.2671,-1.0626,0.0,0.0,0.0,0.0,0.0,0.0,0.0,0.0,0.0,0.0,0.0,0.0,0.0,0.0,0.0,0.0,0.0,0.0,0.0,0.0,0.0,0.0,0.0,0.0,0.0,0.0,0.0,0.0,0.0,0.0,0.0,0.0,0.0,0.0,0.0,0.0,0.0,0.0,0.0,0.0,0.0,0.0,0.0,0.0,0.0,0.0,0.0,0.0,0.0,0.0,0.0,0.0,0.0,0.0,0.0,0.0,0.0,0.0,0.0,0.0,0.0,0.0,0.0,0.0,0.0,0.0,0.0,0.0,0.0,0.0,0.0,0.0,0.0,0.0,0.0,0.0,0.0,0.0,0.0,0.0,0.0,0.0,0.0,0.0,0.0,0.0,0.0,0.0,0.0,0.0,0.0,0.0,0.0,0.0,0.0,0.0,0.0,0.0,0.0,0.0,0.0,0.0,0.0,0.0,0.0,0.0,0.0,0.0,-0.9074,-1.3202,-1.4624,-1.4822,-1.404,-1.2433,-1.0296,0.0,0.0,0.0,0.0,0.0,0.0,0.0,0.0,0.0,0.0,0.0,0.0,0.0,0.0,0.0,0.0,0.0,0.0,0.0,0.0,0.0,0.0,0.0,0.0,0.0,0.0,0.0,0.0,0.0,0.0,0.0,0.0,0.0,0.0,0.0,0.0,0.0,0.0,0.0,0.0,0.0,0.0,0.0,0.0,0.0,0.0,0.0,0.0,0.0,0.0,0.0,0.0,0.0,0.0,0.0,0.0,0.0,0.0,0.0,0.0,0.0,0.0,0.0,0.0,0.0,0.0,0.0,0.0,0.0,0.0,0.0,0.0,0.0,0.0,0.0,0.0,0.0,0.0,0.0,0.0,0.0,0.0,0.0,0.0,0.0,0.0,0.0,0.0,0.0,0.0,0.0,0.0,0.0,0.0,0.0,0.0,0.0,0.0,0.0,0.0,0.0,0.0,0.0,0.0,0.0,0.0,0.0,0.0,0.0,-1.2095,-1.2709,-1.364,-1.4799,-1.2032,-1.0353,0.0,0.0,0.0,0.0,0.0,0.0,0.0,0.0,0.0,0.0,0.0,0.0,0.0,0.0,0.0,0.0,0.0,0.0,0.0,0.0,0.0,0.0,0.0,0.0,0.0,0.0,0.0,0.0,0.0,0.0,0.0,0.0,0.0,0.0,0.0,0.0,0.0,0.0,0.0,0.0,0.0,0.0,0.0,0.0,0.0,0.0,0.0,0.0,0.0,0.0,0.0,0.0,0.0,0.0,0.0,0.0,0.0,0.0,0.0,0.0,0.0,0.0,0.0,0.0,0.0,0.0,0.0,0.0,0.0,0.0,0.0,0.0,0.0,0.0,0.0,0.0,0.0,0.0,0.0,0.0,0.0,0.0,0.0,0.0,0.0,0.0,0.0,0.0,0.0,0.0,0.0,0.0,0.0,0.0,0.0,0.0,0.0,0.0,0.0,0.0,0.0,0.0,0.0,0.0,0.0,0.0,0.0,0.0,0.0,-1.305,-1.3457,-1.432,-1.5761,-1.2769,-1.1146,-1.114,0.0,0.0,0.0,0.0,0.0,0.0,0.0,0.0,0.0,0.0,0.0,0.0,0.0,0.0,0.0,0.0,0.0,0.0,0.0,0.0,0.0,0.0,0.0,0.0,0.0,0.0,0.0,0.0,0.0,0.0,0.0,0.0,0.0,0.0,0.0,0.0,0.0,0.0,0.0,0.0,0.0,0.0,0.0,0.0,0.0,0.0,0.0,0.0,0.0,0.0,0.0,0.0,0.0,0.0,0.0,0.0,0.0,0.0,0.0,0.0,0.0,0.0,0.0,0.0,0.0,0.0,0.0,0.0,0.0,0.0,0.0,0.0,0.0,0.0,0.0,0.0,0.0,0.0,0.0,0.0,0.0,0.0,0.0,0.0,0.0,0.0,0.0,0.0,0.0,0.0,0.0,0.0,0.0,0.0,0.0,0.0,0.0,0.0,0.0,0.0,0.0,0.0,0.0,0.0,0.0,0.0,0.0,0.0,-1.5665,-1.6266,-1.6561,-1.6507,-1.4417,-1.2509,0.0,0.0,0.0,0.0,0.0,0.0,0.0,0.0,0.0,0.0,0.0,0.0,0.0,0.0,0.0,0.0,0.0,0.0,0.0,0.0,0.0,0.0,0.0,0.0,0.0,0.0,0.0,0.0,0.0,0.0,0.0,0.0,0.0,0.0,0.0,0.0,0.0,0.0,0.0,0.0,0.0,0.0,0.0,0.0,0.0,0.0,0.0,0.0,0.0,0.0,0.0,0.0,0.0,0.0,0.0,0.0,0.0,0.0,0.0,0.0,0.0,0.0,0.0,0.0,0.0,0.0,0.0,0.0,0.0,0.0,0.0,0.0,0.0,0.0,0.0,0.0,0.0,0.0,0.0,0.0,0.0,0.0,0.0,0.0,0.0,0.0,0.0,0.0,0.0,0.0,0.0,0.0,0.0,0.0,0.0,0.0,0.0,0.0,0.0,0.0,0.0,0.0,0.0,0.0,0.0,0.0,0.0,0.0,0.0,-1.5752,-1.707,-1.7534,-1.713,-1.5396,-1.3582,0.0,0.0,0.0,0.0,0.0,0.0,0.0,0.0,0.0,0.0,0.0,0.0,0.0,0.0,0.0,0.0,0.0,0.0,0.0,0.0,0.0,0.0,0.0,0.0,0.0,0.0,0.0,0.0,0.0,0.0,0.0,0.0,0.0,0.0,0.0,0.0,0.0,0.0,0.0,0.0,0.0,0.0,0.0,0.0,0.0,0.0,0.0,0.0,0.0,0.0,0.0,0.0,0.0,0.0,0.0,0.0,0.0,0.0,0.0,0.0,0.0,0.0,0.0,0.0,0.0,0.0,0.0,0.0,0.0,0.0,0.0,0.0,0.0,0.0,0.0,0.0,0.0,0.0,0.0,0.0,0.0,0.0,0.0,0.0,0.0,0.0,0.0,0.0,0.0,0.0,0.0,0.0,0.0,0.0,0.0,0.0,0.0,0.0,0.0,0.0,0.0,0.0,0.0,0.0,0.0,0.0,0.0,0.0,-1.454,-1.6322,-1.7472,-1.7934,-1.7615,-1.6529,-1.4999,0.0,0.0,0.0,0.0,0.0,0.0,0.0,0.0,0.0,0.0,0.0,0.0,0.0,0.0,0.0,0.0,0.0,0.0,0.0,0.0,0.0,0.0,0.0,0.0,0.0,0.0,0.0,0.0,0.0,0.0,0.0,0.0,0.0,0.0,0.0,0.0,0.0,0.0,0.0,0.0,0.0,0.0,0.0,0.0,0.0,0.0,0.0,0.0,0.0,0.0,0.0,0.0,0.0,0.0,0.0,0.0,0.0,0.0,0.0,0.0,0.0,0.0,0.0,0.0,0.0,0.0,0.0,0.0,0.0,0.0,0.0,0.0,0.0,0.0,0.0,0.0,0.0,0.0,0.0,0.0,0.0,0.0,0.0,0.0,0.0,0.0,0.0,0.0,0.0,0.0,0.0,0.0,0.0,0.0,0.0,0.0,0.0,0.0,0.0,0.0,0.0,0.0,0.0,0.0,0.0,0.0,0.0,0.0,-1.436,-1.6783,-1.7541,-1.7859,-1.7887,-1.7577,-1.6343,0.0,0.0,0.0,0.0,0.0,0.0,0.0,0.0,0.0,0.0,0.0,0.0,0.0,0.0,0.0,0.0,0.0,0.0,0.0,0.0,0.0,0.0,0.0,0.0,0.0,0.0,0.0,0.0,0.0,0.0,0.0,0.0,0.0,0.0,0.0,0.0,0.0,0.0,0.0,0.0,0.0,0.0,0.0,0.0,0.0,0.0,0.0,0.0,0.0,0.0,0.0,0.0,0.0,0.0,0.0,0.0,0.0,0.0,0.0,0.0,0.0,0.0,0.0,0.0,0.0,0.0,0.0,0.0,0.0,0.0,0.0,0.0,0.0,0.0,0.0,0.0,0.0,0.0,0.0,0.0,0.0,0.0,0.0,0.0,0.0,0.0,0.0,0.0,0.0,0.0,0.0,0.0,0.0,0.0,0.0,0.0,0.0,0.0,0.0,0.0,0.0,0.0,0.0,0.0,0.0,0.0,0.0,0.0,-1.4488,-1.5143,-1.6774,-1.7693,-1.7628,-1.7472,-1.6225,0.0,0.0,0.0,0.0,0.0,0.0,0.0,0.0,0.0,0.0,0.0,0.0,0.0,0.0,0.0,0.0,0.0,0.0,0.0,0.0,0.0,0.0,0.0,0.0,0.0,0.0,0.0,0.0,0.0,0.0,0.0,0.0,0.0,0.0,0.0,0.0,0.0,0.0,0.0,0.0,0.0,0.0,0.0,0.0,0.0,0.0,0.0,0.0,-0.5756,0.0,0.0,0.0,0.0,0.0,0.0,0.0,0.0,0.0,0.0,0.0,0.0,0.0,0.0,0.0,0.0,0.0,0.0,0.0,0.0,0.0,0.0,0.0,0.0,0.0,0.0,0.0,0.0,0.0,0.0,0.0,0.0,0.0,0.0,0.0,0.0,0.0,0.0,0.0,0.0,0.0,0.0,0.0,0.0,0.0,0.0,0.0,0.0,0.0,0.0,0.0,0.0,0.0,0.0,0.0,0.0,0.0,0.0,0.0,-1.438,-1.5112,-1.6417,-1.709,-1.7047,-1.6903,-1.5962,0.0,0.0,0.0,0.0,0.0,0.0,0.0,0.0,0.0,0.0,0.0,0.0,0.0,0.0,0.0,0.0,0.0,0.0,0.0,0.0,0.0,0.0,0.0,0.0,0.0,0.0,0.0,0.0,0.0,0.0,0.0,0.0,0.0,0.0,0.0,0.0,0.0,0.0,0.0,0.0,0.0,0.0,0.0,0.0,0.0,0.0,0.0,0.0,0.0,0.0,0.0,0.0,0.0,0.0,0.0,0.0,0.0,0.0,0.0,0.0,0.0,0.0,0.0,0.0,0.0,0.0,0.0,0.0,0.0,0.0,0.0,0.0,0.0,0.0,0.0,0.0,0.0,0.0,0.0,0.0,0.0,0.0,0.0,0.0,0.0,0.0,0.0,0.0,0.0,0.0,0.0,0.0,0.0,0.0,0.0,0.0,0.0,0.0,0.0,0.0,0.0,0.0,0.0,0.0,0.0,0.0,0.0,-1.2525,-1.4108,-1.5509,-1.6084,-1.6322,-1.6312,-1.6126,-1.557,-1.4547,0.0,0.0,0.0,0.0,0.0,0.0,0.0,0.0,0.0,0.0,0.0,0.0,0.0,0.0,0.0,0.0,0.0,0.0,0.0,0.0,0.0,0.0,0.0,0.0,0.0,0.0,0.0,0.0,0.0,0.0,0.0,0.0,0.0,0.0,0.0,0.0,0.0,0.0,-0.758,-0.8785,0.0,0.0,0.0,0.0,0.0,0.0,0.0,0.0,-0.6096,0.0,0.0,0.0,0.0,0.0,0.0,0.0,0.0,0.0,0.0,0.0,0.0,0.0,0.0,0.0,0.0,0.0,0.0,0.0,0.0,0.0,0.0,0.0,0.0,0.0,0.0,0.0,0.0,0.0,0.0,0.0,0.0,0.0,0.0,0.0,0.0,0.0,0.0,0.0,0.0,0.0,0.0,0.0,0.0,0.0,0.0,0.0,0.0,0.0,0.0,0.0,0.0,0.0,0.0,0.0,0.0,-1.1403,-1.2455,-1.3616,-1.4913,-1.5357,-1.5584,-1.5555,-1.5388,-1.4795,-1.3789,0.0,0.0,0.0,0.0,0.0,0.0,0.0,0.0,0.0,0.0,0.0,0.0,0.0,0.0,0.0,0.0,0.0,0.0,0.0,0.0,0.0,0.0,0.0,0.0,0.0,0.0,0.0,0.0,0.0,0.0,0.0,0.0,0.0,0.0,0.0,0.0,0.0,0.0,0.0,-0.9676,-0.9846,0.0,0.0,0.0,0.0,0.0,0.0,0.0,0.0,-0.7911,0.0,0.0,0.0,0.0,0.0,0.0,0.0,0.0,0.0,0.0,0.0,0.0,0.0,0.0,0.0,0.0,0.0,0.0,0.0,0.0,0.0,0.0,0.0,0.0,0.0,0.0,0.0,0.0,0.0,0.0,0.0,0.0,0.0,0.0,0.0,0.0,0.0,0.0,0.0,0.0,0.0,0.0,0.0,0.0,0.0,0.0,0.0,0.0,0.0,0.0,0.0,0.0,0.0,0.0,0.0,-1.0949,-1.2654,-1.4053,-1.5078,-1.5312,-1.542,-1.5381,-1.448,-1.374,0.0,0.0,0.0,0.0,0.0,0.0,0.0,0.0,0.0,0.0,0.0,0.0,0.0,0.0,0.0,0.0,0.0,0.0,0.0,0.0,0.0,0.0,0.0,0.0,0.0,0.0,0.0,0.0,0.0,0.0,0.0,0.0,0.0,0.0,0.0,0.0,0.0,0.0,0.0,0.0,-1.003,-1.0143,-0.962,0.0,0.0,0.0,0.0,0.0,0.0,-0.8241,-0.8582,0.0,0.0,0.0,0.0,0.0,0.0,0.0,0.0,0.0,0.0,0.0,0.0,0.0,0.0,0.0,0.0,0.0,0.0,0.0,0.0,0.0,0.0,0.0,0.0,0.0,0.0,0.0,0.0,0.0,0.0,0.0,0.0,0.0,0.0,0.0,0.0,0.0,0.0,0.0,0.0,0.0,0.0,0.0,0.0,0.0,0.0,0.0,0.0,0.0,0.0,0.0,0.0,0.0,0.0,0.0,-1.0409,-1.2679,-1.4375,-1.5361,-1.542,-1.542,-1.5391,-1.3936,-1.3018,0.0,0.0,0.0,0.0,0.0,0.0,0.0,0.0,0.0,0.0,0.0,0.0,0.0,0.0,0.0,0.0,0.0,0.0,0.0,0.0,0.0,0.0,0.0,0.0,0.0,0.0,0.0,0.0,0.0,0.0,0.0,0.0,0.0,0.0,0.0,0.0,0.0,0.0,0.0,0.0,0.0,-1.0891,-1.0508,-1.049,0.0,0.0,0.0,0.0,-0.8115,-0.8622,0.0,0.0,0.0,0.0,0.0,0.0,0.0,0.0,0.0,0.0,0.0,0.0,0.0,0.0,0.0,0.0,0.0,0.0,0.0,0.0,0.0,0.0,0.0,0.0,0.0,0.0,0.0,0.0,0.0,0.0,0.0,0.0,0.0,0.0,0.0,0.0,0.0,0.0,0.0,0.0,0.0,0.0,0.0,0.0,0.0,0.0,0.0,0.0,0.0,0.0,0.0,0.0,0.0,0.0,0.0,0.0,-1.0365,-1.213,-1.3799,-1.5312,-1.542,-1.542,-1.54,-1.4482,-1.3396,0.0,0.0,0.0,0.0,0.0,0.0,0.0,0.0,0.0,0.0,0.0,0.0,0.0,0.0,0.0,0.0,0.0,0.0,0.0,0.0,0.0,0.0,0.0,0.0,0.0,0.0,0.0,0.0,0.0,0.0,0.0,0.0,0.0,0.0,0.0,0.0,0.0,0.0,0.0,0.0,0.0,-1.2516,-1.0722,-1.0705,-1.0371,0.0,0.0,0.0,-0.718,-0.888,0.0,0.0,0.0,0.0,0.0,0.0,0.0,0.0,0.0,0.0,0.0,0.0,0.0,0.0,0.0,0.0,0.0,0.0,0.0,0.0,0.0,0.0,0.0,0.0,0.0,0.0,0.0,0.0,0.0,0.0,0.0,0.0,0.0,0.0,0.0,0.0,0.0,0.0,0.0,0.0,0.0,0.0,0.0,0.0,0.0,0.0,0.0,0.0,0.0,0.0,0.0,0.0,0.0,0.0,0.0,-0.8546,-1.0392,-1.2499,-1.418,-1.5361,-1.542,-1.542,-1.541,-1.4111,-1.2938,0.0,0.0,0.0,0.0,0.0,0.0,0.0,0.0,0.0,0.0,0.0,0.0,0.0,0.0,0.0,0.0,0.0,0.0,0.0,0.0,0.0,0.0,0.0,0.0,0.0,0.0,0.0,0.0,0.0,0.0,0.0,0.0,0.0,0.0,0.0,0.0,0.0,0.0,0.0,0.0,0.0,0.0,-1.1981,-1.1701,0.0,0.0,0.0,-1.022,-0.914,0.0,0.0,0.0,0.0,0.0,0.0,0.0,0.0,0.0,0.0,0.0,0.0,0.0,0.0,0.0,0.0,0.0,0.0,0.0,0.0,0.0,0.0,0.0,0.0,0.0,0.0,0.0,0.0,0.0,0.0,0.0,0.0,0.0,0.0,0.0,0.0,0.0,0.0,0.0,0.0,0.0,0.0,0.0,0.0,0.0,0.0,0.0,0.0,0.0,0.0,0.0,0.0,0.0,0.0,0.0,0.0,0.0,-1.0505,-1.2897,-1.4496,-1.5371,-1.542,-1.542,-1.5391,-1.3975,0.0,0.0,0.0,0.0,0.0,0.0,0.0,0.0,0.0,0.0,0.0,0.0,0.0,0.0,0.0,0.0,0.0,0.0,0.0,0.0,0.0,0.0,0.0,0.0,0.0,0.0,0.0,-0.5283,0.0,0.0,0.0,0.0,0.0,0.0,0.0,0.0,0.0,0.0,0.0,0.0,0.0,0.0,-1.2264,-1.2698,-1.2544,-1.2323,0.0,0.0,-1.1255,-1.0283,-1.1122,-1.2019,0.0,0.0,0.0,0.0,0.0,0.0,0.0,0.0,0.0,0.0,0.0,0.0,0.0,0.0,0.0,0.0,0.0,0.0,0.0,0.0,0.0,0.0,0.0,0.0,0.0,0.0,0.0,0.0,0.0,0.0,0.0,0.0,0.0,0.0,0.0,0.0,0.0,0.0,0.0,0.0,0.0,0.0,0.0,0.0,0.0,0.0,0.0,0.0,0.0,0.0,0.0,0.0,0.0,0.0,0.0,-1.078,-1.2987,-1.4551,-1.5381,-1.542,-1.542,-1.54,-1.4521,-1.3416,0.0,0.0,0.0,0.0,0.0,0.0,0.0,0.0,0.0,0.0,0.0,0.0,0.0,0.0,0.0,0.0,0.0,0.0,0.0,0.0,0.0,0.0,0.0,0.0,0.0,0.0,0.0,0.0,0.0,0.0,0.0,0.0,0.0,0.0,0.0,0.0,0.0,0.0,0.0,0.0,0.0,-1.322,-1.2081,-1.2773,-1.302,0.0,0.0,-1.0853,-0.9204,-1.0836,-1.2256,-1.2158,0.0,0.0,0.0,0.0,0.0,0.0,0.0,0.0,0.0,0.0,0.0,0.0,0.0,0.0,0.0,0.0,0.0,0.0,0.0,0.0,0.0,0.0,0.0,0.0,0.0,0.0,0.0,0.0,0.0,0.0,0.0,0.0,0.0,0.0,0.0,0.0,0.0,0.0,0.0,0.0,0.0,0.0,0.0,0.0,0.0,0.0,0.0,0.0,0.0,0.0,0.0,0.0,0.0,-0.9474,-1.1257,-1.316,-1.4496,-1.5371,-1.542,-1.542,-1.542,-1.4525,-1.3507,0.0,0.0,0.0,0.0,0.0,0.0,0.0,0.0,0.0,0.0,0.0,0.0,0.0,0.0,0.0,0.0,0.0,0.0,0.0,0.0,0.0,0.0,0.0,0.0,0.0,0.0,0.0,0.0,-0.6557,-0.678,-0.726,0.0,0.0,0.0,0.0,0.0,0.0,0.0,0.0,0.0,0.0,-1.3494,-1.3895,-1.3469,0.0,0.0,-1.1753,-1.1755,-1.1039,-1.2004,-1.2563,-1.1796,-1.1064,0.0,0.0,0.0,0.0,0.0,0.0,0.0,0.0,0.0,0.0,0.0,0.0,0.0,0.0,0.0,0.0,0.0,0.0,0.0,0.0,0.0,0.0,0.0,0.0,0.0,0.0,0.0,0.0,0.0,0.0,0.0,0.0,0.0,0.0,0.0,0.0,0.0,0.0,0.0,0.0,0.0,0.0,0.0,0.0,0.0,0.0,0.0,0.0,0.0,0.0,0.0,0.0,-0.9967,-1.1694,-1.3403,-1.4678,-1.5391,-1.542,-1.542,-1.54,-1.4697,-1.3768,0.0,0.0,0.0,0.0,0.0,0.0,0.0,0.0,0.0,0.0,0.0,0.0,0.0,0.0,0.0,0.0,0.0,0.0,0.0,0.0,0.0,0.0,0.0,0.0,0.0,0.0,0.0,0.0,-0.7259,-0.7329,-0.6981,0.0,0.0,0.0,0.0,0.0,0.0,0.0,0.0,0.0,0.0,-1.3924,-1.4214,-1.3799,-1.3093,-1.211,-1.2131,-1.2351,-1.243,-1.2813,-1.265,-1.1482,0.0,0.0,0.0,0.0,0.0,0.0,0.0,0.0,0.0,0.0,0.0,0.0,0.0,0.0,0.0,0.0,0.0,0.0,0.0,0.0,0.0,0.0,0.0,0.0,0.0,0.0,0.0,0.0,0.0,0.0,0.0,0.0,0.0,0.0,0.0,0.0,0.0,0.0,0.0,0.0,0.0,0.0,0.0,0.0,0.0,0.0,0.0,0.0,0.0,0.0,0.0,0.0,0.0,0.0,-1.203,-1.3844,-1.499,-1.541,-1.542,-1.543,-1.54,-1.499,-1.4365,-1.3477,0.0,0.0,0.0,0.0,0.0,0.0,0.0,0.0,0.0,0.0,0.0,0.0,0.0,0.0,0.0,0.0,0.0,0.0,0.0,0.0,0.0,0.0,0.0,0.0,0.0,0.0,-0.709,-0.7852,-0.7863,0.0,0.0,0.0,0.0,0.0,0.0,0.0,0.0,0.0,0.0,-1.38,-1.4784,-1.2445,-1.3798,-1.4552,-1.2975,-1.2492,-1.2425,-1.2782,-1.2808,-1.2425,0.0,0.0,0.0,0.0,0.0,0.0,0.0,0.0,0.0,0.0,0.0,0.0,0.0,0.0,0.0,0.0,0.0,0.0,0.0,0.0,0.0,0.0,0.0,0.0,0.0,0.0,0.0,-1.0912,-1.0522,0.0,0.0,0.0,0.0,0.0,0.0,0.0,0.0,0.0,0.0,0.0,-1.369,-1.423,0.0,0.0,0.0,0.0,0.0,0.0,0.0,0.0,0.0,0.0,0.0,0.0,-1.1601,-1.3384,-1.4576,-1.541,-1.583,-1.585,-1.5703,-1.542,-1.5,-1.4111,-1.2647,0.0,0.0,0.0,0.0,0.0,0.0,0.0,0.0,0.0,0.0,0.0,0.0,0.0,0.0,0.0,0.0,0.0,0.0,0.0,0.0,0.0,0.0,0.0,0.0,0.0,-0.7478,0.0,0.0,0.0,0.0,0.0,0.0,0.0,0.0,0.0,0.0,0.0,-1.272,-1.3249,-1.5286,-1.6193,-1.4672,-1.4766,-1.4494,0.0,0.0,0.0,0.0,0.0,0.0,0.0,0.0,0.0,0.0,0.0,0.0,0.0,0.0,-0.8449,-0.7883,-0.7241,-0.6768,-0.684,0.0,0.0,0.0,0.0,0.0,0.0,0.0,0.0,0.0,0.0,0.0,0.0,0.0,0.0,0.0,0.0,-1.12,0.0,0.0,0.0,0.0,0.0,0.0,0.0,0.0,-1.4111,-1.4883,-1.5703,-1.6123,-1.6016,0.0,-1.5186,-1.3672,0.0,0.0,0.0,0.0,0.0,0.0,0.0,0.0,-1.2441,-1.4038,-1.5127,-1.5771,-1.6105,-1.6125,-1.5859,-1.542,-1.5,-1.4258,-1.3154,-1.2412,-1.1743,0.0,0.0,0.0,0.0,0.0,0.0,0.0,0.0,0.0,0.0,0.0,0.0,0.0,0.0,0.0,0.0,0.0,0.0,0.0,0.0,0.0,0.0,0.0,-0.8126,0.0,0.0,0.0,0.0,0.0,0.0,0.0,0.0,0.0,-1.2031,-1.3425,-1.4521,-1.4855,-1.667,-1.7351,-1.5829,0.0,0.0,0.0,0.0,0.0,0.0,0.0,-1.387,-1.3392,-1.2902,-1.2492,-1.2234,-1.1043,-0.9562,-0.8116,0.0,0.0,-0.84,-0.794,-0.7546,-0.7563,-0.6616,-0.546,-0.4645,-0.5076,-0.5743,0.0,0.0,0.0,0.0,0.0,0.0,0.0,0.0,-1.5764,-1.5077,0.0,-1.3278,0.0,0.0,0.0,0.0,0.0,0.0,0.0,0.0,-1.6758,-1.7402,-1.7461,-1.7842,-1.7607,-1.6885,-1.7598,-1.6894,-1.4824,-1.2353,0.0,0.0,0.0,0.0,0.0,0.0,-1.335,-1.4175,-1.5478,-1.6113,-1.6184,-1.6164,-1.5879,-1.542,-1.5019,-1.4795,-1.4727,-1.3564,-1.2705,-1.2256,-1.0565,0.0,0.0,0.0,0.0,0.0,0.0,0.0,0.0,0.0,0.0,0.0,0.0,0.0,0.0,0.0,0.0,0.0,0.0,0.0,0.0,-0.7466,0.0,0.0,0.0,0.0,0.0,0.0,0.0,0.0,0.0,0.0,-1.4629,-1.5679,-1.6321,-1.6088,0.0,0.0,0.0,0.0,-1.8317,-1.7641,-1.7619,-1.7409,-1.6469,-1.6337,-1.5893,-1.4396,0.0,0.0,-1.1337,-1.0286,-0.9609,-0.9252,-0.8432,-0.8027,-0.9009,-0.8748,-0.8632,-0.8738,-0.7253,-0.5439,-0.354,-0.4027,-0.5245,-2.474,0.0,0.0,0.0,0.0,-1.9433,-1.9748,-2.0017,-1.9,-1.7933,-1.6827,-1.4984,0.0,0.0,0.0,0.0,0.0,0.0,-1.5732,-1.7256,-1.7666,-1.8154,-1.875,-1.8867,-1.8789,-1.8564,-1.8496,-1.8066,-1.7471,-1.5869,-1.3916,-1.1728,0.0,0.0,0.0,0.0,-1.4658,-1.5508,-1.6494,-1.7002,-1.7012,-1.6699,-1.6182,-1.543,-1.5293,-1.5088,-1.4795,-1.4141,-1.3437,-1.2715,-1.1611,0.0,0.0,0.0,0.0,0.0,0.0,0.0,0.0,0.0,0.0,0.0,0.0,0.0,0.0,0.0,0.0,0.0,0.0,0.0,-0.7969,-0.8392,-0.9288,0.0,0.0,0.0,0.0,0.0,0.0,0.0,0.0,0.0,-1.8273,-1.8124,-1.7942,0.0,0.0,-2.0381,-1.8364,-1.9012,-1.9651,-1.9428,0.0,0.0,0.0,-1.7782,-1.7254,-1.6203,-1.5356,-1.4431,-1.324,-1.2792,-1.2268,-1.1288,-1.0145,-0.9401,-0.9497,-0.8637,-0.7956,-0.7766,-0.6076,-0.4501,-0.443,-0.4366,-0.4946,-2.936,-2.5744,-2.3621,-2.2293,-2.1549,-2.1423,-2.1476,-2.1429,-2.03,-1.9337,-1.8374,-1.6713,-1.5245,-1.395,-1.3327,0.0,0.0,0.0,-1.7275,-1.8769,-1.8769,-1.9131,-1.9766,-1.9795,-1.9697,-1.9521,-1.9268,-1.9062,-1.8887,-1.8125,-1.665,-1.4515,0.0,0.0,-1.3484,-1.4687,-1.5635,-1.6318,-1.7031,-1.7383,-1.7373,-1.6787,-1.6211,-1.5693,-1.5498,-1.5215,-1.4805,-1.4365,-1.3828,-1.3154,-1.2295,-1.1309,0.0,0.0,0.0,0.0,0.0,0.0,0.0,0.0,0.0,0.0,0.0,-0.5808,-0.4981,0.0,0.0,0.0,-0.6304,-0.7734,-0.9777,-1.0479,0.0,0.0,0.0,0.0,0.0,0.0,0.0,-1.6543,-1.8057,-1.9477,-2.0352,-2.0359,-1.9962,-1.9461,-2.0813,-2.1409,-1.9953,0.0,-2.1137,-2.1147,-2.068,-2.0243,-1.9713,-1.9531,-1.9109,-1.8008,-1.697,-1.6151,-1.5556,-1.4638,-1.368,-1.2818,-1.1653,-1.0742,-1.0619,-0.9548,-0.8321,-0.7706,-0.6345,-0.5197,-0.4839,-0.5149,-0.6034,-3.3413,-3.0913,-2.668,-2.4376,-2.3428,-2.3019,-2.2376,-2.1464,-2.0625,-1.993,-1.9336,-1.8409,-1.6865,-1.4948,-1.5641,0.0,0.0,-1.7643,-1.8809,-1.9961,-1.9971,-2.0176,-2.0566,-2.0566,-2.0352,-1.9971,-1.9961,-1.9766,-1.9404,-1.9346,-1.8936,-1.8135,-1.6523,-1.5654,-1.5557,-1.5947,-1.6367,-1.6777,-1.7217,-1.7422,-1.7363,-1.6553,-1.6094,-1.6115,-1.5605,-1.5176,-1.4795,-1.4336,-1.3906,-1.3506,-1.2725,-1.1904,-1.1045,0.0,0.0,0.0,0.0,0.0,0.0,0.0,0.0,0.0,0.0,0.0,0.0,0.0,0.0,0.0,-0.8227,0.0,-1.1674,-1.318,0.0,0.0,0.0,-1.6321,-1.6468,-1.7058,-1.771,-1.8162,0.0,0.0,0.0,0.0,-2.2112,-2.103,-2.1523,-2.1671,-2.0939,-2.1797,-2.2559,-2.2473,-2.2794,-2.2658,-2.1585,-2.1203,-2.0739,-1.9777,-1.868,-1.7755,-1.749,-1.5873,-1.4351,-1.407,-1.3011,-1.2037,-1.2042,-1.1044,-0.9661,-0.8355,-0.7855,-0.7003,-0.5189,-0.6218,-0.7739,-3.4338,-3.2374,-3.0178,-2.8158,-2.6314,-2.6208,-2.5397,-2.4074,-2.3494,-2.2168,-2.0225,-1.8929,-1.7495,-1.6046,-1.6989,-1.7642,-1.8013,-1.901,-1.9805,-2.0391,-2.041,-2.0459,-2.0566,-2.0576,-2.0585,-2.041,-2.041,-2.0361,-2.0244,-1.9922,-1.9658,-1.9434,-1.8721,-1.7715,-1.6484,-1.6855,-1.7129,-1.7227,-1.7646,-1.7705,-1.7373,-1.6855,-1.6406,-1.6064,-1.5332,-1.4883,-1.4775,-1.4053,-1.3603,-1.3496,-1.2998,-1.2471,-1.1943,-1.0684,0.0,0.0,0.0,0.0,0.0,0.0,0.0,0.0,0.0,-0.6849,-0.5665,0.0,-0.7712,0.0,-0.9234,-1.1296,-1.3682,-1.4257,0.0,0.0,-1.7568,-1.8066,-1.9355,-1.9703,-1.9966,-2.0362,-2.124,-2.1945,-2.2246,-2.2685,-2.2901,-2.2533,-2.264,-2.2668,-2.2207,-2.2524,-2.2988,-2.2988,-2.3066,-2.296,-2.2677,-2.1854,-2.1203,-2.0926,-1.9861,-1.8772,-1.787,-1.721,-1.6459,-1.5527,-1.4268,-1.3488,-1.3392,-1.2334,-1.1448,-1.0821,-0.9371,-0.7819,-0.7129,-0.7653,-0.8069,-3.5533,-3.3749,-3.2235,-3.0064,-2.7555,-2.6697,-2.5814,-2.4893,-2.3781,-2.2457,-2.1063,-1.9817,-1.8851,-1.8073,-1.8646,-1.9018,-1.9279,-2.0098,-2.0635,-2.085,-2.0654,-2.0576,-2.0576,-2.0576,-2.0576,-2.0576,-2.0576,-2.0576,-2.0557,-2.0322,-2.0205,-2.0195,-1.9775,-1.9092,-1.8184,-1.8018,-1.7949,-1.7939,-1.7978,-1.7891,-1.7656,-1.7061,-1.6523,-1.6135,-1.541,-1.4795,-1.4228,-1.3945,-1.3613,-1.3242,-1.2998,-1.2686,-1.2236,-1.1357,-1.0564,0.0,0.0,0.0,0.0,0.0,0.0,0.0,0.0,0.0,0.0,0.0,-0.9008,0.0,-1.1919,0.0,-1.6201,-1.6892,-1.7908,-1.9365,-1.9639,-2.0107,-2.1055,-2.1318,-2.1592,-2.2041,-2.25,-2.2793,-2.2793,-2.2988,-2.3144,-2.3144,-2.3144,-2.3057,-2.2861,-2.2998,-2.3144,-2.3144,-2.3144,-2.3144,-2.3144,-2.258,-2.212,-2.2031,-2.1123,-2.0034,-1.9405,-1.8411,-1.7412,-1.6756,-1.5615,-1.4752,-1.4657,-1.3686,-1.2818,-1.2528,-1.1175,-0.9916,-0.9706,-0.9715,-0.9719,-3.6656,-3.4793,-3.3086,-3.0716,-2.7933,-2.5859,-2.4948,-2.4869,-2.3012,-2.2089,-2.1802,-2.082,-2.0373,-2.0364,-2.0373,-2.0382,-2.0448,-2.1058,-2.1318,-2.1299,-2.0859,-2.0566,-2.0479,-2.043,-2.0401,-2.0401,-2.0401,-2.0489,-2.0566,-2.0576,-2.0576,-2.0547,-2.0185,-2.0,-1.9961,-1.9199,-1.874,-1.8562,-1.8223,-1.8008,-1.7998,-1.7227,-1.6602,-1.6152,-1.5615,-1.4785,-1.3662,-1.3887,-1.3721,-1.3018,-1.3008,-1.2842,-1.2375,-1.2021,-1.1592,0.0,-1.0651,0.0,0.0,0.0,0.0,0.0,0.0,0.0,0.0,-0.9276,-1.0711,-1.3512,-1.5285,-1.6985,-1.8796,-1.999,-2.0693,-2.082,-2.1504,-2.1982,-2.2051,-2.2373,-2.2734,-2.3008,-2.3144,-2.3144,-2.3125,-2.3144,-2.3144,-2.3144,-2.3144,-2.3125,-2.3125,-2.3125,-2.3144,-2.3144,-2.3144,-2.3144,-2.3144,-2.3047,-2.3047,-2.296,-2.2227,-2.1391,-2.0935,-1.9314,-1.787,-1.7412,-1.6386,-1.573,-1.5825,-1.4854,-1.4166,-1.4076,-1.3204,-1.2242,-1.1848,-1.1658,-1.1945,-3.664,-3.4713,-3.2274,-3.0075,-2.79,-2.5744,-2.486,-2.4744,-2.4075,-2.3073,-2.1894,-2.1709,-2.1524,-2.1524,-2.1617,-2.1607,-2.1617,-2.1714,-2.1758,-2.1748,-2.1309,-2.0604,-1.9823,-1.943,-1.9283,-1.9274,-1.9274,-1.9766,-2.0576,-2.0576,-2.0576,-2.0634,-2.0478,-2.0439,0.0,0.0,0.0,0.0,-1.8232,-1.8008,-1.7988,-1.7519,-1.7051,-1.6592,-1.5498,0.0,-1.399,-1.3769,-1.3555,-1.3408,-1.3721,0.0,0.0,0.0,0.0,0.0,0.0,0.0,0.0,0.0,0.0,0.0,-1.3433,-1.2739,-1.0151,-1.0715,-1.2757,-1.6392,-1.7622,-1.8883,-2.0517,-2.0947,-2.1387,-2.206,-2.2295,-2.2519,-2.2852,-2.2978,-2.3057,-2.3125,-2.3144,-2.3144,-2.3144,-2.3144,-2.3144,-2.3144,-2.3144,-2.3144,-2.3144,-2.3144,-2.3144,-2.3144,-2.3144,-2.3144,-2.3144,-2.3144,-2.3144,-2.3047,-2.296,-2.2041,-2.0395,-1.9579,-1.8311,-1.6749,-1.6015,-1.5825,-1.5825,-1.554,-1.5337,-1.5439,-1.5153,-1.4465,-1.2334,-1.1945,-1.1945,-3.5766,0.0,-3.1169,-2.8433,0.0,-2.4374,-2.3634,-2.3114,-2.3453,-2.3188,-2.25,-2.251,-2.25,-2.25,-2.25,-2.251,-2.25,-2.2285,-2.1842,-2.1287,-2.0874,-2.0007,-1.8895,-1.8525,-1.8679,-1.9156,-1.9056,-1.9529,-2.0566,-2.0576,-2.0576,-2.0576,-2.0576,-2.0576,-2.0557,-2.0137,-1.9492,-1.8572,-1.8418,-1.8223,-1.8008,-1.7607,-1.7178,-1.6665,0.0,0.0,0.0,0.0,0.0,0.0,0.0,0.0,0.0,0.0,0.0,-1.2938,-1.3487,-1.4112,-1.4678,-1.4438,-1.4403,-1.491,-1.5592,-1.5095,-1.2953,-1.3739,-1.5462,-1.8115,-1.9399,-2.0557,-2.1705,-2.1865,-2.2119,-2.2734,-2.2822,-2.291,-2.3096,-2.3144,-2.3144,-2.3144,-2.3144,-2.3144,-2.3144,-2.3144,-2.3144,-2.3144,-2.3144,-2.3144,-2.3144,-2.3144,-2.3144,-2.3144,-2.3144,-2.3144,-2.3144,-2.3144,-2.3144,-2.3144,-2.3144,-2.2589,-2.1489,-2.0314,-1.9031,-1.7755,-1.6655,-1.5825,-1.5825,-1.5825,-1.5825,-1.5825,-1.5825,-1.5439,-1.4082,-1.3788,-1.3788,-3.4381,-3.1687,-2.9479,-2.6481,-2.2988,-2.2553,-2.1957,-2.1382,0.0,0.0,0.0,-2.3144,-2.3144,-2.3144,-2.3144,-2.3144,-2.3028,-2.2505,-2.1729,-2.0797,-2.0057,-1.9187,-1.8056,-1.7725,-1.8137,-1.9203,-1.8922,-1.9463,-2.0684,-2.0605,-2.0576,-2.0576,-2.0576,-2.0576,-2.0547,-2.0205,-1.9639,-1.8896,-1.863,-1.8477,-1.8115,-1.7715,-1.722,-1.659,-1.6148,-1.5501,-1.4573,-1.4716,-1.4496,-1.3987,-1.3579,-1.3185,-1.2963,-1.3544,-1.3992,-1.4303,-1.5505,-1.6377,-1.6816,-1.6307,-1.6315,-1.7101,-1.7168,-1.6852,-1.616,-1.6928,-1.8029,-1.9589,-2.0943,-2.1973,-2.2559,-2.2617,-2.2764,-2.3105,-2.3144,-2.3135,-2.3144,-2.3144,-2.3144,-2.3144,-2.3144,-2.3144,-2.3144,-2.3144,-2.3144,-2.3144,-2.3144,-2.3144,-2.3144,-2.3144,-2.3144,-2.3144,-2.3144,-2.3144,-2.3144,-2.3144,-2.3144,-2.3144,-2.3144,-2.3047,-2.2501,-2.0953,-1.9588,-1.8956,-1.7304,-1.6103,-1.5825,-1.5825,-1.5825,-1.5825,-1.5825,-1.5825,-1.5825,-1.5825,-1.573,-3.2411,-3.0605,-2.6748,-2.4283,-2.2814,-2.0801,-2.0477,-2.1382,-2.258,-2.3144,-2.3144,-2.3144,-2.3144,-2.3144,-2.3144,-2.3144,-2.3038,-2.1966,-2.1398,0.0,-1.9655,-1.8427,-1.7341,-1.6934,-1.7392,-1.8479,-1.8146,-1.9053,-2.0854,-2.0762,-2.0576,-2.0576,-2.0576,-2.0576,-2.0566,-2.0498,-2.0234,-1.9736,-1.9014,-1.8533,-1.8475,-1.8135,-1.7283,-1.6033,-1.5642,-1.478,-1.3468,-1.4259,-1.4303,-1.3385,-1.4362,-1.4397,-1.3285,-1.4342,-1.4953,-1.471,-1.5879,-1.6826,-1.7275,-1.7484,-1.8141,-1.9271,-1.8729,-1.8195,-1.8154,-1.8656,-1.9652,-2.1342,-2.2298,-2.293,-2.3047,-2.3037,-2.2969,-2.3038,-2.3144,-2.3144,-2.3144,-2.3144,-2.3144,-2.3144,-2.3144,-2.3144,-2.3144,-2.3144,-2.3144,-2.3144,-2.3144,-2.3144,-2.3144,-2.3144,-2.3144,-2.3144,-2.3144,-2.3144,-2.3144,-2.3144,-2.3144,-2.3144,-2.3144,-2.2775,-2.2031,-2.0576,-1.9314,-1.8234,-1.685,-1.592,-1.5825,-1.5825,-1.5825,-1.5825,-1.5825,-1.5825,-1.5825,-1.5825,-1.5825,-2.8944,-2.7873,-2.489,-2.2292,-2.0082,-1.9662,-1.9761,-2.0486,-2.2315,-2.3144,-2.3144,-2.3144,-2.3144,-2.3144,-2.3144,-2.2658,-2.1789,-2.1462,-2.0567,-1.9306,-1.8605,-1.7621,-1.6501,-1.6127,-1.6862,-1.8504,-1.8255,-1.9283,-2.137,-2.1143,-2.0928,-2.0918,-2.0684,-2.0576,-2.0576,-2.0576,-2.0227,-1.9474,-1.9341,-1.8927,-1.818,-1.7769,-1.696,-1.5762,-1.5215,-1.4563,-1.3933,-1.4137,-1.4286,-1.435,-1.4056,-1.3811,-1.3729,-1.4495,-1.4896,-1.4824,-1.6637,-1.7852,-1.8047,-1.8672,-1.9287,-1.9873,-1.9736,-1.9743,-1.997,-2.0,-2.0633,-2.2045,-2.2783,-2.3144,-2.3144,-2.3144,-2.3144,-2.3144,-2.3144,-2.3144,-2.3144,-2.3144,-2.3144,-2.3144,-2.3144,-2.3144,-2.3144,-2.3144,-2.3144,-2.3144,-2.3144,-2.3144,-2.3144,-2.3144,-2.3144,-2.3144,-2.3144,-2.3144,-2.3144,-2.3144,-2.3144,-2.3144,-2.3144,-2.2862,-2.2217,-2.0854,-1.9405,-1.868,-1.7124,-1.6015,-1.5825,-1.5825,-1.5825,-1.5825,-1.5825,-1.5825,-1.5825,-1.5825,-1.5825,-2.5348,-2.4721,-2.2312,-1.9579,-1.7102,-1.8756,-1.9497,-1.977,-2.2041,-2.3144,-2.3144,-2.3144,-2.3144,-2.3144,-2.3144,-2.2268,-2.0829,-2.0801,-1.9761,-1.7777,-1.7412,-1.6756,-1.59,-1.5871,-1.7022,-1.8767,-1.8879,-2.0018,-2.1806,-2.1592,-2.1328,-2.1201,-2.0791,-2.0479,-2.0245,-2.0245,-1.9678,-1.8691,-1.9049,-1.8681,-1.7526,-1.7146,-1.6379,-1.5373,-1.4736,-1.4275,-1.4041,-1.3934,-1.412,-1.4513,-1.3528,-1.3271,-1.4001,-1.4517,-1.4913,-1.5385,-1.733,-1.873,-1.8936,-1.9531,-1.9961,-2.0059,-2.0459,-2.0977,-2.158,-2.1214,-2.1309,-2.2353,-2.2891,-2.3144,-2.3144,-2.3144,-2.3144,-2.3144,-2.3144,-2.3144,-2.3144,-2.3144,-2.3144,-2.3144,-2.3299,-2.3474,-2.3212,-2.3299,-2.3387,-2.3135,-2.3144,-2.3144,-2.3144,-2.3144,-2.3144,-2.3144,-2.3144,-2.3144,-2.3144,-2.3144,-2.3144,-2.3144,-2.3144,-2.3047,-2.2677,-2.1221,-1.9852,-1.9306,-1.7762,-1.6386,-1.592,-1.5825,-1.5825,-1.5825,-1.5825,-1.5825,-1.5825,-1.5825,-1.5825,-2.2433,-2.0983,-1.7942,-1.5536,-1.4823,-1.7995,-1.9497,-1.977,-2.2041,-2.3144,-2.3144,-2.3144,-2.3144,-2.3144,-2.3144,-2.218,-2.065,-2.0,-1.8948,-1.7591,-1.648,-1.5927,-1.592,-1.6908,-1.8187,-1.9389,-2.0043,-2.1102,-2.2347,-2.2031,-2.1621,-2.123,-2.0781,-2.0098,-1.9283,-1.9125,-1.855,-1.7504,-1.7471,-1.7263,-1.681,-1.6368,-1.5586,-1.4396,-1.4261,-1.3637,-1.2705,-1.331,-1.3367,-1.2722,-1.3273,-1.3648,-1.3863,-1.4672,-1.5689,-1.6884,-1.8019,-1.8965,-1.9697,-1.9863,-2.0098,-2.0478,-2.0987,-2.18,-2.3078,-2.2392,-2.1943,-2.2565,-2.2987,-2.3299,-2.3135,-2.3222,-2.3299,-2.3387,-2.3299,-2.3144,-2.3222,-2.3144,-2.3144,-2.3144,-2.3963,-2.4307,-2.3377,-2.38,-2.4039,-2.3222,-2.3144,-2.3144,-2.3144,-2.3144,-2.3144,-2.3144,-2.3144,-2.3144,-2.3144,-2.3144,-2.3144,-2.3144,-2.3144,-2.3144,-2.2775,-2.2031,-2.0845,-1.9488,-1.8411,-1.7131,-1.6197,-1.5825,-1.5825,-1.5825,-1.5825,-1.5825,-1.5825,-1.5825,-1.5825,-1.871,-1.856,-1.5812,-1.4303,-1.4345,-1.7181,-1.8864,-1.9679,-2.1302,-2.2394,-2.3047,-2.3144,-2.3144,-2.3144,-2.3144,-2.2022,-1.9991,-1.9654,-1.8395,-1.6669,-1.6008,-1.5825,-1.592,-1.7138,-1.8319,-1.9488,-2.0588,-2.1692,-2.263,-2.2461,-2.1914,-2.1209,-2.0448,-1.9672,-1.8984,-1.831,-1.7496,-1.6437,-1.6355,-1.5957,-1.5331,-1.5412,-1.5027,-1.398,-1.3726,-1.3334,-1.275,-1.3009,-1.3149,-1.3119,-1.2952,-1.3536,-1.4879,-1.5332,-1.6152,-1.7505,-1.8727,-1.9658,-2.0264,-2.0293,-2.0488,-2.0928,-2.1728,-2.2739,-2.3829,-2.4384,-2.4799,-2.4858,-2.5041,-2.5147,-2.5062,-2.5052,-2.5136,-2.5147,-2.5136,-2.5052,-2.5147,-2.5062,-2.4893,-2.4296,-2.4542,-2.4372,-2.3474,-2.3464,-2.3541,-2.3135,-2.3144,-2.3144,-2.3144,-2.3144,-2.3144,-2.3144,-2.3144,-2.3144,-2.3144,-2.3144,-2.3144,-2.3144,-2.3144,-2.3144,-2.296,-2.212,-2.0935,-1.977,-1.8596,-1.7404,-1.6021,-1.5825,-1.5825,-1.5825,-1.5825,-1.5825,-1.5825,-1.5825,-1.5825,-1.5274,-1.5511,-1.3951,-1.3352,-1.3584,-1.6445,-1.8234,-1.9131,-2.0657,-2.1756,-2.258,-2.296,-2.3144,-2.3144,-2.3144,-2.1774,-1.9679,-1.9497,-1.8118,-1.6008,-1.5825,-1.5825,-1.592,-1.7498,-1.868,-1.9588,-2.1114,-2.2296,-2.2902,-2.2351,-2.1663,-2.0955,-1.9842,-1.8924,-1.8177,-1.7319,-1.6366,-1.5379,-1.5304,-1.4894,-1.43,-1.4682,-1.4519,-1.3716,-1.344,-1.3186,-1.2893,-1.295,-1.3224,-1.3955,-1.3347,-1.403,-1.6193,-1.6365,-1.6989,-1.8369,-1.9468,-2.0225,-2.0557,-2.0985,-2.133,-2.1739,-2.2872,-2.4097,-2.5073,-2.6211,-2.7088,-2.7348,-2.7395,-2.7221,-2.6554,-2.6483,-2.6483,-2.6483,-2.6483,-2.6483,-2.64,-2.6307,-2.563,-2.4957,-2.4798,-2.4532,-2.3714,-2.3387,-2.3135,-2.3135,-2.3144,-2.3144,-2.3144,-2.3144,-2.3144,-2.3144,-2.3144,-2.3144,-2.3144,-2.3144,-2.3144,-2.3144,-2.3144,-2.3144,-2.3144,-2.2217,-2.1382,-2.0584,-1.9139,-1.7863,-1.6857,-1.6386,-1.592,-1.5825,-1.592,-1.592,-1.5825,-1.5825,-1.5825,-1.2769,-1.2112,-1.2007,-1.2042,-1.2334,-1.5967,-1.7684,-1.7948,-2.0215,-2.1293,-2.1569,-2.2492,-2.3047,-2.3067,-2.2969,-2.1774,-1.9679,-1.9405,-1.8126,-1.592,-1.5825,-1.5825,-1.6008,-1.8218,-1.9405,-1.9497,-2.1489,-2.2687,-2.2833,-2.1553,-2.0793,-2.0625,-1.9066,-1.7602,-1.6514,-1.6214,-1.551,-1.4439,-1.425,-1.4166,-1.4088,-1.4153,-1.3998,-1.3694,-1.3552,-1.3487,-1.3233,-1.3186,-1.3625,-1.4749,-1.4635,-1.5578,-1.7525,-1.7841,-1.8415,-1.9638,-2.0283,-2.0527,-2.0761,-2.1916,-2.272,-2.3012,-2.4522,-2.6064,-2.6991,-2.7422,-2.8171,-2.9443,-2.9378,-2.8633,-2.7058,-2.6894,-2.6812,-2.673,-2.6648,-2.6648,-2.6554,-2.588,-2.5041,-2.4787,-2.4713,-2.4542,-2.4542,-2.38,-2.3222,-2.3144,-2.3144,-2.3144,-2.3144,-2.3144,-2.3144,-2.3144,-2.3144,-2.3144,-2.3144,-2.3144,-2.3144,-2.3144,-2.3144,-2.3144,-2.3144,-2.2862,-2.2217,-2.1391,-2.0215,-1.9047,-1.7863,-1.6943,-1.6292,-1.6103,-1.6285,-1.6285,-1.6749,-1.6103,-1.6109,-0.9669,-0.9477,-1.0284,-1.0681,-1.1068,-1.3957,-1.567,-1.6591,-1.8195,-1.9852,-2.1025,-2.0944,-2.167,-2.2996,-2.1472,-2.0314,-1.9497,-1.8688,-1.7397,-1.592,-1.5825,-1.5825,-1.6008,-1.7584,-1.8326,-1.8596,-2.0042,-2.0764,-2.0755,-2.0167,-1.98,-1.9314,-1.8201,-1.7072,-1.6107,-1.544,-1.4706,-1.42,-1.4088,-1.4088,-1.4088,-1.4088,-1.4035,-1.3935,-1.3928,-1.3788,-1.3494,-1.3487,-1.3867,-1.4732,-1.4794,-1.5891,-1.806,-1.9174,-1.9851,-2.0312,-2.0478,-2.0576,-2.0771,-2.2045,-2.3034,-2.3419,-2.5487,-2.7164,-2.7854,-2.8579,-2.9209,-2.9702,-2.9779,-2.9287,-2.8961,-2.8633,-2.8621,-2.8633,-2.8554,-2.8211,-2.7695,-2.7105,-2.6438,-2.5126,-2.4221,-2.3724,-2.3714,-2.3387,-2.3135,-2.3144,-2.3144,-2.3144,-2.3144,-2.3144,-2.3144,-2.3144,-2.3144,-2.3144,-2.3144,-2.3144,-2.3144,-2.3144,-2.3144,-2.3144,-2.3144,-2.3144,-2.2501,-2.1756,-2.0845,-1.9761,-1.8495,-1.7684,-1.703,-1.703,-1.721,-1.7569,-1.8211,-1.7669,-1.7397,-0.8038,-0.8226,-0.941,-1.0002,-1.0288,-1.2807,-1.4339,-1.5266,-1.6915,-1.8596,-1.9852,-1.967,-2.0391,-2.141,-1.9837,-1.8632,-1.8317,-1.7832,-1.7037,-1.592,-1.5825,-1.5825,-1.6015,-1.7131,-1.7684,-1.7863,-1.8948,-1.9497,-1.9405,-1.9139,-1.8736,-1.843,-1.7325,-1.6433,-1.5803,-1.5055,-1.4522,-1.4275,-1.4135,-1.4088,-1.4088,-1.4088,-1.4088,-1.4088,-1.4088,-1.3995,-1.3794,-1.3788,-1.4335,-1.5385,-1.5583,-1.6707,-1.8939,-2.0091,-2.0576,-2.0576,-2.0703,-2.1006,-2.1524,-2.2913,-2.4111,-2.4812,-2.6886,-2.8402,-2.8652,-2.9365,-2.9702,-2.9779,-2.9779,-2.9779,-2.9779,-2.9779,-2.9779,-2.9779,-2.9779,-2.9534,-2.8755,-2.8267,-2.7023,-2.5199,-2.4211,-2.3637,-2.3222,-2.3135,-2.3144,-2.3144,-2.3144,-2.3144,-2.3144,-2.3144,-2.3144,-2.3144,-2.3144,-2.3144,-2.3144,-2.3144,-2.3144,-2.3144,-2.3144,-2.3144,-2.3144,-2.3144,-2.2862,-2.212,-2.1203,-2.0206,-1.9306,-1.8495,-1.8319,-1.8319,-1.8495,-1.8764,-1.9131,-1.9314,-1.8948,-0.8035,-0.8137,-0.941,-0.9903,-1.019,-1.2619,-1.3878,-1.425,-1.6546,-1.7677,-1.8226,-1.8864,-1.933,-1.9338,-1.8334,-1.7044,-1.6406,-1.7066,-1.6943,-1.5825,-1.5825,-1.5825,-1.592,-1.6943,-1.7498,-1.7598,-1.8772,-1.9306,-1.9131,-1.8141,-1.7662,-1.7483,-1.6525,-1.5785,-1.5456,-1.5161,-1.4816,-1.4543,-1.4302,-1.4142,-1.4095,-1.4122,-1.4115,-1.4095,-1.4088,-1.4082,-1.4062,-1.4062,-1.5011,-1.6871,-1.7114,-1.8284,-2.0022,-2.0557,-2.0654,-2.083,-2.1066,-2.1809,-2.2913,-2.4645,-2.613,-2.7066,-2.8774,-2.9549,-2.9586,-2.9611,-2.9611,-2.9611,-2.9534,-2.9546,-2.9534,-2.9534,-2.9702,-2.9779,-2.9779,-2.9714,-2.9456,-2.8688,-2.7267,-2.5294,-2.4542,-2.42,-2.3464,-2.3144,-2.3144,-2.3144,-2.3144,-2.3144,-2.3144,-2.3144,-2.3144,-2.3144,-2.3144,-2.3144,-2.3144,-2.3144,-2.3144,-2.3144,-2.3144,-2.3144,-2.3144,-2.3144,-2.3144,-2.2492,-2.1658,-2.0657,-2.0206,-1.9488,-1.9488,-1.9579,-1.9761,-2.0042,-2.0314,-2.0494,-2.0042,-0.8038,-0.8038,-0.8432,-0.8627,-0.8924,-1.1453,-1.2522,-1.2818,-1.5229,-1.6857,-1.7505,-1.7217,-1.7606,-1.8087,-1.7145,-1.617,-1.5853,-1.6177,-1.6197,-1.5825,-1.5825,-1.5825,-1.592,-1.6197,-1.6393,-1.648,-1.6749,-1.6929,-1.6936,-1.6567,-1.6379,-1.6292,-1.6015,-1.5678,-1.5418,-1.5297,-1.5117,-1.485,-1.4736,-1.4603,-1.4409,-1.4382,-1.4295,-1.4108,-1.4088,-1.4088,-1.4088,-1.4088,-1.5144,-1.718,-1.7342,-1.831,-2.0079,-2.0576,-2.1083,-2.2045,-2.2278,-2.2998,-2.4426,-2.598,-2.7113,-2.7675,-2.8978,-2.9664,-2.9702,-2.9118,-2.8676,-2.8518,-2.8028,-2.7545,-2.7637,-2.8199,-2.8858,-2.9714,-2.9779,-2.9456,-2.8767,-2.7174,-2.5703,-2.4946,-2.4125,-2.3474,-2.3222,-2.3135,-2.3144,-2.3144,-2.3144,-2.3144,-2.3144,-2.3144,-2.3144,-2.3144,-2.3144,-2.3144,-2.3144,-2.3144,-2.3144,-2.3144,-2.3144,-2.3144,-2.3144,-2.3144,-2.3144,-2.2862,-2.2022,-2.1471,-2.0935,-2.0755,-2.0755,-2.1033,-2.1311,-2.1587,-2.1863,-2.1676,-2.1221,-0.7952,-0.7952,-0.8041,-0.8333,-0.8924,-1.1068,-1.2237,-1.2915,-1.4854,-1.6298,-1.6669,-1.6197,-1.6305,-1.6986,-1.6218,-1.5825,-1.5825,-1.5825,-1.5825,-1.5825,-1.5825,-1.5825,-1.5825,-1.5825,-1.5825,-1.5825,-1.5825,-1.5825,-1.5825,-1.5825,-1.5825,-1.5825,-1.5825,-1.5745,-1.5551,-1.5444,-1.5291,-1.5137,-1.501,-1.4816,-1.4576,-1.4516,-1.4382,-1.4135,-1.4088,-1.4088,-1.4088,-1.4496,-1.5462,-1.709,-1.798,-1.9274,-2.0479,-2.0944,-2.1655,-2.2667,-2.3477,-2.4382,-2.5954,-2.7101,-2.7945,-2.8431,-2.9257,-2.9521,-2.9197,-2.8438,-2.8016,-2.7441,-2.6964,-2.6483,-2.6648,-2.7046,-2.7867,-2.8462,-2.93,-2.9378,-2.8609,-2.7522,-2.6603,-2.6108,-2.521,-2.4307,-2.3887,-2.3212,-2.3135,-2.3144,-2.3144,-2.3144,-2.3144,-2.3144,-2.3144,-2.3144,-2.3144,-2.3144,-2.3144,-2.3144,-2.3144,-2.3144,-2.3144,-2.3144,-2.3144,-2.3144,-2.3144,-2.3047,-2.2492,-2.2394,-2.1952,-2.1943,-2.2031,-2.2403,-2.2589,-2.2589,-2.2589,-2.2687,-2.2315,-0.7869,-0.7972,-0.8151,-0.9023,-1.0186,-1.1741,-1.3091,-1.425,-1.5425,-1.6103,-1.6109,-1.592,-1.5832,-1.592,-1.5825,-1.5825,-1.5825,-1.5825,-1.5825,-1.5825,-1.5825,-1.5825,-1.5825,-1.5825,-1.5825,-1.5825,-1.5825,-1.592,-1.6109,-1.6103,-1.6008,-1.6285,-1.6379,-1.6015,-1.6021,-1.5737,-1.5629,-1.5391,-1.5177,-1.493,-1.4643,-1.4569,-1.4429,-1.4155,-1.4102,-1.4088,-1.425,-1.5137,-1.6273,-1.7496,-1.9353,-2.0391,-2.0867,-2.1517,-2.2248,-2.3326,-2.4448,-2.5764,-2.7144,-2.7739,-2.8263,-2.8954,-2.9069,-2.9184,-2.8108,-2.7683,-2.7186,-2.6461,-2.6141,-2.6058,-2.6058,-2.6307,-2.6472,-2.6812,-2.8383,-2.9378,-2.9624,-2.9365,-2.8609,-2.7855,-2.7116,-2.5964,-2.4702,-2.38,-2.3222,-2.3144,-2.3144,-2.3144,-2.3144,-2.3144,-2.3144,-2.3144,-2.3144,-2.3144,-2.3144,-2.3144,-2.3144,-2.3144,-2.3144,-2.3144,-2.3144,-2.3144,-2.3144,-2.3047,-2.296,-2.296,-2.296,-2.2765,-2.2765,-2.2862,-2.296,-2.3047,-2.3135,-2.3135,-2.2765,-0.6237,-0.8072,-0.9359,-1.0493,-1.1584,-1.3712,-1.5416,-1.6535,-1.6994,-1.7131,-1.7037,-1.6204,-1.5825,-1.5825,-1.5825,-1.5825,-1.5825,-1.5825,-1.5825,-1.5825,-1.5825,-1.5825,-1.5825,-1.5825,-1.5825,-1.5825,-1.592,-1.6292,-1.7138,-1.7225,-1.7576,-1.8488,-1.8303,-1.7948,-1.7375,-1.703,-1.6549,-1.5806,-1.5645,-1.5438,-1.5157,-1.4937,-1.4703,-1.4422,-1.4215,-1.4115,-1.4341,-1.5959,-1.7415,-1.855,-1.9835,-2.0934,-2.1451,-2.1832,-2.2929,-2.4918,-2.5838,-2.6647,-2.7613,-2.8001,-2.7936,-2.7383,-2.7637,-2.7221,-2.6964,-2.6119,-2.5619,-2.5136,-2.4553,-2.4059,-2.4135,-2.4798,-2.5462,-2.6472,-2.7626,-2.853,-2.8609,-2.8518,-2.8426,-2.8016,-2.6532,-2.5378,-2.4787,-2.3877,-2.3135,-2.3144,-2.3144,-2.3144,-2.3144,-2.3144,-2.3144,-2.3144,-2.3144,-2.3144,-2.3144,-2.3144,-2.3144,-2.3144,-2.3144,-2.3144,-2.3144,-2.3144,-2.3144,-2.3047,-2.3047,-2.3047,-2.3047,-2.296,-2.3047,-2.3144,-2.3144,-2.3135,-2.3047,-2.3047,-2.2492,-0.5522,-0.8141,-1.0199,-1.2266,-1.4181,-1.5846,-1.7427,-1.8621,-1.8003,-1.7669,-1.7375,-1.6372,-1.5825,-1.5825,-1.5825,-1.5825,-1.5825,-1.5825,-1.5825,-1.5825,-1.5825,-1.5825,-1.5825,-1.5825,-1.5825,-1.592,-1.6393,-1.7044,-1.7684,-1.8141,-1.8864,-1.9314,-1.9497,-1.8864,-1.7684,-1.7684,-1.7037,-1.6008,-1.5818,-1.5691,-1.5404,-1.5237,-1.4917,-1.4629,-1.4442,-1.4795,-1.5959,-1.7482,-1.8726,-1.9566,-2.0313,-2.0857,-2.1395,-2.2008,-2.3252,-2.5224,-2.5784,-2.6526,-2.7232,-2.7441,-2.7128,-2.6637,-2.6483,-2.6224,-2.5797,-2.5126,-2.4713,-2.4049,-2.3464,-2.3135,-2.3222,-2.3714,-2.4296,-2.4978,-2.6047,-2.7093,-2.7924,-2.8597,-2.8779,-2.8359,-2.7035,-2.5462,-2.5462,-2.4135,-2.3299,-2.3144,-2.3144,-2.3144,-2.3144,-2.3144,-2.3144,-2.3144,-2.3144,-2.3144,-2.3144,-2.3144,-2.3144,-2.3144,-2.3144,-2.3144,-2.3144,-2.3144,-2.3144,-2.3144,-2.3144,-2.3144,-2.3144,-2.3144,-2.3144,-2.3144,-2.3144,-2.3047,-2.3047,-2.2589,-2.2031,-0.6415,-0.8689,-1.1472,-1.4647,-1.7492,-1.8026,-1.9512,-2.0793,-1.8999,-1.8018,-1.7717,-1.6452,-1.5825,-1.5825,-1.5825,-1.5825,-1.5825,-1.5825,-1.5825,-1.5825,-1.5825,-1.5825,-1.5825,-1.5825,-1.6015,-1.6292,-1.7225,-1.787,-1.8503,-1.9314,-1.977,-2.0133,-2.0042,-1.9039,-1.8226,-1.787,-1.7037,-1.6015,-1.5825,-1.5725,-1.5511,-1.5384,-1.513,-1.4816,-1.5137,-1.6411,-1.7985,-1.9261,-1.9959,-2.0664,-2.0781,-2.0938,-2.1104,-2.2247,-2.3171,-2.4014,-2.5145,-2.5889,-2.6195,-2.6307,-2.6224,-2.5891,-2.5891,-2.5808,-2.4798,-2.4457,-2.4135,-2.3387,-2.3135,-2.3144,-2.3135,-2.3212,-2.3464,-2.38,-2.4382,-2.5953,-2.7441,-2.8858,-2.9546,-2.9378,-2.7545,-2.673,-2.5808,-2.4648,-2.3144,-2.3144,-2.3144,-2.3144,-2.3144,-2.3144,-2.3144,-2.3144,-2.3144,-2.3144,-2.3144,-2.3144,-2.3144,-2.3144,-2.3144,-2.3144,-2.3144,-2.3144,-2.3144,-2.3144,-2.3144,-2.3144,-2.3144,-2.3144,-2.3144,-2.3144,-2.3144,-2.295,-2.2765,-2.2129,-2.1489,-1.2761,-1.2339,-1.6791,-1.9206,-2.0314,-2.1377,-2.2601,-2.369,-2.0541,-1.9123,-1.8572,-1.6835,-1.5927,-1.5825,-1.5825,-1.5825,-1.5825,-1.5825,-1.5825,-1.5825,-1.5825,-1.5825,-1.5825,-1.5825,-1.6298,-1.6943,-1.7498,-1.8688,-2.0034,-2.0576,-2.1391,-2.1952,-2.1033,-2.0305,-1.9039,-1.7956,-1.7037,-1.6015,-1.5825,-1.5798,-1.5691,-1.5511,-1.5351,-1.5345,-1.5995,-1.7549,-1.934,-1.9955,-2.056,-2.1356,-2.1683,-2.1897,-2.2371,-2.2853,-2.3615,-2.453,-2.515,-2.5376,-2.526,-2.5126,-2.4798,-2.4135,-2.4135,-2.3714,-2.3551,-2.3551,-2.3387,-2.3144,-2.3144,-2.3135,-2.3299,-2.3963,-2.3877,-2.38,-2.4808,-2.5797,-2.5953,-2.7267,-2.8028,-2.7464,-2.6883,-2.6141,-2.5284,-2.4135,-2.3222,-2.3135,-2.3144,-2.3144,-2.3144,-2.3144,-2.3144,-2.3144,-2.3144,-2.3144,-2.3144,-2.3144,-2.3144,-2.3144,-2.3144,-2.3144,-2.3144,-2.3144,-2.3144,-2.3144,-2.3144,-2.3144,-2.3144,-2.3144,-2.3144,-2.3144,-2.296,-2.258,-2.2129,-2.1498,-2.0683,-1.408,-1.4725,-1.8334,-2.0935,-2.265,-2.3543,-2.4501,-2.4756,-2.1878,-2.0034,-1.9214,-1.749,-1.6386,-1.5825,-1.5825,-1.5825,-1.5825,-1.5825,-1.5825,-1.5825,-1.5825,-1.5825,-1.5825,-1.5832,-1.6204,-1.6936,-1.8133,-1.9314,-2.0395,-2.1578,-2.2129,-2.2217,-2.1569,-2.0215,-1.8856,-1.7963,-1.7044,-1.6015,-1.5825,-1.5825,-1.5785,-1.5691,-1.5964,-1.6501,-1.7257,-1.8523,-2.0461,-2.1107,-2.1674,-2.2233,-2.2461,-2.2414,-2.2613,-2.2838,-2.3392,-2.3898,-2.4357,-2.4336,-2.4084,-2.3963,-2.3714,-2.3135,-2.3144,-2.3144,-2.3144,-2.3144,-2.3144,-2.3144,-2.3135,-2.3212,-2.38,-2.4286,-2.4372,-2.4296,-2.4967,-2.5221,-2.4713,-2.5953,-2.7197,-2.6472,-2.6047,-2.5546,-2.4628,-2.3724,-2.3309,-2.3144,-2.3144,-2.3144,-2.3144,-2.3144,-2.3144,-2.3144,-2.3144,-2.3144,-2.3144,-2.3144,-2.3144,-2.3144,-2.3144,-2.3144,-2.3144,-2.3144,-2.3144,-2.3144,-2.3144,-2.3144,-2.3144,-2.3144,-2.3047,-2.296,-2.2687,-2.212,-2.148,-2.0854,-1.977,-1.335,-1.596,-1.8581,-2.1636,-2.4366,-2.4904,-2.5452,-2.5525,-2.2494,-2.0206,-1.9306,-1.8041,-1.6574,-1.6015,-1.5825,-1.5825,-1.5825,-1.5825,-1.5825,-1.5825,-1.5825,-1.5825,-1.5825,-1.5832,-1.5832,-1.6096,-1.8211,-1.9579,-2.0674,-2.1667,-2.2031,-2.1391,-2.0755,-1.9588,-1.8048,-1.7404,-1.685,-1.592,-1.5825,-1.5825,-1.592,-1.6082,-1.6901,-1.8255,-1.8759,-1.9791,-2.1383,-2.2149,-2.2658,-2.3105,-2.3144,-2.2764,-2.2402,-2.2363,-2.2607,-2.2712,-2.3179,-2.3317,-2.3367,-2.3222,-2.3135,-2.3144,-2.3144,-2.3144,-2.3144,-2.3144,-2.3144,-2.3222,-2.3387,-2.3963,-2.4872,-2.521,-2.521,-2.5041,-2.4957,-2.4372,-2.3973,-2.5062,-2.5557,-2.5724,-2.5294,-2.4957,-2.4382,-2.3551,-2.3299,-2.3144,-2.3144,-2.3144,-2.3144,-2.3144,-2.3144,-2.3144,-2.3144,-2.3144,-2.3144,-2.3144,-2.3144,-2.3144,-2.3144,-2.3144,-2.3144,-2.3144,-2.3144,-2.3144,-2.3144,-2.3144,-2.3144,-2.3144,-2.3047,-2.2872,-2.2677,-2.2217,-2.1391,-2.0305,-1.9131,-1.3403,-1.6006,-2.0385,-2.3216,-2.4745,-2.5786,-2.5714,-2.4501,-2.1435,-1.9761,-1.9214,-1.7203,-1.6204,-1.5825,-1.5825,-1.5825,-1.5825,-1.5825,-1.5825,-1.5825,-1.5825,-1.5825,-1.5825,-1.5825,-1.5825,-1.6473,-1.8218,-2.0133,-2.132,-2.1943,-2.1391,-2.0845,-1.9405,-1.8048,-1.7498,-1.6763,-1.6197,-1.592,-1.5825,-1.5825,-1.6015,-1.6756,-1.8211,-2.0025,-2.0429,-2.1298,-2.2309,-2.2892,-2.3076,-2.3144,-2.3144,-2.3047,-2.29,-2.2939,-2.2978,-2.3008,-2.3066,-2.3144,-2.3144,-2.3144,-2.3144,-2.3144,-2.3144,-2.3144,-2.3144,-2.3222,-2.3387,-2.3637,-2.4221,-2.4957,-2.6058,-2.6213,-2.6224,-2.6058,-2.5462,-2.4787,-2.4467,-2.4135,-2.4059,-2.4135,-2.4296,-2.4457,-2.3887,-2.3474,-2.3222,-2.3144,-2.3144,-2.3144,-2.3144,-2.3144,-2.3144,-2.3144,-2.3144,-2.3144,-2.3144,-2.3144,-2.3144,-2.3144,-2.3144,-2.3144,-2.3144,-2.3144,-2.3144,-2.3144,-2.3144,-2.3144,-2.3144,-2.3144,-2.3047,-2.3047,-2.2677,-2.2394,-2.1212,-1.9943,-1.8948,-1.3771,-1.6044,-2.0136,-2.3006,-2.4681,-2.5378,-2.4925,-2.3614,-2.1444,-1.9736,-1.8564,-1.7512,-1.6595,-1.6015,-1.5825,-1.5825,-1.5825,-1.5825,-1.5825,-1.5825,-1.5825,-1.5825,-1.592,-1.592,-1.6298,-1.685,-1.8141,-1.9139,-2.0232,-2.0404,-2.0034,-1.9222,-1.8141,-1.7404,-1.6756,-1.6103,-1.5825,-1.5825,-1.5825,-1.592,-1.6008,-1.7131,-1.8948,-2.0657,-2.1382,-2.1933,-2.2862,-2.3144,-2.3135,-2.3144,-2.3144,-2.3144,-2.3144,-2.3144,-2.3144,-2.3144,-2.3144,-2.3144,-2.3144,-2.3144,-2.3144,-2.3144,-2.3144,-2.3144,-2.3299,-2.3627,-2.4135,-2.4808,-2.5231,-2.613,-2.7197,-2.729,-2.736,-2.7116,-2.6284,-2.5462,-2.4713,-2.3714,-2.3299,-2.3144,-2.3474,-2.3714,-2.3474,-2.3135,-2.3135,-2.3144,-2.3144,-2.3144,-2.3144,-2.3144,-2.3144,-2.3144,-2.3144,-2.3144,-2.3144,-2.3144,-2.3144,-2.3144,-2.3144,-2.3144,-2.3144,-2.3144,-2.3144,-2.3144,-2.3144,-2.3144,-2.3144,-2.3144,-2.3144,-2.296,-2.2403,-2.1667,-2.0666,-1.967,-1.8588,-1.4573,-1.6237,-1.965,-2.2417,-2.4276,-2.4436,-2.3806,-2.2562,-2.1087,-1.9372,-1.7902,-1.7613,-1.6885,-1.6116,-1.5825,-1.592,-1.6109,-1.6197,-1.6473,-1.6842,-1.6835,-1.6655,-1.656,-1.656,-1.703,-1.7412,-1.7684,-1.787,-1.8688,-1.8956,-1.8503,-1.8048,-1.7591,-1.685,-1.6015,-1.5825,-1.5825,-1.5825,-1.6103,-1.6292,-1.7023,-1.794,-1.9405,-2.1391,-2.1658,-2.2217,-2.296,-2.3144,-2.3144,-2.3144,-2.3144,-2.3144,-2.3144,-2.3144,-2.3144,-2.3144,-2.3144,-2.3144,-2.3144,-2.3144,-2.3144,-2.3144,-2.3144,-2.3144,-2.3387,-2.4049,-2.521,-2.6461,-2.6871,-2.729,-2.8187,-2.8426,-2.8267,-2.7763,-2.7035,-2.6058,-2.4872,-2.3963,-2.3222,-2.3144,-2.3144,-2.3144,-2.3144,-2.3144,-2.3144,-2.3144,-2.3144,-2.3144,-2.3144,-2.3144,-2.3144,-2.3144,-2.3144,-2.3144,-2.3144,-2.3144,-2.3144,-2.3144,-2.3144,-2.3144,-2.3144,-2.3144,-2.3144,-2.3144,-2.3144,-2.3144,-2.3144,-2.3144,-2.3144,-2.2775,-2.1943,-2.1293,-2.0755,-1.9579,-1.8319,-1.6164,-1.7505,-2.0043,-2.1919,-2.3183,-2.3288,-2.2572,-2.1275,-1.9222,-1.8048,-1.7483,-1.6669,-1.6116,-1.592,-1.592,-1.648,-1.7131,-1.7498,-1.7855,-1.8495,-1.8672,-1.8664,-1.894,-1.9031,-1.8218,-1.8048,-1.7777,-1.8319,-1.8495,-1.8226,-1.787,-1.7412,-1.6662,-1.592,-1.592,-1.5825,-1.5825,-1.6015,-1.6943,-1.8403,-2.0025,-2.0567,-2.1391,-2.2403,-2.2775,-2.2862,-2.3047,-2.3144,-2.3144,-2.3144,-2.3144,-2.3144,-2.3144,-2.3144,-2.3144,-2.3144,-2.3144,-2.3144,-2.3144,-2.3144,-2.3144,-2.3144,-2.3144,-2.3144,-2.3714,-2.4542,-2.5942,-2.7763,-2.7924,-2.8187,-2.8937,-2.9365,-2.9028,-2.8028,-2.6871,-2.588,-2.4872,-2.379,-2.3222,-2.3144,-2.3144,-2.3144,-2.3144,-2.3144,-2.3144,-2.3144,-2.3144,-2.3144,-2.3144,-2.3144,-2.3144,-2.3144,-2.3144,-2.3144,-2.3144,-2.3144,-2.3144,-2.3144,-2.3144,-2.3144,-2.3144,-2.3144,-2.3144,-2.3144,-2.3144,-2.3144,-2.3144,-2.3144,-2.3144,-2.2589,-2.1756,-2.148,-2.1203,-1.9761,-1.7956,-1.7131,-1.7704,-2.0202,-2.1985,-2.295,-2.2356,-2.1355,-2.0116,-1.8495,-1.7318,-1.6669,-1.6103,-1.5825,-1.6015,-1.648,-1.7131,-1.7777,-1.8411,-1.8956,-1.9497,-1.9588,-1.9588,-1.9405,-1.9497,-1.9047,-1.8772,-1.8141,-1.7863,-1.8041,-1.7397,-1.6662,-1.6669,-1.6197,-1.5825,-1.6103,-1.5825,-1.6298,-1.7037,-1.8133,-1.9579,-2.0845,-2.1391,-2.1854,-2.3047,-2.3047,-2.3144,-2.3144,-2.3144,-2.3144,-2.3144,-2.3144,-2.3144,-2.3144,-2.3144,-2.3144,-2.3144,-2.3144,-2.3144,-2.3144,-2.3144,-2.3144,-2.3135,-2.3222,-2.3637,-2.4713,-2.5953,-2.7186,-2.8858,-2.9028,-2.9106,-2.8858,-2.8846,-2.8199,-2.729,-2.6295,-2.563,-2.4713,-2.38,-2.3144,-2.3144,-2.3144,-2.3144,-2.3144,-2.3144,-2.3144,-2.3144,-2.3144,-2.3144,-2.3144,-2.3144,-2.3144,-2.3144,-2.3144,-2.3144,-2.3144,-2.3144,-2.3144,-2.3144,-2.3144,-2.3144,-2.3144,-2.3144,-2.3144,-2.3144,-2.3144,-2.3144,-2.3144,-2.3047,-2.296,-2.2394,-2.1658,-2.0935,-2.0215,-1.9131,-1.7498,-1.7502,-1.8195,-2.0352,-2.2031,-2.295,-2.1845,-2.0845,-1.9852,-1.8319,-1.7131,-1.648,-1.6386,-1.648,-1.6842,-1.777,-1.8411,-1.8764,-1.9579,-2.0124,-2.0314,-2.0404,-2.0494,-2.0683,-2.0584,-2.0395,-1.9943,-1.9314,-1.8772,-1.8041,-1.749,-1.703,-1.6298,-1.6574,-1.6662,-1.6749,-1.7023,-1.7576,-1.8764,-1.9488,-2.0576,-2.1578,-2.1845,-2.2306,-2.2862,-2.3144,-2.3144,-2.3144,-2.3144,-2.3144,-2.3144,-2.3144,-2.3144,-2.3144,-2.3144,-2.3144,-2.3144,-2.3144,-2.3144,-2.3144,-2.3144,-2.3144,-2.3222,-2.3637,-2.4382,-2.6058,-2.7441,-2.8518,-2.9534,-2.904,-2.8688,-2.8267,-2.7924,-2.7116,-2.6295,-2.5378,-2.4872,-2.4372,-2.3551,-2.3144,-2.3144,-2.3144,-2.3144,-2.3144,-2.3144,-2.3144,-2.3144,-2.3144,-2.3144,-2.3144,-2.3144,-2.3144,-2.3144,-2.3144,-2.3144,-2.3144,-2.3144,-2.3144,-2.3144,-2.3144,-2.3144,-2.3144,-2.3144,-2.3144,-2.3144,-2.3144,-2.3144,-2.3144,-2.296,-2.2775,-2.1943,-2.1025,-1.9761,-1.8772,-1.7863,-1.7131,-1.732,-1.948,-2.0747,-2.2031,-2.3057,-2.1836,-2.1203,-2.0836,-1.868,-1.7777,-1.7591,-1.7598,-1.8133,-1.8948,-1.9222,-1.9943,-2.0935,-2.1114,-2.1667,-2.2315,-2.2775,-2.2501,-2.2413,-2.2227,-2.2041,-2.1293,-2.0576,-2.0034,-1.9497,-1.8948,-1.8311,-1.7777,-1.7684,-1.8319,-1.8672,-1.8848,-1.9389,-2.0395,-2.1025,-2.1667,-2.2492,-2.2775,-2.295,-2.296,-2.3144,-2.3144,-2.3144,-2.3144,-2.3144,-2.3144,-2.3144,-2.3144,-2.3144,-2.3144,-2.3144,-2.3144,-2.3144,-2.3144,-2.3144,-2.3144,-2.3144,-2.3387,-2.4135,-2.5136,-2.6389,-2.7209,-2.8371,-2.9456,-2.887,-2.8108,-2.7695,-2.7197,-2.613,-2.5221,-2.4542,-2.4211,-2.38,-2.3464,-2.3144,-2.3144,-2.3144,-2.3144,-2.3144,-2.3144,-2.3144,-2.3144,-2.3144,-2.3144,-2.3144,-2.3144,-2.3144,-2.3144,-2.3144,-2.3144,-2.3144,-2.3144,-2.3144,-2.3144,-2.3144,-2.3144,-2.3144,-2.3144,-2.3144,-2.3144,-2.3144,-2.3144,-2.3144,-2.3047,-2.2589,-2.1489,-2.0395,-1.9222,-1.794,-1.703,-1.648,-1.8164,-1.967,-2.1587,-2.2677,-2.3057,-2.1836,-2.1293,-2.1025,-1.9579,-1.8772,-1.8772,-1.8864,-1.9039,-1.9579,-2.0395,-2.0845,-2.1391,-2.2129,-2.2677,-2.295,-2.3047,-2.3144,-2.3144,-2.3047,-2.2775,-2.2306,-2.1756,-2.1203,-2.0666,-2.0124,-2.0034,-1.9588,-1.9231,-1.9047,-1.9497,-2.0305,-2.0935,-2.1391,-2.2031,-2.2677,-2.2862,-2.3144,-2.3144,-2.3144,-2.3144,-2.3144,-2.3144,-2.3144,-2.3144,-2.3144,-2.3144,-2.3144,-2.3144,-2.3144,-2.3144,-2.3144,-2.3144,-2.3144,-2.3144,-2.3144,-2.3144,-2.3474,-2.4723,-2.6058,-2.6554,-2.7879,-2.8949,-2.9209,-2.8462,-2.7614,-2.6953,-2.6119,-2.5041,-2.4135,-2.3724,-2.3551,-2.3387,-2.3135,-2.3144,-2.3144,-2.3144,-2.3144,-2.3144,-2.3144,-2.3144,-2.3144,-2.3144,-2.3144,-2.3144,-2.3144,-2.3144,-2.3144,-2.3144,-2.3144,-2.3144,-2.3144,-2.3144,-2.3144,-2.3144,-2.3144,-2.3144,-2.3144,-2.3144,-2.3144,-2.3144,-2.3144,-2.3144,-2.3144,-2.2403,-2.1123,-1.9943,-1.8764,-1.7576,-1.6292,-1.6015,-1.831,-1.967,-2.132,-2.2501,-2.296,-2.2217,-2.1836,-2.1667,-2.0576,-2.0034,-2.0034,-2.0034,-2.0314,-2.0764,-2.1391,-2.1845,-2.212,-2.258,-2.296,-2.3144,-2.3144,-2.3144,-2.3144,-2.3047,-2.3047,-2.2862,-2.2403,-2.1845,-2.1845,-2.0944,-2.1123,-2.1311,-2.1033,-2.0764,-2.0863,-2.1311,-2.1845,-2.212,-2.2492,-2.3135,-2.3144,-2.3144,-2.3144,-2.3144,-2.3144,-2.3144,-2.3144,-2.3144,-2.3144,-2.3144,-2.3144,-2.3144,-2.3144,-2.3144,-2.3144,-2.3144,-2.3144,-2.3144,-2.3144,-2.3144,-2.3144,-2.3299,-2.5147,-2.6152,-2.6976,-2.8462,-2.9611,-2.9534,-2.8371,-2.7046,-2.6389,-2.5305,-2.4296,-2.3464,-2.3387,-2.3222,-2.3222,-2.3144,-2.3144,-2.3144,-2.3144,-2.3144,-2.3144,-2.3144,-2.3144,-2.3144,-2.3144,-2.3144,-2.3144,-2.3144,-2.3144,-2.3144,-2.3144,-2.3144,-2.3144,-2.3144,-2.3144,-2.3144,-2.3144,-2.3144,-2.3144,-2.3144,-2.3144,-2.3144,-2.3144,-2.3144,-2.3144,-2.3144,-2.2041,-2.0576,-1.9397,-1.8041,-1.7117,-1.592,-1.592,-1.7382,-1.9405,-1.967,-2.1033,-2.3047,-2.3047,-2.296,-2.2775,-2.1756,-2.1302,-2.1293,-2.1293,-2.1854,-2.2589,-2.2677,-2.2765,-2.2765,-2.296,-2.3144,-2.3144,-2.3144,-2.3144,-2.3222,-2.3299,-2.3637,-2.3222,-2.328,-2.3347,-2.3193,-2.3086,-2.3183,-2.3183,-2.3086,-2.2911,-2.3038,-2.3047,-2.3047,-2.3135,-2.3299,-2.3474,-2.356,-2.3637,-2.3637,-2.3387,-2.3387,-2.3464,-2.3144,-2.3144,-2.3144,-2.3144,-2.3144,-2.3144,-2.3144,-2.3144,-2.3144,-2.3144,-2.3144,-2.3144,-2.3144,-2.3144,-2.3135,-2.356,-2.5484,-2.6472,-2.6976,-2.8371,-2.9611,-2.9365,-2.7879,-2.6719,-2.5714,-2.4638,-2.3627,-2.3125,-2.3135,-2.3144,-2.3144,-2.3144,-2.3144,-2.3144,-2.3144,-2.3144,-2.3144,-2.3144,-2.3144,-2.3144,-2.3144,-2.3144,-2.3144,-2.3144,-2.3144,-2.3144,-2.3144,-2.3144,-2.3144,-2.3144,-2.3144,-2.3144,-2.3144,-2.3144,-2.3144,-2.3144,-2.3144,-2.3144,-2.3144,-2.3144,-2.3144,-2.3144,-2.2031,-2.0845,-1.868,-1.7318,-1.6386,-1.592,-1.6103,-1.8265,-1.9588,-2.0395,-2.1667,-2.296,-2.3144,-2.3144,-2.3047,-2.2677,-2.2492,-2.2492,-2.2501,-2.2589,-2.3047,-2.3144,-2.3144,-2.3144,-2.3144,-2.3144,-2.3135,-2.3222,-2.3627,-2.3963,-2.4296,-2.4542,-2.5147,-2.5305,-2.5136,-2.5389,-2.5147,-2.5231,-2.5389,-2.4978,-2.4882,-2.4372,-2.4296,-2.4467,-2.5221,-2.5389,-2.5389,-2.5316,-2.5221,-2.4882,-2.4296,-2.4211,-2.3877,-2.3309,-2.3309,-2.3222,-2.3135,-2.3144,-2.3144,-2.3144,-2.3144,-2.3144,-2.3144,-2.3144,-2.3144,-2.3144,-2.3135,-2.356,-2.4392,-2.5473,-2.6801,-2.7614,-2.887,-2.9209,-2.8621,-2.7209,-2.613,-2.5221,-2.4059,-2.3222,-2.3135,-2.3144,-2.3144,-2.3144,-2.3144,-2.3144,-2.3144,-2.3144,-2.3144,-2.3144,-2.3144,-2.3144,-2.3144,-2.3144,-2.3144,-2.3144,-2.3144,-2.3144,-2.3144,-2.3144,-2.3144,-2.3144,-2.3144,-2.3144,-2.3144,-2.3144,-2.3144,-2.3144,-2.3144,-2.3144,-2.3144,-2.3144,-2.3144,-2.3047,-2.2862,-2.2394,-2.1123,-1.9039,-1.7591,-1.7037,-1.6756,-1.6655,-1.7994,-1.8948,-2.0116,-2.1391,-2.2403,-2.295,-2.3144,-2.3144,-2.3144,-2.3144,-2.3047,-2.3047,-2.3047,-2.3047,-2.3144,-2.3144,-2.3144,-2.3144,-2.3551,-2.3551,-2.3714,-2.4467,-2.5052,-2.5473,-2.5714,-2.6389,-2.6565,-2.64,-2.6224,-2.64,-2.6318,-2.6318,-2.6565,-2.6295,-2.587,-2.587,-2.5641,-2.6141,-2.6141,-2.6224,-2.6318,-2.6224,-2.6058,-2.5546,-2.521,-2.4872,-2.4049,-2.3637,-2.3474,-2.3309,-2.3144,-2.3144,-2.3135,-2.3135,-2.3135,-2.3144,-2.3144,-2.3144,-2.3144,-2.3144,-2.38,-2.5294,-2.6141,-2.6964,-2.8016,-2.9106,-2.9287,-2.8542,-2.6789,-2.5964,-2.5136,-2.3973,-2.3222,-2.3144,-2.3144,-2.3144,-2.3144,-2.3144,-2.3144,-2.3144,-2.3144,-2.3144,-2.3135,-2.3144,-2.3144,-2.3144,-2.3144,-2.3144,-2.3144,-2.3144,-2.3144,-2.3144,-2.3144,-2.3144,-2.3144,-2.3144,-2.3144,-2.3144,-2.3144,-2.3144,-2.3144,-2.3144,-2.3144,-2.3144,-2.3144,-2.3047,-2.296,-2.2677,-2.212,-2.1114,-1.9397,-1.8403,-1.787,-1.7584,-1.739,-1.6567,-1.7863,-1.9039,-2.0305,-2.148,-2.2677,-2.3144,-2.3144,-2.3144,-2.3144,-2.3144,-2.3144,-2.3144,-2.3144,-2.3144,-2.3144,-2.3222,-2.3222,-2.3877,-2.4542,-2.4713,-2.5546,-2.6213,-2.6543,-2.6883,-2.6801,-2.6976,-2.7313,-2.673,-2.7139,-2.7139,-2.6894,-2.7139,-2.7371,-2.7522,-2.7279,-2.7046,-2.7221,-2.7221,-2.7302,-2.7302,-2.7058,-2.6964,-2.6625,-2.6461,-2.5714,-2.4967,-2.4553,-2.3963,-2.3551,-2.3144,-2.3135,-2.3222,-2.3125,-2.3135,-2.3309,-2.3387,-2.3299,-2.3387,-2.3387,-2.4307,-2.588,-2.6554,-2.7209,-2.8187,-2.9275,-2.9275,-2.8279,-2.6625,-2.6141,-2.5568,-2.4307,-2.3135,-2.3144,-2.3144,-2.3144,-2.3144,-2.3144,-2.3144,-2.3144,-2.3144,-2.3135,-2.3387,-2.3387,-2.3299,-2.3464,-2.3474,-2.3144,-2.3144,-2.3144,-2.3144,-2.3144,-2.3144,-2.3144,-2.3144,-2.3144,-2.3144,-2.3144,-2.3144,-2.3144,-2.3144,-2.3144,-2.3144,-2.3144,-2.3144,-2.3047,-2.296,-2.258,-2.1845,-2.0755,-2.0124,-1.9488,-1.9131,-1.8411,-1.8041,-1.703,-1.8948,-1.9306,-2.0674,-2.2492,-2.295,-2.3144,-2.3144,-2.3144,-2.3144,-2.3144,-2.3144,-2.3144,-2.3144,-2.3144,-2.3144,-2.3474,-2.3877,-2.4372,-2.5041,-2.5797,-2.6707,-2.7279,-2.7695,-2.8119,-2.8542,-2.8712,-2.8554,-2.8791,-2.87,-2.87,-2.8882,-2.8542,-2.8949,-2.8949,-2.8949,-2.87,-2.8621,-2.8542,-2.8542,-2.8621,-2.8542,-2.8199,-2.7867,-2.7614,-2.6778,-2.5535,-2.5126,-2.4457,-2.3551,-2.3222,-2.3387,-2.4296,-2.4382,-2.4467,-2.5305,-2.4967,-2.4296,-2.4296,-2.4296,-2.4957,-2.6378,-2.7128,-2.8199,-2.9028,-2.9443,-2.9443,-2.8199,-2.7209,-2.6801,-2.5975,-2.4723,-2.3714,-2.3474,-2.3474,-2.3637,-2.3637,-2.3637,-2.3637,-2.3724,-2.3724,-2.381,-2.3973,-2.3551,-2.3551,-2.38,-2.38,-2.3299,-2.3144,-2.3144,-2.3144,-2.3144,-2.3144,-2.3144,-2.3144,-2.3144,-2.3144,-2.3144,-2.3144,-2.3144,-2.3144,-2.3144,-2.3144,-2.3144,-2.3144,-2.3144,-2.3047,-2.2589,-2.2208,-2.212,-2.1578,-2.0935,-2.0305,-1.9579,-1.9405,-1.6936,-1.8772,-1.9314,-2.0854,-2.2872,-2.3144,-2.3144,-2.3144,-2.3144,-2.3144,-2.3144,-2.3144,-2.3144,-2.3144,-2.3144,-2.3406,-2.411,-2.4478,-2.5199,-2.6521,-2.6789,-2.7787,-2.8438,-2.8767,-2.9118,-2.9624,-2.9779,-2.9534,-2.9779,-2.9779,-2.9702,-2.9624,-2.9779,-2.9779,-2.9702,-2.9611,-2.9702,-2.9624,-2.9702,-2.9779,-2.9779,-2.9779,-2.9275,-2.8937,-2.8767,-2.7602,-2.6356,-2.6025,-2.5452,-2.4638,-2.4478,-2.4734,-2.5462,-2.5546,-2.5546,-2.6141,-2.5294,-2.5126,-2.5221,-2.4872,-2.5703,-2.6778,-2.7775,-2.8609,-2.9275,-2.9702,-2.9443,-2.8779,-2.8211,-2.7476,-2.6295,-2.521,-2.4553,-2.3887,-2.4049,-2.4296,-2.4296,-2.4296,-2.4392,-2.4563,-2.4563,-2.4638,-2.4467,-2.4049,-2.3627,-2.3551,-2.3464,-2.3299,-2.3144,-2.3144,-2.3144,-2.3144,-2.3144,-2.3144,-2.3144,-2.3144,-2.3144,-2.3144,-2.3144,-2.3144,-2.3144,-2.3144,-2.3144,-2.3144,-2.3144,-2.3144,-2.3144,-2.3144,-2.2862,-2.2765,-2.2589,-2.2129,-2.1489,-2.0845,-2.1033,-1.664,-1.8056,-1.9231,-2.1132,-2.296,-2.3144,-2.3144,-2.3144,-2.3144,-2.3144,-2.3144,-2.3144,-2.3144,-2.3135,-2.3387,-2.412,-2.4882,-2.5421,-2.6356,-2.8084,-2.8187,-2.8779,-2.9287,-2.9779,-2.9624,-2.9702,-2.9779,-2.9779,-2.9779,-2.9779,-2.9779,-2.9779,-2.9779,-2.9779,-2.9779,-2.9779,-2.9779,-2.9779,-2.9779,-2.9779,-2.9779,-2.9779,-2.9779,-2.9702,-2.9521,-2.9106,-2.8255,-2.7844,-2.7602,-2.6883,-2.6389,-2.6318,-2.6554,-2.6883,-2.6964,-2.6637,-2.6119,-2.6119,-2.6284,-2.6025,-2.6521,-2.7348,-2.8255,-2.8858,-2.9534,-2.9779,-2.9534,-2.9275,-2.8633,-2.8119,-2.7116,-2.6213,-2.5473,-2.5136,-2.5221,-2.5221,-2.5221,-2.5305,-2.5473,-2.5568,-2.5568,-2.5641,-2.5619,-2.5284,-2.4467,-2.3887,-2.3212,-2.3135,-2.3135,-2.3135,-2.3144,-2.3144,-2.3144,-2.3144,-2.3144,-2.3144,-2.3144,-2.3144,-2.3144,-2.3144,-2.3144,-2.3144,-2.3144,-2.3144,-2.3144,-2.3144,-2.3144,-2.3144,-2.3144,-2.3047,-2.296,-2.3047,-2.2589,-2.1943,-2.1933,-1.6899,-1.9214,-2.132,-2.2599,-2.3047,-2.3144,-2.3144,-2.3144,-2.3144,-2.3144,-2.3144,-2.3144,-2.3144,-2.3135,-2.3963,-2.4775,-2.5412,-2.6505,-2.7522,-2.8347,-2.8858,-2.9275,-2.9714,-2.9779,-2.9779,-2.9779,-2.9779,-2.9779,-2.9779,-2.9779,-2.9779,-2.9779,-2.9779,-2.9779,-2.9779,-2.9779,-2.9779,-2.9779,-2.9779,-2.9779,-2.9779,-2.9779,-2.9779,-2.9779,-2.9689,-2.9275,-2.8597,-2.8176,-2.7452,-2.6719,-2.6565,-2.6883,-2.7602,-2.845,-2.8882,-2.8791,-2.7706,-2.7441,-2.7441,-2.7267,-2.751,-2.8096,-2.8767,-2.9365,-2.9714,-2.9792,-2.9702,-2.9456,-2.9118,-2.853,-2.8028,-2.7209,-2.6554,-2.6472,-2.6472,-2.6307,-2.6213,-2.6389,-2.6648,-2.6648,-2.6648,-2.6637,-2.6696,-2.6273,-2.5546,-2.4638,-2.3551,-2.3135,-2.3222,-2.3222,-2.3144,-2.3144,-2.3144,-2.3144,-2.3144,-2.3144,-2.3144,-2.3144,-2.3144,-2.3144,-2.3144,-2.3144,-2.3144,-2.3144,-2.3144,-2.3144,-2.3144,-2.3144,-2.3144,-2.3144,-2.3144,-2.3144,-2.3144,-2.2589,-2.2677,-1.6718,-1.9204,-2.1792,-2.2969,-2.3125,-2.3144,-2.3144,-2.3144,-2.3144,-2.3144,-2.3144,-2.3144,-2.3135,-2.3299,-2.4296,-2.5316,-2.6052,-2.7395,-2.8279,-2.8937,-2.9275,-2.9611,-2.9779,-2.9779,-2.9779,-2.9779,-2.9779,-2.9779,-2.9779,-2.9779,-2.9779,-2.9779,-2.9779,-2.9779,-2.9779,-2.9779,-2.9779,-2.9779,-2.9779,-2.9779,-2.9779,-2.9779,-2.9779,-2.9779,-2.9611,-2.9275,-2.9197,-2.8858,-2.853,-2.8119,-2.8131,-2.8211,-2.887,-2.9287,-2.9624,-2.9365,-2.8767,-2.8347,-2.8518,-2.8426,-2.8335,-2.8767,-2.9197,-2.9714,-2.9714,-2.9779,-2.9779,-2.9534,-2.9534,-2.9028,-2.9028,-2.8462,-2.7879,-2.7545,-2.7959,-2.8211,-2.8199,-2.8291,-2.8383,-2.8383,-2.8211,-2.7947,-2.7936,-2.7429,-2.6614,-2.5724,-2.4638,-2.3877,-2.38,-2.3387,-2.3309,-2.3144,-2.3144,-2.3144,-2.3144,-2.3144,-2.3144,-2.3144,-2.3144,-2.3144,-2.3144,-2.3144,-2.3144,-2.3144,-2.3144,-2.3144,-2.3144,-2.3144,-2.3144,-2.3144,-2.3144,-2.3144,-2.3144,-2.3144,-2.3047,-1.6323,-1.8637,-2.1371,-2.2725,-2.3037,-2.3115,-2.3144,-2.3144,-2.3144,-2.3144,-2.3135,-2.3309,-2.3309,-2.3714,-2.4553,-2.563,-2.6789,-2.8039,-2.9028,-2.9443,-2.9702,-2.9779,-2.9779,-2.9779,-2.9779,-2.9779,-2.9779,-2.9779,-2.9779,-2.9779,-2.9779,-2.9779,-2.9779,-2.9779,-2.9779,-2.9779,-2.9779,-2.9779,-2.9779,-2.9779,-2.9779,-2.9779,-2.9779,-2.9779,-2.9779,-2.9779,-2.9792,-2.9792,-2.9792,-2.9624,-2.9456,-2.9456,-2.9456,-2.9702,-2.9702,-2.9521,-2.8755,-2.8676,-2.8846,-2.8518,-2.8779,-2.9197,-2.9611,-2.9779,-2.9779,-2.9779,-2.9779,-2.9779,-2.9702,-2.9702,-2.9624,-2.9534,-2.8949,-2.8609,-2.9197,-2.9624,-2.9611,-2.9611,-2.9624,-2.9624,-2.9378,-2.9106,-2.8767,-2.8347,-2.7602,-2.6707,-2.5964,-2.5294,-2.4702,-2.4049,-2.3627,-2.3299,-2.3144,-2.3144,-2.3144,-2.3144,-2.3144,-2.3144,-2.3144,-2.3144,-2.3144,-2.3144,-2.3144,-2.3144,-2.3144,-2.3144,-2.3144,-2.3144,-2.3144,-2.3144,-2.3144,-2.3144,-2.3144,-2.3144,-2.3144,-1.6111,-1.8621,-2.1362,-2.2568,-2.2685,-2.2978,-2.3144,-2.3144,-2.3144,-2.3144,-2.3387,-2.4135,-2.4457,-2.4542,-2.5641,-2.6719,-2.7602,-2.8767,-2.9287,-2.9779,-2.9779,-2.9779,-2.9779,-2.9779,-2.9779,-2.9779,-2.9779,-2.9779,-2.9779,-2.9779,-2.9779,-2.9779,-2.9779,-2.9779,-2.9779,-2.9779,-2.9779,-2.9779,-2.9779,-2.9779,-2.9779,-2.9779,-2.9779,-2.9779,-2.9779,-2.9779,-2.9779,-2.9779,-2.9779,-2.9779,-2.9779,-2.9779,-2.9779,-2.9779,-2.9702,-2.9443,-2.8676,-2.8505,-2.8518,-2.8518,-2.8858,-2.8858,-2.9275,-2.9779,-2.9779,-2.9779,-2.9779,-2.9779,-2.9779,-2.9779,-2.9702,-2.9702,-2.9365,-2.9365,-2.9702,-2.9702,-2.9702,-2.9702,-2.9702,-2.9702,-2.9702,-2.9534,-2.9443,-2.8937,-2.8267,-2.7452,-2.6883,-2.613,-2.5126,-2.4628,-2.4039,-2.3551,-2.3135,-2.3144,-2.3144,-2.3144,-2.3144,-2.3144,-2.3144,-2.3144,-2.3144,-2.3144,-2.3144,-2.3144,-2.3144,-2.3144,-2.3144,-2.3144,-2.3144,-2.3144,-2.3144,-2.3144,-2.3144,-2.3144,-2.3144]},{"header":{"parameterUnit":"m.s-1","parameterCategory":1,"la1":31.0,"la2":29.5877,"lo1":-88.7671,"lo2":-86.6584,"dy":0.0162,"dx":0.0185,"nx":115,"ny":88,"refTime":"2024-07-05T18:00:00:Z","depth":0,"parameterNumber":3,"parameterNumberName":"V-component_of_WINDS"},"data":[0.0,0.0,0.0,0.0,0.0,0.0,0.0,0.0,0.0,0.0,0.0,0.0,0.0,0.0,0.0,0.0,0.0,0.0,0.0,0.0,0.0,0.0,0.0,0.0,0.0,0.0,0.0,0.0,0.0,0.0,0.0,0.0,0.0,0.0,0.0,0.0,0.0,0.0,0.0,0.0,0.0,0.0,0.0,0.0,0.0,0.0,0.0,0.0,0.0,0.0,0.0,0.0,0.0,0.0,0.0,0.0,0.0,0.0,0.0,0.0,0.0,0.0,0.0,0.0,0.0,0.0,0.0,0.0,0.0,0.0,0.0,0.0,0.0,0.0,0.0,0.0,0.0,0.0,0.0,0.0,0.0,0.0,0.0,0.0,0.0,0.0,0.0,0.0,0.0,0.0,0.0,0.0,0.0,0.0,0.0,0.0,0.0,0.0,0.0,0.0,0.0,0.0,0.0,0.0,0.0,0.0,0.0,0.0,0.0,0.0,0.0,0.0,0.0,0.0,0.0,0.0,0.0,0.0,0.0,0.0,0.0,0.0,0.0,0.0,0.0,0.0,0.0,0.0,0.0,0.0,0.0,0.0,0.0,0.0,0.0,0.0,0.0,0.0,0.0,0.0,0.0,0.0,0.0,0.0,0.0,0.0,0.0,0.0,0.0,0.0,0.0,0.0,0.0,0.0,0.0,0.0,0.0,0.0,0.0,0.0,0.0,0.0,0.0,0.0,0.0,0.0,0.0,0.0,0.0,0.0,0.0,0.0,0.0,0.0,0.0,0.0,0.0,0.0,0.0,0.0,0.0,0.0,0.0,0.0,0.0,0.0,0.0,0.0,0.0,0.0,0.0,0.0,0.0,0.0,0.0,0.0,0.0,0.0,0.0,0.0,0.0,0.0,0.0,0.0,0.0,0.0,0.0,0.0,0.0,0.0,0.0,0.0,0.0,0.0,0.0,0.0,0.0,0.0,0.0,0.0,0.0,0.0,0.0,0.0,0.0,0.0,0.0,0.0,0.0,0.0,0.0,0.0,0.0,0.0,0.0,0.0,0.0,0.0,0.0,0.0,0.0,0.0,0.0,0.0,0.0,0.0,0.0,0.0,0.0,0.0,0.0,0.0,0.0,0.0,0.0,0.0,0.0,0.0,0.0,0.0,0.0,0.0,0.0,0.0,0.0,0.0,0.0,0.0,0.0,0.0,0.0,0.0,0.0,0.0,0.0,0.0,0.0,0.0,0.0,0.0,0.0,0.0,0.0,0.0,0.0,0.0,0.0,0.0,0.0,0.0,0.0,0.0,0.0,0.0,0.0,0.0,0.0,0.0,0.0,0.0,0.0,0.0,0.0,0.0,0.0,0.0,0.0,0.0,0.0,0.0,0.0,0.0,0.0,0.0,0.0,0.0,0.0,0.0,0.0,0.0,0.0,0.0,0.0,0.0,0.0,0.0,0.0,0.0,0.0,0.0,0.0,0.0,0.0,0.0,0.0,0.0,0.0,0.0,0.0,0.0,0.0,0.0,0.0,0.0,0.0,0.0,0.0,0.0,0.0,0.0,0.0,0.0,0.0,0.0,0.0,0.0,0.0,0.0,0.0,0.0,0.0,0.0,0.0,0.0,0.0,0.0,0.0,0.0,0.0,0.0,0.0,0.0,0.0,0.0,0.0,0.0,0.0,0.0,0.0,0.0,0.0,0.0,0.0,0.0,0.0,0.0,0.0,0.0,0.0,0.0,0.0,0.0,0.0,0.0,0.0,0.0,0.0,0.0,0.0,0.0,0.0,0.0,0.0,0.0,0.0,0.0,0.0,0.0,0.0,0.0,0.0,0.0,0.0,0.0,0.0,0.0,0.0,0.0,0.0,0.0,0.0,0.0,0.0,0.0,0.0,0.0,0.0,0.0,0.0,0.0,0.0,0.0,0.0,0.0,0.0,0.0,0.0,0.0,0.0,0.0,0.0,0.0,0.0,0.0,0.0,0.0,0.0,0.0,0.0,0.0,0.0,0.0,0.0,0.0,0.0,0.0,0.0,0.0,0.0,0.0,0.0,0.0,0.0,0.0,0.0,0.0,0.0,0.0,0.0,0.0,0.0,0.0,0.0,0.0,0.0,0.0,0.0,0.0,0.0,0.0,0.0,0.0,0.0,0.0,0.0,0.0,0.0,0.0,0.0,0.0,0.0,0.0,0.0,0.0,0.0,0.0,0.0,0.0,0.0,0.0,0.0,0.0,0.0,0.0,0.0,0.0,0.0,0.0,0.0,0.0,0.0,0.0,0.0,0.0,0.0,0.0,0.0,0.0,0.0,0.0,0.0,0.0,0.0,0.0,0.0,0.0,0.0,0.0,0.0,0.0,0.0,0.0,0.0,0.0,0.0,0.0,0.0,0.0,0.0,0.0,0.0,0.0,0.0,0.0,0.0,0.0,0.0,0.0,0.0,0.0,0.0,0.0,0.0,0.0,0.0,0.0,0.0,0.0,0.0,0.0,0.0,0.0,0.0,0.0,0.0,0.0,0.0,0.0,0.0,0.0,0.0,0.0,0.0,0.0,0.0,0.0,0.0,0.0,0.0,0.0,0.0,0.0,0.0,0.0,0.0,0.0,0.0,0.0,0.0,0.0,0.0,0.0,0.0,0.0,0.0,0.0,0.0,0.0,0.0,0.0,0.0,0.0,0.0,0.0,0.0,0.0,0.0,0.0,0.0,0.0,0.0,0.0,0.0,0.0,0.0,0.0,0.0,0.0,0.0,0.0,0.0,0.0,0.0,0.0,0.0,0.0,0.0,0.0,0.0,0.0,0.0,0.0,0.0,0.0,0.0,0.0,0.0,0.0,0.0,0.0,0.0,0.0,0.0,0.0,0.0,0.0,0.0,0.0,0.0,0.0,0.0,0.0,0.0,0.0,0.0,0.0,0.0,0.0,0.0,0.0,0.0,0.0,0.0,0.0,0.0,0.0,0.0,0.0,0.0,0.0,0.0,0.0,0.0,0.0,0.0,0.0,0.0,0.0,0.0,0.0,0.0,0.0,0.0,0.0,0.0,0.0,0.0,0.0,0.0,0.0,0.0,0.0,0.0,0.0,0.0,0.0,0.0,0.0,0.0,0.0,0.0,0.0,0.0,0.0,0.0,0.0,0.0,0.0,0.0,0.0,0.0,0.0,0.0,0.0,0.0,0.0,0.0,0.0,0.0,0.0,0.0,0.0,0.0,0.0,0.0,0.0,0.0,0.0,0.0,0.0,0.0,0.0,0.0,0.0,0.0,0.0,0.0,0.0,0.0,0.0,0.0,0.0,0.0,0.0,0.0,0.0,0.0,0.0,0.0,0.0,0.0,0.0,0.0,0.0,0.0,0.0,0.0,0.0,0.0,0.0,0.0,0.0,0.0,0.0,0.0,0.0,0.0,0.0,0.0,0.0,0.0,0.0,0.0,0.0,0.0,0.0,0.0,0.0,0.0,0.0,0.0,0.0,0.0,0.0,0.0,0.0,0.0,0.0,0.0,0.0,0.0,0.0,0.0,0.0,0.0,0.0,0.0,0.0,0.0,0.0,0.0,0.0,0.0,0.0,0.0,0.0,0.0,0.0,0.0,0.0,0.0,0.0,0.0,0.0,0.0,0.0,0.0,0.0,0.0,0.0,0.0,0.0,0.0,0.0,0.0,0.0,0.0,0.0,0.0,0.0,0.0,0.0,0.0,0.0,0.0,0.0,0.0,0.0,0.0,0.0,0.0,0.0,0.0,0.0,0.0,0.0,0.0,0.0,0.0,0.0,0.0,0.0,0.0,0.0,0.0,0.0,0.0,0.0,0.0,0.0,0.0,0.0,0.0,0.0,0.0,0.0,0.0,0.0,0.0,0.0,0.0,0.0,0.0,0.0,0.0,0.0,0.0,0.0,0.0,0.0,0.0,0.0,0.0,0.0,0.0,0.0,0.0,0.0,0.0,0.0,0.0,0.0,0.0,0.0,0.0,0.0,0.0,0.0,0.0,0.0,0.0,0.0,0.0,0.0,0.0,0.0,0.0,0.0,0.0,0.0,0.0,0.0,0.0,0.0,0.0,0.0,0.0,0.0,0.0,0.0,0.0,0.0,0.0,0.0,0.0,0.0,0.0,0.0,0.0,0.0,0.0,0.0,0.0,0.0,0.0,0.0,0.0,0.0,0.0,0.0,0.0,0.0,0.0,0.0,0.0,0.0,0.0,0.0,0.0,0.0,0.0,0.0,0.0,0.0,0.0,0.0,0.0,0.0,0.0,0.0,0.0,0.0,0.0,0.0,0.0,0.0,-0.753,0.0,0.0,0.0,0.0,0.0,0.0,0.0,0.0,0.0,0.0,0.0,0.0,0.0,0.0,0.0,0.0,0.0,0.0,0.0,0.0,0.0,0.0,0.0,0.0,0.0,0.0,0.0,0.0,0.0,0.0,0.0,0.0,0.0,0.0,0.0,0.0,0.0,0.0,0.0,0.0,0.0,0.0,0.0,0.0,0.0,0.0,0.0,0.0,0.0,0.0,0.0,0.0,0.0,0.0,0.0,0.0,0.0,0.0,0.0,0.0,0.0,0.0,0.0,0.0,0.0,0.0,0.0,0.0,0.0,0.0,0.0,0.0,0.0,0.0,0.0,0.0,0.0,0.0,0.0,0.0,0.0,0.0,0.0,0.0,0.0,0.0,0.0,0.0,0.0,0.0,0.0,0.0,0.0,0.0,0.0,0.0,0.0,0.0,0.0,0.0,0.0,0.0,0.0,0.0,0.0,0.0,0.0,0.0,0.0,0.0,-0.7422,-0.7048,-0.7146,-0.7256,-0.7393,0.0,0.0,0.0,0.0,0.0,0.0,0.0,0.0,0.0,0.0,0.0,0.0,0.0,0.0,0.0,0.0,0.0,0.0,0.0,0.0,0.0,0.0,0.0,0.0,0.0,0.0,0.0,0.0,0.0,0.0,0.0,0.0,0.0,0.0,0.0,0.0,0.0,0.0,0.0,0.0,0.0,0.0,0.0,0.0,0.0,0.0,0.0,0.0,0.0,0.0,0.0,0.0,0.0,0.0,0.0,0.0,0.0,0.0,0.0,0.0,0.0,0.0,0.0,0.0,0.0,0.0,0.0,0.0,0.0,0.0,0.0,0.0,0.0,0.0,0.0,0.0,0.0,0.0,0.0,0.0,0.0,0.0,0.0,0.0,0.0,0.0,0.0,0.0,0.0,0.0,0.0,0.0,0.0,0.0,0.0,0.0,0.0,0.0,0.0,0.0,0.0,0.0,0.0,0.0,0.0,0.0,0.0,0.0,0.0,0.0,0.0,0.0,-0.7548,-0.7675,-0.7807,0.0,0.0,0.0,0.0,0.0,0.0,0.0,0.0,0.0,0.0,0.0,0.0,0.0,0.0,0.0,0.0,0.0,0.0,0.0,0.0,0.0,0.0,0.0,0.0,0.0,0.0,0.0,0.0,0.0,0.0,0.0,0.0,0.0,0.0,0.0,0.0,0.0,0.0,0.0,0.0,0.0,0.0,0.0,0.0,0.0,0.0,0.0,0.0,0.0,0.0,0.0,0.0,0.0,0.0,0.0,0.0,0.0,0.0,0.0,0.0,0.0,0.0,0.0,0.0,0.0,0.0,0.0,0.0,0.0,0.0,0.0,0.0,0.0,0.0,0.0,0.0,0.0,0.0,0.0,0.0,0.0,0.0,0.0,0.0,0.0,0.0,0.0,0.0,0.0,0.0,0.0,0.0,0.0,0.0,0.0,0.0,0.0,0.0,0.0,0.0,0.0,0.0,0.0,0.0,0.0,0.0,0.0,0.0,0.0,0.0,-0.7551,-0.8763,-0.8894,0.0,-0.9492,0.0,0.0,0.0,0.0,0.0,0.0,0.0,0.0,0.0,0.0,0.0,0.0,0.0,0.0,0.0,0.0,0.0,0.0,0.0,0.0,0.0,0.0,0.0,0.0,0.0,0.0,0.0,0.0,0.0,0.0,0.0,0.0,0.0,0.0,0.0,0.0,0.0,0.0,0.0,0.0,0.0,0.0,0.0,0.0,0.0,0.0,0.0,0.0,0.0,0.0,0.0,0.0,0.0,0.0,0.0,0.0,0.0,0.0,0.0,0.0,0.0,0.0,0.0,0.0,0.0,0.0,0.0,0.0,0.0,0.0,0.0,0.0,0.0,0.0,0.0,0.0,0.0,0.0,0.0,0.0,0.0,0.0,0.0,0.0,0.0,0.0,0.0,0.0,0.0,0.0,0.0,0.0,0.0,0.0,0.0,0.0,0.0,0.0,0.0,0.0,0.0,0.0,0.0,0.0,0.0,0.0,0.0,0.0,0.0,0.0,0.0,-0.8826,-0.8993,-0.9298,0.0,0.0,0.0,0.0,0.0,0.0,0.0,0.0,0.0,0.0,0.0,0.0,0.0,0.0,0.0,0.0,0.0,0.0,0.0,0.0,0.0,0.0,0.0,0.0,0.0,0.0,0.0,0.0,0.0,0.0,0.0,0.0,0.0,0.0,0.0,0.0,0.0,0.0,0.0,0.0,0.0,0.0,0.0,0.0,0.0,0.0,0.0,0.0,0.0,0.0,0.0,0.0,0.0,0.0,0.0,0.0,0.0,0.0,0.0,0.0,0.0,0.0,0.0,0.0,0.0,0.0,0.0,0.0,0.0,0.0,0.0,0.0,0.0,0.0,0.0,0.0,0.0,0.0,0.0,0.0,0.0,0.0,0.0,0.0,0.0,0.0,0.0,0.0,0.0,0.0,0.0,0.0,0.0,0.0,0.0,0.0,0.0,0.0,0.0,0.0,0.0,0.0,0.0,0.0,0.0,0.0,0.0,0.0,0.0,0.0,-0.8625,0.0,-0.9552,-0.9893,-0.9991,-0.9782,0.0,0.0,0.0,0.0,0.0,0.0,0.0,0.0,0.0,0.0,0.0,0.0,0.0,0.0,0.0,0.0,0.0,0.0,0.0,0.0,0.0,0.0,0.0,0.0,0.0,0.0,0.0,0.0,0.0,0.0,0.0,0.0,0.0,0.0,0.0,0.0,0.0,0.0,0.0,0.0,0.0,0.0,0.0,0.0,0.0,0.0,0.0,0.0,0.0,0.0,0.0,0.0,0.0,0.0,0.0,0.0,0.0,0.0,0.0,0.0,0.0,0.0,0.0,0.0,0.0,0.0,0.0,0.0,0.0,0.0,0.0,0.0,0.0,0.0,0.0,0.0,0.0,0.0,0.0,0.0,0.0,0.0,0.0,0.0,0.0,0.0,0.0,0.0,0.0,0.0,0.0,0.0,0.0,0.0,0.0,0.0,0.0,0.0,0.0,0.0,0.0,0.0,0.0,0.0,0.0,0.0,0.0,0.0,0.0,-0.9729,-0.9945,-1.1693,-1.2276,-1.1753,0.0,0.0,0.0,0.0,0.0,0.0,0.0,0.0,0.0,0.0,0.0,0.0,0.0,0.0,0.0,0.0,0.0,0.0,0.0,0.0,0.0,0.0,0.0,0.0,0.0,0.0,0.0,0.0,0.0,0.0,0.0,0.0,0.0,0.0,0.0,0.0,0.0,0.0,0.0,0.0,0.0,0.0,0.0,0.0,0.0,0.0,0.0,0.0,0.0,0.0,0.0,0.0,0.0,0.0,0.0,0.0,0.0,0.0,0.0,0.0,0.0,0.0,0.0,0.0,0.0,0.0,0.0,0.0,0.0,0.0,0.0,0.0,0.0,0.0,0.0,0.0,0.0,0.0,0.0,0.0,0.0,0.0,0.0,0.0,0.0,0.0,0.0,0.0,0.0,0.0,0.0,0.0,0.0,0.0,0.0,0.0,0.0,0.0,0.0,0.0,0.0,0.0,0.0,0.0,0.0,0.0,0.0,0.0,0.0,-0.8453,-0.8821,-1.0548,0.0,-1.1851,-1.1183,0.0,0.0,0.0,0.0,0.0,0.0,0.0,0.0,0.0,0.0,0.0,0.0,0.0,0.0,0.0,0.0,0.0,0.0,0.0,0.0,0.0,0.0,0.0,0.0,0.0,0.0,0.0,0.0,0.0,0.0,0.0,0.0,0.0,0.0,0.0,0.0,0.0,0.0,0.0,0.0,0.0,0.0,0.0,0.0,0.0,0.0,0.0,0.0,0.0,0.0,0.0,0.0,0.0,0.0,0.0,0.0,0.0,0.0,0.0,0.0,0.0,0.0,0.0,0.0,0.0,0.0,0.0,0.0,0.0,0.0,0.0,0.0,0.0,0.0,0.0,0.0,0.0,0.0,0.0,0.0,0.0,0.0,0.0,0.0,0.0,0.0,0.0,0.0,0.0,0.0,0.0,0.0,0.0,0.0,0.0,0.0,0.0,0.0,0.0,0.0,0.0,0.0,0.0,0.0,0.0,0.0,0.0,0.0,0.0,-0.8528,0.0,-1.2032,0.0,-1.2183,-1.1295,0.0,0.0,0.0,0.0,0.0,0.0,0.0,0.0,0.0,0.0,0.0,0.0,0.0,0.0,0.0,0.0,0.0,0.0,0.0,0.0,0.0,0.0,0.0,0.0,0.0,0.0,0.0,0.0,0.0,0.0,0.0,0.0,0.0,0.0,0.0,0.0,0.0,0.0,0.0,0.0,0.0,0.0,0.0,0.0,0.0,0.0,0.0,0.0,0.0,0.0,0.0,0.0,0.0,0.0,0.0,0.0,0.0,0.0,0.0,0.0,0.0,0.0,0.0,0.0,0.0,0.0,0.0,0.0,0.0,0.0,0.0,0.0,0.0,0.0,0.0,0.0,0.0,0.0,0.0,0.0,0.0,0.0,0.0,0.0,0.0,0.0,0.0,0.0,0.0,0.0,0.0,0.0,0.0,0.0,0.0,0.0,0.0,0.0,0.0,0.0,0.0,0.0,0.0,0.0,0.0,0.0,0.0,0.0,-0.9074,-1.1783,-1.3757,-1.4314,-1.3323,-1.3509,-1.2216,0.0,0.0,0.0,0.0,0.0,0.0,0.0,0.0,0.0,0.0,0.0,0.0,0.0,0.0,0.0,0.0,0.0,0.0,0.0,0.0,0.0,0.0,0.0,0.0,0.0,0.0,0.0,0.0,0.0,0.0,0.0,0.0,0.0,0.0,0.0,0.0,0.0,0.0,0.0,0.0,0.0,0.0,0.0,0.0,0.0,0.0,0.0,0.0,0.0,0.0,0.0,0.0,0.0,0.0,0.0,0.0,0.0,0.0,0.0,0.0,0.0,0.0,0.0,0.0,0.0,0.0,0.0,0.0,0.0,0.0,0.0,0.0,0.0,0.0,0.0,0.0,0.0,0.0,0.0,0.0,0.0,0.0,0.0,0.0,0.0,0.0,0.0,0.0,0.0,0.0,0.0,0.0,0.0,0.0,0.0,0.0,0.0,0.0,0.0,0.0,0.0,0.0,0.0,0.0,0.0,0.0,0.0,0.0,0.0,-1.199,-1.3276,-1.4627,-1.587,-1.366,-1.2727,0.0,0.0,0.0,0.0,0.0,0.0,0.0,0.0,0.0,0.0,0.0,0.0,0.0,0.0,0.0,0.0,0.0,0.0,0.0,0.0,0.0,0.0,0.0,0.0,0.0,0.0,0.0,0.0,0.0,0.0,0.0,0.0,0.0,0.0,0.0,0.0,0.0,0.0,0.0,0.0,0.0,0.0,0.0,0.0,0.0,0.0,0.0,0.0,0.0,0.0,0.0,0.0,0.0,0.0,0.0,0.0,0.0,0.0,0.0,0.0,0.0,0.0,0.0,0.0,0.0,0.0,0.0,0.0,0.0,0.0,0.0,0.0,0.0,0.0,0.0,0.0,0.0,0.0,0.0,0.0,0.0,0.0,0.0,0.0,0.0,0.0,0.0,0.0,0.0,0.0,0.0,0.0,0.0,0.0,0.0,0.0,0.0,0.0,0.0,0.0,0.0,0.0,0.0,0.0,0.0,0.0,0.0,0.0,0.0,-1.4558,-1.5345,-1.6329,-1.7505,-1.4754,-1.3643,-1.4322,0.0,0.0,0.0,0.0,0.0,0.0,0.0,0.0,0.0,0.0,0.0,0.0,0.0,0.0,0.0,0.0,0.0,0.0,0.0,0.0,0.0,0.0,0.0,0.0,0.0,0.0,0.0,0.0,0.0,0.0,0.0,0.0,0.0,0.0,0.0,0.0,0.0,0.0,0.0,0.0,0.0,0.0,0.0,0.0,0.0,0.0,0.0,0.0,0.0,0.0,0.0,0.0,0.0,0.0,0.0,0.0,0.0,0.0,0.0,0.0,0.0,0.0,0.0,0.0,0.0,0.0,0.0,0.0,0.0,0.0,0.0,0.0,0.0,0.0,0.0,0.0,0.0,0.0,0.0,0.0,0.0,0.0,0.0,0.0,0.0,0.0,0.0,0.0,0.0,0.0,0.0,0.0,0.0,0.0,0.0,0.0,0.0,0.0,0.0,0.0,0.0,0.0,0.0,0.0,0.0,0.0,0.0,0.0,-1.8751,-1.9471,-1.922,-1.8094,-1.6659,-1.4974,0.0,0.0,0.0,0.0,0.0,0.0,0.0,0.0,0.0,0.0,0.0,0.0,0.0,0.0,0.0,0.0,0.0,0.0,0.0,0.0,0.0,0.0,0.0,0.0,0.0,0.0,0.0,0.0,0.0,0.0,0.0,0.0,0.0,0.0,0.0,0.0,0.0,0.0,0.0,0.0,0.0,0.0,0.0,0.0,0.0,0.0,0.0,0.0,0.0,0.0,0.0,0.0,0.0,0.0,0.0,0.0,0.0,0.0,0.0,0.0,0.0,0.0,0.0,0.0,0.0,0.0,0.0,0.0,0.0,0.0,0.0,0.0,0.0,0.0,0.0,0.0,0.0,0.0,0.0,0.0,0.0,0.0,0.0,0.0,0.0,0.0,0.0,0.0,0.0,0.0,0.0,0.0,0.0,0.0,0.0,0.0,0.0,0.0,0.0,0.0,0.0,0.0,0.0,0.0,0.0,0.0,0.0,0.0,0.0,-1.9714,-2.0707,-2.0804,-1.9968,-1.8186,-1.6697,0.0,0.0,0.0,0.0,0.0,0.0,0.0,0.0,0.0,0.0,0.0,0.0,0.0,0.0,0.0,0.0,0.0,0.0,0.0,0.0,0.0,0.0,0.0,0.0,0.0,0.0,0.0,0.0,0.0,0.0,0.0,0.0,0.0,0.0,0.0,0.0,0.0,0.0,0.0,0.0,0.0,0.0,0.0,0.0,0.0,0.0,0.0,0.0,0.0,0.0,0.0,0.0,0.0,0.0,0.0,0.0,0.0,0.0,0.0,0.0,0.0,0.0,0.0,0.0,0.0,0.0,0.0,0.0,0.0,0.0,0.0,0.0,0.0,0.0,0.0,0.0,0.0,0.0,0.0,0.0,0.0,0.0,0.0,0.0,0.0,0.0,0.0,0.0,0.0,0.0,0.0,0.0,0.0,0.0,0.0,0.0,0.0,0.0,0.0,0.0,0.0,0.0,0.0,0.0,0.0,0.0,0.0,0.0,-1.8779,-2.108,-2.1965,-2.2245,-2.185,-1.9963,-1.844,0.0,0.0,0.0,0.0,0.0,0.0,0.0,0.0,0.0,0.0,0.0,0.0,0.0,0.0,0.0,0.0,0.0,0.0,0.0,0.0,0.0,0.0,0.0,0.0,0.0,0.0,0.0,0.0,0.0,0.0,0.0,0.0,0.0,0.0,0.0,0.0,0.0,0.0,0.0,0.0,0.0,0.0,0.0,0.0,0.0,0.0,0.0,0.0,0.0,0.0,0.0,0.0,0.0,0.0,0.0,0.0,0.0,0.0,0.0,0.0,0.0,0.0,0.0,0.0,0.0,0.0,0.0,0.0,0.0,0.0,0.0,0.0,0.0,0.0,0.0,0.0,0.0,0.0,0.0,0.0,0.0,0.0,0.0,0.0,0.0,0.0,0.0,0.0,0.0,0.0,0.0,0.0,0.0,0.0,0.0,0.0,0.0,0.0,0.0,0.0,0.0,0.0,0.0,0.0,0.0,0.0,0.0,0.0,-2.0225,-2.2373,-2.3172,-2.3593,-2.3522,-2.1705,-1.9914,0.0,0.0,0.0,0.0,0.0,0.0,0.0,0.0,0.0,0.0,0.0,0.0,0.0,0.0,0.0,0.0,0.0,0.0,0.0,0.0,0.0,0.0,0.0,0.0,0.0,0.0,0.0,0.0,0.0,0.0,0.0,0.0,0.0,0.0,0.0,0.0,0.0,0.0,0.0,0.0,0.0,0.0,0.0,0.0,0.0,0.0,0.0,0.0,0.0,0.0,0.0,0.0,0.0,0.0,0.0,0.0,0.0,0.0,0.0,0.0,0.0,0.0,0.0,0.0,0.0,0.0,0.0,0.0,0.0,0.0,0.0,0.0,0.0,0.0,0.0,0.0,0.0,0.0,0.0,0.0,0.0,0.0,0.0,0.0,0.0,0.0,0.0,0.0,0.0,0.0,0.0,0.0,0.0,0.0,0.0,0.0,0.0,0.0,0.0,0.0,0.0,0.0,0.0,0.0,0.0,0.0,0.0,0.0,-2.1278,-2.2556,-2.4067,-2.4805,-2.4828,-2.2164,-2.0036,0.0,0.0,0.0,0.0,0.0,0.0,0.0,0.0,0.0,0.0,0.0,0.0,0.0,0.0,0.0,0.0,0.0,0.0,0.0,0.0,0.0,0.0,0.0,0.0,0.0,0.0,0.0,0.0,0.0,0.0,0.0,0.0,0.0,0.0,0.0,0.0,0.0,0.0,0.0,0.0,0.0,0.0,0.0,0.0,0.0,0.0,0.0,0.0,-1.8827,0.0,0.0,0.0,0.0,0.0,0.0,0.0,0.0,0.0,0.0,0.0,0.0,0.0,0.0,0.0,0.0,0.0,0.0,0.0,0.0,0.0,0.0,0.0,0.0,0.0,0.0,0.0,0.0,0.0,0.0,0.0,0.0,0.0,0.0,0.0,0.0,0.0,0.0,0.0,0.0,0.0,0.0,0.0,0.0,0.0,0.0,0.0,0.0,0.0,0.0,0.0,0.0,0.0,0.0,0.0,0.0,0.0,0.0,0.0,-2.2681,-2.372,-2.4922,-2.5577,-2.5512,-2.3159,-2.1183,0.0,0.0,0.0,0.0,0.0,0.0,0.0,0.0,0.0,0.0,0.0,0.0,0.0,0.0,0.0,0.0,0.0,0.0,0.0,0.0,0.0,0.0,0.0,0.0,0.0,0.0,0.0,0.0,0.0,0.0,0.0,0.0,0.0,0.0,0.0,0.0,0.0,0.0,0.0,0.0,0.0,0.0,0.0,0.0,0.0,0.0,0.0,0.0,0.0,0.0,0.0,0.0,0.0,0.0,0.0,0.0,0.0,0.0,0.0,0.0,0.0,0.0,0.0,0.0,0.0,0.0,0.0,0.0,0.0,0.0,0.0,0.0,0.0,0.0,0.0,0.0,0.0,0.0,0.0,0.0,0.0,0.0,0.0,0.0,0.0,0.0,0.0,0.0,0.0,0.0,0.0,0.0,0.0,0.0,0.0,0.0,0.0,0.0,0.0,0.0,0.0,0.0,0.0,0.0,0.0,0.0,0.0,-2.1478,-2.3832,-2.5062,-2.574,-2.612,-2.6104,-2.4248,-2.2549,-2.1166,0.0,0.0,0.0,0.0,0.0,0.0,0.0,0.0,0.0,0.0,0.0,0.0,0.0,0.0,0.0,0.0,0.0,0.0,0.0,0.0,0.0,0.0,0.0,0.0,0.0,0.0,0.0,0.0,0.0,0.0,0.0,0.0,0.0,0.0,0.0,0.0,0.0,0.0,-1.4108,-1.6609,0.0,0.0,0.0,0.0,0.0,0.0,0.0,0.0,-2.1435,0.0,0.0,0.0,0.0,0.0,0.0,0.0,0.0,0.0,0.0,0.0,0.0,0.0,0.0,0.0,0.0,0.0,0.0,0.0,0.0,0.0,0.0,0.0,0.0,0.0,0.0,0.0,0.0,0.0,0.0,0.0,0.0,0.0,0.0,0.0,0.0,0.0,0.0,0.0,0.0,0.0,0.0,0.0,0.0,0.0,0.0,0.0,0.0,0.0,0.0,0.0,0.0,0.0,0.0,0.0,0.0,-2.0678,-2.1902,-2.3465,-2.5444,-2.6202,-2.659,-2.6539,-2.4746,-2.3112,-2.1645,0.0,0.0,0.0,0.0,0.0,0.0,0.0,0.0,0.0,0.0,0.0,0.0,0.0,0.0,0.0,0.0,0.0,0.0,0.0,0.0,0.0,0.0,0.0,0.0,0.0,0.0,0.0,0.0,0.0,0.0,0.0,0.0,0.0,0.0,0.0,0.0,0.0,0.0,0.0,-1.8391,-1.9534,0.0,0.0,0.0,0.0,0.0,0.0,0.0,0.0,-2.2186,0.0,0.0,0.0,0.0,0.0,0.0,0.0,0.0,0.0,0.0,0.0,0.0,0.0,0.0,0.0,0.0,0.0,0.0,0.0,0.0,0.0,0.0,0.0,0.0,0.0,0.0,0.0,0.0,0.0,0.0,0.0,0.0,0.0,0.0,0.0,0.0,0.0,0.0,0.0,0.0,0.0,0.0,0.0,0.0,0.0,0.0,0.0,0.0,0.0,0.0,0.0,0.0,0.0,0.0,0.0,-2.0811,-2.2596,-2.434,-2.6116,-2.6522,-2.6708,-2.664,-2.4339,-2.2755,0.0,0.0,0.0,0.0,0.0,0.0,0.0,0.0,0.0,0.0,0.0,0.0,0.0,0.0,0.0,0.0,0.0,0.0,0.0,0.0,0.0,0.0,0.0,0.0,0.0,0.0,0.0,0.0,0.0,0.0,0.0,0.0,0.0,0.0,0.0,0.0,0.0,0.0,0.0,0.0,-1.99,-2.0912,-2.1607,0.0,0.0,0.0,0.0,0.0,0.0,-2.3271,-2.3106,0.0,0.0,0.0,0.0,0.0,0.0,0.0,0.0,0.0,0.0,0.0,0.0,0.0,0.0,0.0,0.0,0.0,0.0,0.0,0.0,0.0,0.0,0.0,0.0,0.0,0.0,0.0,0.0,0.0,0.0,0.0,0.0,0.0,0.0,0.0,0.0,0.0,0.0,0.0,0.0,0.0,0.0,0.0,0.0,0.0,0.0,0.0,0.0,0.0,0.0,0.0,0.0,0.0,0.0,0.0,-2.054,-2.2873,-2.4898,-2.6607,-2.6708,-2.6708,-2.6657,-2.4137,-2.2547,0.0,0.0,0.0,0.0,0.0,0.0,0.0,0.0,0.0,0.0,0.0,0.0,0.0,0.0,0.0,0.0,0.0,0.0,0.0,0.0,0.0,0.0,0.0,0.0,0.0,0.0,0.0,0.0,0.0,0.0,0.0,0.0,0.0,0.0,0.0,0.0,0.0,0.0,0.0,0.0,0.0,-2.2329,-2.2534,-2.2369,0.0,0.0,0.0,0.0,-2.4079,-2.469,0.0,0.0,0.0,0.0,0.0,0.0,0.0,0.0,0.0,0.0,0.0,0.0,0.0,0.0,0.0,0.0,0.0,0.0,0.0,0.0,0.0,0.0,0.0,0.0,0.0,0.0,0.0,0.0,0.0,0.0,0.0,0.0,0.0,0.0,0.0,0.0,0.0,0.0,0.0,0.0,0.0,0.0,0.0,0.0,0.0,0.0,0.0,0.0,0.0,0.0,0.0,0.0,0.0,0.0,0.0,0.0,-2.0453,-2.1883,-2.39,-2.6522,-2.6708,-2.6708,-2.6674,-2.5084,-2.3321,0.0,0.0,0.0,0.0,0.0,0.0,0.0,0.0,0.0,0.0,0.0,0.0,0.0,0.0,0.0,0.0,0.0,0.0,0.0,0.0,0.0,0.0,0.0,0.0,0.0,0.0,0.0,0.0,0.0,0.0,0.0,0.0,0.0,0.0,0.0,0.0,0.0,0.0,0.0,0.0,0.0,-2.3539,-2.4367,-2.3625,-2.371,0.0,0.0,0.0,-2.7516,-2.8164,0.0,0.0,0.0,0.0,0.0,0.0,0.0,0.0,0.0,0.0,0.0,0.0,0.0,0.0,0.0,0.0,0.0,0.0,0.0,0.0,0.0,0.0,0.0,0.0,0.0,0.0,0.0,0.0,0.0,0.0,0.0,0.0,0.0,0.0,0.0,0.0,0.0,0.0,0.0,0.0,0.0,0.0,0.0,0.0,0.0,0.0,0.0,0.0,0.0,0.0,0.0,0.0,0.0,0.0,0.0,-1.6864,-2.0505,-2.2549,-2.456,-2.6607,-2.6708,-2.6708,-2.6691,-2.4441,-2.2638,0.0,0.0,0.0,0.0,0.0,0.0,0.0,0.0,0.0,0.0,0.0,0.0,0.0,0.0,0.0,0.0,0.0,0.0,0.0,0.0,0.0,0.0,0.0,0.0,0.0,0.0,0.0,0.0,0.0,0.0,0.0,0.0,0.0,0.0,0.0,0.0,0.0,0.0,0.0,0.0,0.0,0.0,-2.484,-2.467,0.0,0.0,0.0,-2.7519,-2.8553,0.0,0.0,0.0,0.0,0.0,0.0,0.0,0.0,0.0,0.0,0.0,0.0,0.0,0.0,0.0,0.0,0.0,0.0,0.0,0.0,0.0,0.0,0.0,0.0,0.0,0.0,0.0,0.0,0.0,0.0,0.0,0.0,0.0,0.0,0.0,0.0,0.0,0.0,0.0,0.0,0.0,0.0,0.0,0.0,0.0,0.0,0.0,0.0,0.0,0.0,0.0,0.0,0.0,0.0,0.0,0.0,0.0,-2.0842,-2.3266,-2.5234,-2.6623,-2.6708,-2.6708,-2.6657,-2.4205,0.0,0.0,0.0,0.0,0.0,0.0,0.0,0.0,0.0,0.0,0.0,0.0,0.0,0.0,0.0,0.0,0.0,0.0,0.0,0.0,0.0,0.0,0.0,0.0,0.0,0.0,0.0,-0.9196,0.0,0.0,0.0,0.0,0.0,0.0,0.0,0.0,0.0,0.0,0.0,0.0,0.0,0.0,-2.5006,-2.575,-2.6151,-2.673,0.0,0.0,-2.932,-2.9654,-2.9747,-2.9016,0.0,0.0,0.0,0.0,0.0,0.0,0.0,0.0,0.0,0.0,0.0,0.0,0.0,0.0,0.0,0.0,0.0,0.0,0.0,0.0,0.0,0.0,0.0,0.0,0.0,0.0,0.0,0.0,0.0,0.0,0.0,0.0,0.0,0.0,0.0,0.0,0.0,0.0,0.0,0.0,0.0,0.0,0.0,0.0,0.0,0.0,0.0,0.0,0.0,0.0,0.0,0.0,0.0,0.0,0.0,-2.1622,-2.3551,-2.5203,-2.664,-2.6708,-2.6708,-2.6674,-2.5152,-2.3354,0.0,0.0,0.0,0.0,0.0,0.0,0.0,0.0,0.0,0.0,0.0,0.0,0.0,0.0,0.0,0.0,0.0,0.0,0.0,0.0,0.0,0.0,0.0,0.0,0.0,0.0,0.0,0.0,0.0,0.0,0.0,0.0,0.0,0.0,0.0,0.0,0.0,0.0,0.0,0.0,0.0,-2.6516,-2.795,-2.852,-2.9244,0.0,0.0,-3.1297,-3.1577,-3.2622,-3.2137,-2.8299,0.0,0.0,0.0,0.0,0.0,0.0,0.0,0.0,0.0,0.0,0.0,0.0,0.0,0.0,0.0,0.0,0.0,0.0,0.0,0.0,0.0,0.0,0.0,0.0,0.0,0.0,0.0,0.0,0.0,0.0,0.0,0.0,0.0,0.0,0.0,0.0,0.0,0.0,0.0,0.0,0.0,0.0,0.0,0.0,0.0,0.0,0.0,0.0,0.0,0.0,0.0,0.0,0.0,-1.7725,-2.151,-2.3499,-2.5234,-2.6623,-2.6708,-2.6708,-2.6708,-2.5285,-2.3752,0.0,0.0,0.0,0.0,0.0,0.0,0.0,0.0,0.0,0.0,0.0,0.0,0.0,0.0,0.0,0.0,0.0,0.0,0.0,0.0,0.0,0.0,0.0,0.0,0.0,0.0,0.0,0.0,-1.1415,-1.1984,-1.3371,0.0,0.0,0.0,0.0,0.0,0.0,0.0,0.0,0.0,0.0,-2.7666,-2.8969,-2.9728,0.0,0.0,-3.2511,-3.2967,-3.3234,-3.2981,-3.1892,-2.9381,-2.8452,0.0,0.0,0.0,0.0,0.0,0.0,0.0,0.0,0.0,0.0,0.0,0.0,0.0,0.0,0.0,0.0,0.0,0.0,0.0,0.0,0.0,0.0,0.0,0.0,0.0,0.0,0.0,0.0,0.0,0.0,0.0,0.0,0.0,0.0,0.0,0.0,0.0,0.0,0.0,0.0,0.0,0.0,0.0,0.0,0.0,0.0,0.0,0.0,0.0,0.0,0.0,0.0,-1.8168,-2.1764,-2.3811,-2.5423,-2.6657,-2.6708,-2.6708,-2.6674,-2.5456,-2.4211,0.0,0.0,0.0,0.0,0.0,0.0,0.0,0.0,0.0,0.0,0.0,0.0,0.0,0.0,0.0,0.0,0.0,0.0,0.0,0.0,0.0,0.0,0.0,0.0,0.0,0.0,0.0,0.0,-1.2701,-1.3155,-1.3628,0.0,0.0,0.0,0.0,0.0,0.0,0.0,0.0,0.0,0.0,-2.8868,-3.0309,-3.0993,-3.1805,-3.3046,-3.3558,-3.3935,-3.4385,-3.3597,-3.232,-3.0508,0.0,0.0,0.0,0.0,0.0,0.0,0.0,0.0,0.0,0.0,0.0,0.0,0.0,0.0,0.0,0.0,0.0,0.0,0.0,0.0,0.0,0.0,0.0,0.0,0.0,0.0,0.0,0.0,0.0,0.0,0.0,0.0,0.0,0.0,0.0,0.0,0.0,0.0,0.0,0.0,0.0,0.0,0.0,0.0,0.0,0.0,0.0,0.0,0.0,0.0,0.0,0.0,0.0,0.0,-2.2625,-2.4594,-2.5964,-2.6691,-2.6708,-2.6725,-2.6674,-2.5964,-2.4881,-2.3342,0.0,0.0,0.0,0.0,0.0,0.0,0.0,0.0,0.0,0.0,0.0,0.0,0.0,0.0,0.0,0.0,0.0,0.0,0.0,0.0,0.0,0.0,0.0,0.0,0.0,0.0,-1.228,-1.3599,-1.4332,0.0,0.0,0.0,0.0,0.0,0.0,0.0,0.0,0.0,0.0,-2.8451,-3.0144,-3.2211,-3.2505,-3.3073,-3.4704,-3.4321,-3.4137,-3.488,-3.4954,-3.4137,0.0,0.0,0.0,0.0,0.0,0.0,0.0,0.0,0.0,0.0,0.0,0.0,0.0,0.0,0.0,0.0,0.0,0.0,0.0,0.0,0.0,0.0,0.0,0.0,0.0,0.0,0.0,-1.4029,-1.3168,0.0,0.0,0.0,0.0,0.0,0.0,0.0,0.0,0.0,0.0,0.0,-2.324,-2.3919,0.0,0.0,0.0,0.0,0.0,0.0,0.0,0.0,0.0,0.0,0.0,0.0,-2.0297,-2.3777,-2.5503,-2.6691,-2.7418,-2.7452,-2.7199,-2.6708,-2.5981,-2.4441,-2.2017,0.0,0.0,0.0,0.0,0.0,0.0,0.0,0.0,0.0,0.0,0.0,0.0,0.0,0.0,0.0,0.0,0.0,0.0,0.0,0.0,0.0,0.0,0.0,0.0,0.0,-1.363,0.0,0.0,0.0,0.0,0.0,0.0,0.0,0.0,0.0,0.0,0.0,-2.7278,-2.8905,-3.0658,-3.2126,-3.3148,-3.396,-3.4776,0.0,0.0,0.0,0.0,0.0,0.0,0.0,0.0,0.0,0.0,0.0,0.0,0.0,0.0,-3.7337,-3.2836,-3.1362,-3.0848,-3.0852,0.0,0.0,0.0,0.0,0.0,0.0,0.0,0.0,0.0,0.0,0.0,0.0,0.0,0.0,0.0,0.0,-1.7412,0.0,0.0,0.0,0.0,0.0,0.0,0.0,0.0,-2.4441,-2.5778,-2.7199,-2.7926,-2.774,0.0,-2.6302,-2.368,0.0,0.0,0.0,0.0,0.0,0.0,0.0,0.0,-2.1549,-2.4438,-2.6201,-2.7317,-2.7755,-2.7789,-2.7469,-2.6708,-2.5981,-2.4695,-2.2784,-2.1498,-2.0238,0.0,0.0,0.0,0.0,0.0,0.0,0.0,0.0,0.0,0.0,0.0,0.0,0.0,0.0,0.0,0.0,0.0,0.0,0.0,0.0,0.0,0.0,0.0,-1.5123,0.0,0.0,0.0,0.0,0.0,0.0,0.0,0.0,0.0,-2.5508,-2.7373,-2.9446,-3.1497,-3.2541,-3.3509,-3.4533,0.0,0.0,0.0,0.0,0.0,0.0,0.0,-3.6371,-3.63,-3.6435,-3.6537,-3.6562,-3.8831,-4.0608,-4.0344,0.0,0.0,-3.6387,-3.5089,-3.4757,-3.4833,-3.4846,-3.4967,-3.5281,-3.5557,-3.5753,0.0,0.0,0.0,0.0,0.0,0.0,0.0,0.0,-2.1111,-2.2247,0.0,-2.2099,0.0,0.0,0.0,0.0,0.0,0.0,0.0,0.0,-2.9025,-3.0142,-3.0243,-3.0903,-3.0497,-2.9245,-3.048,-2.9262,-2.5676,-2.1397,0.0,0.0,0.0,0.0,0.0,0.0,-2.3122,-2.4675,-2.681,-2.7909,-2.7891,-2.7857,-2.7503,-2.6708,-2.6015,-2.5625,-2.5507,-2.3494,-2.2006,-2.1228,-1.8392,0.0,0.0,0.0,0.0,0.0,0.0,0.0,0.0,0.0,0.0,0.0,0.0,0.0,0.0,0.0,0.0,0.0,0.0,0.0,0.0,-1.5308,0.0,0.0,0.0,0.0,0.0,0.0,0.0,0.0,0.0,0.0,-2.7659,-2.9334,-3.1689,-3.45,0.0,0.0,0.0,0.0,-3.5757,-3.6985,-3.7147,-3.7547,-3.8798,-3.8959,-3.8847,-3.8761,0.0,0.0,-3.9865,-4.1256,-4.2041,-4.0479,-4.1914,-4.2789,-4.1494,-3.9872,-3.8937,-3.9014,-3.8661,-3.8702,-3.947,-3.9993,-4.0521,-1.9156,0.0,0.0,0.0,0.0,-2.2753,-2.4496,-2.6564,-2.6271,-2.6587,-2.7324,-2.6619,0.0,0.0,0.0,0.0,0.0,0.0,-2.7249,-2.9888,-3.0598,-3.1444,-3.2476,-3.2679,-3.2544,-3.2154,-3.2036,-3.145,-3.026,-2.7486,-2.4103,-2.0314,0.0,0.0,0.0,0.0,-2.5389,-2.686,-2.8569,-2.9448,-2.9465,-2.8924,-2.8027,-2.6725,-2.6488,-2.6133,-2.5625,-2.4492,-2.3274,-2.2023,-2.0111,0.0,0.0,0.0,0.0,0.0,0.0,0.0,0.0,0.0,0.0,0.0,0.0,0.0,0.0,0.0,0.0,0.0,0.0,0.0,-1.6994,-1.7593,-1.8328,0.0,0.0,0.0,0.0,0.0,0.0,0.0,0.0,0.0,-3.2298,-3.3208,-3.4103,0.0,0.0,-3.658,-3.6434,-3.7113,-3.775,-3.8129,0.0,0.0,0.0,-3.8795,-3.8754,-3.9607,-4.1071,-4.221,-4.264,-4.3184,-4.3498,-4.3258,-4.3942,-4.4227,-4.3287,-4.2451,-4.1908,-4.1903,-4.1905,-4.1947,-4.2151,-4.2432,-4.2585,-2.2631,-2.3798,-2.3111,-2.3595,-2.4899,-2.6104,-2.7612,-2.9359,-2.9536,-2.992,-3.043,-3.015,-2.976,-2.9246,-2.7941,0.0,0.0,0.0,-2.9922,-3.251,-3.251,-3.3136,-3.4235,-3.4286,-3.4117,-3.3812,-3.3372,-3.3017,-3.2713,-3.1393,-2.8839,-2.5268,0.0,0.0,-2.3473,-2.5439,-2.708,-2.8264,-2.9499,-3.0108,-3.0091,-2.9076,-2.8078,-2.7182,-2.6843,-2.6353,-2.5642,-2.4881,-2.3951,-2.2784,-2.1295,-1.9587,0.0,0.0,0.0,0.0,0.0,0.0,0.0,0.0,0.0,0.0,0.0,-1.2893,-1.0866,0.0,0.0,0.0,-1.5506,-1.7786,-1.9503,-2.079,0.0,0.0,0.0,0.0,0.0,0.0,0.0,-2.9999,-3.2576,-3.4602,-3.543,-3.6168,-3.6766,-3.699,-3.7547,-3.784,-3.7724,0.0,-3.8728,-3.8745,-3.9306,-3.973,-3.9974,-3.9606,-3.9617,-4.0685,-4.1741,-4.2629,-4.3327,-4.3749,-4.4058,-4.4337,-4.4657,-4.4744,-4.4231,-4.3975,-4.3826,-4.3701,-4.3761,-4.3912,-4.4189,-4.4331,-4.4337,-2.5755,-2.7957,-2.5877,-2.614,-2.8045,-2.9331,-3.0239,-3.094,-3.1459,-3.2364,-3.3491,-3.2872,-3.2397,-3.2057,-3.0698,0.0,0.0,-3.1666,-3.2577,-3.4573,-3.459,-3.4945,-3.5622,-3.5622,-3.525,-3.459,-3.4573,-3.4235,-3.3609,-3.3508,-3.2797,-3.141,-2.8619,-2.7114,-2.6945,-2.7621,-2.8349,-2.9059,-2.982,-3.0176,-3.0074,-2.867,-2.7875,-2.7772,-2.7029,-2.6285,-2.5625,-2.4831,-2.4086,-2.3393,-2.204,-2.0619,-1.913,0.0,0.0,0.0,0.0,0.0,0.0,0.0,0.0,0.0,0.0,0.0,0.0,0.0,0.0,0.0,-1.9741,0.0,-2.1841,-2.4402,0.0,0.0,0.0,-2.8127,-2.8381,-3.1253,-3.2788,-3.1777,0.0,0.0,0.0,0.0,-3.9282,-3.9761,-3.8828,-3.8499,-3.9589,-3.9324,-3.9073,-3.9122,-3.9681,-4.0252,-4.0595,-4.073,-4.0924,-4.1462,-4.2203,-4.26,-4.2752,-4.3316,-4.3844,-4.3955,-4.428,-4.4535,-4.4553,-4.4711,-4.497,-4.4536,-4.4547,-4.4847,-4.5545,-4.5692,-4.5637,-2.5993,-2.7895,-2.889,-3.0064,-3.136,-3.1652,-3.2801,-3.4382,-3.4024,-3.43,-3.503,-3.4682,-3.4335,-3.4023,-3.3343,-3.3533,-3.4419,-3.3945,-3.4303,-3.5318,-3.5351,-3.5436,-3.5622,-3.5639,-3.5476,-3.5351,-3.5351,-3.5267,-3.5064,-3.4506,-3.4049,-3.366,-3.2425,-3.0683,-2.8552,-2.9194,-2.9668,-2.9837,-3.0565,-3.0666,-3.0091,-2.9194,-2.8416,-2.7824,-2.6556,-2.5778,-2.5592,-2.434,-2.3562,-2.3376,-2.2513,-2.16,-2.0686,-1.8504,0.0,0.0,0.0,0.0,0.0,0.0,0.0,0.0,0.0,-1.7727,-1.4289,0.0,-2.0491,0.0,-2.2157,-2.4364,-2.5596,-2.6396,0.0,0.0,-3.0429,-3.1292,-3.3525,-3.4474,-3.5111,-3.5447,-3.7352,-3.8591,-3.8531,-3.9292,-3.9867,-4.0031,-3.9814,-3.946,-3.9251,-3.961,-3.9817,-3.9817,-3.9952,-4.0171,-4.0286,-4.0672,-4.0949,-4.107,-4.1639,-4.2162,-4.2616,-4.2865,-4.3159,-4.3545,-4.3912,-4.4117,-4.4146,-4.4474,-4.4669,-4.4645,-4.5051,-4.5505,-4.5658,-4.5731,-4.5759,-2.6776,-2.8571,-3.0724,-3.2665,-3.4333,-3.4017,-3.457,-3.5716,-3.5929,-3.6289,-3.6666,-3.6689,-3.6602,-3.6449,-3.6203,-3.634,-3.6644,-3.5888,-3.574,-3.6113,-3.5774,-3.5639,-3.5639,-3.5639,-3.5639,-3.5639,-3.5639,-3.5639,-3.5605,-3.5199,-3.4996,-3.4979,-3.4252,-3.3068,-3.1495,-3.1207,-3.1089,-3.1072,-3.114,-3.0987,-3.0581,-2.955,-2.8619,-2.7806,-2.6691,-2.5625,-2.4644,-2.4154,-2.3579,-2.2936,-2.2513,-2.1972,-2.1194,-1.9672,-1.8483,0.0,0.0,0.0,0.0,0.0,0.0,0.0,0.0,0.0,0.0,0.0,-2.3467,0.0,-2.5561,0.0,-2.9228,-3.0319,-3.1652,-3.3541,-3.4015,-3.4827,-3.6468,-3.6924,-3.7398,-3.8176,-3.8971,-3.9478,-3.9478,-3.9817,-4.0087,-4.0087,-4.0087,-3.9935,-3.9597,-3.9834,-4.0087,-4.0087,-4.0087,-4.0087,-4.0087,-4.0319,-4.0528,-4.0577,-4.1013,-4.1534,-4.1853,-4.2342,-4.2826,-4.3087,-4.3493,-4.3772,-4.3804,-4.4076,-4.4337,-4.4419,-4.4819,-4.5194,-4.518,-4.5218,-4.5237,-2.7622,-2.9454,-3.1812,-3.4263,-3.6568,-3.6253,-3.613,-3.6184,-3.7369,-3.7877,-3.7953,-3.8345,-3.8518,-3.8501,-3.8518,-3.8535,-3.8456,-3.741,-3.6924,-3.6891,-3.6129,-3.5802,-3.583,-3.5745,-3.5694,-3.5694,-3.5694,-3.5667,-3.5622,-3.5639,-3.5639,-3.5588,-3.4962,-3.4641,-3.4573,-3.3254,-3.2459,-3.2313,-3.1562,-3.119,-3.1173,-2.9837,-2.8755,-2.7977,-2.7046,-2.5609,-2.3663,-2.4052,-2.3765,-2.2547,-2.253,-2.2243,-2.1542,-2.0822,-2.0078,0.0,-1.8636,0.0,0.0,0.0,0.0,0.0,0.0,0.0,0.0,-2.566,-2.6848,-2.8329,-2.952,-3.0959,-3.272,-3.4624,-3.5842,-3.6062,-3.7246,-3.8075,-3.8193,-3.8751,-3.9377,-4.0053,-4.0087,-4.0087,-4.0054,-4.0087,-4.0087,-4.0087,-4.0087,-4.0054,-4.0054,-4.0054,-4.0087,-4.0087,-4.0087,-4.0087,-4.0087,-4.0121,-4.0121,-4.0171,-4.0514,-4.0874,-4.1087,-4.1895,-4.2616,-4.2826,-4.325,-4.3513,-4.3479,-4.3758,-4.3924,-4.3974,-4.4223,-4.4519,-4.4606,-4.4676,-4.458,-2.7611,-2.9517,-3.2415,-3.475,-3.6691,-3.781,-3.8281,-3.8286,-3.7972,-3.7836,-3.7922,-3.7984,-3.8044,-3.8044,-3.8014,-3.7997,-3.8014,-3.7801,-3.7686,-3.7669,-3.6907,-3.6791,-3.7085,-3.6542,-3.6266,-3.6249,-3.6249,-3.6028,-3.5639,-3.5639,-3.5639,-3.556,-3.547,-3.5402,0.0,0.0,0.0,0.0,-3.1579,-3.119,-3.1157,-3.0345,-2.9533,-2.8738,-2.6843,0.0,-2.4354,-2.3849,-2.3477,-2.3224,-2.3765,0.0,0.0,0.0,0.0,0.0,0.0,0.0,0.0,0.0,0.0,0.0,-2.7239,-2.6859,-2.7149,-2.9439,-3.1183,-3.1827,-3.3852,-3.5328,-3.5898,-3.6282,-3.7043,-3.821,-3.8616,-3.9005,-3.958,-3.98,-3.9935,-4.0054,-4.0087,-4.0087,-4.0087,-4.0087,-4.0087,-4.0087,-4.0087,-4.0087,-4.0087,-4.0087,-4.0087,-4.0087,-4.0087,-4.0087,-4.0087,-4.0087,-4.0087,-4.0121,-4.0171,-4.0594,-4.1358,-4.175,-4.2364,-4.3069,-4.341,-4.3479,-4.3479,-4.3582,-4.3612,-4.3597,-4.3697,-4.3868,-4.4474,-4.458,-4.458,-2.8578,0.0,-3.3425,-3.5906,0.0,-3.9007,-3.9528,-3.9834,-3.9226,-3.8975,-3.8971,-3.8988,-3.8971,-3.8971,-3.8971,-3.8988,-3.8971,-3.8599,-3.8605,-3.8802,-3.8048,-3.8027,-3.8526,-3.7772,-3.726,-3.6995,-3.6606,-3.6156,-3.5622,-3.5639,-3.5639,-3.5639,-3.5639,-3.5639,-3.5605,-3.4878,-3.3761,-3.233,-3.1901,-3.1562,-3.119,-3.0497,-2.9753,-2.9011,0.0,0.0,0.0,0.0,0.0,0.0,0.0,0.0,0.0,0.0,0.0,-2.4333,-2.4457,-2.5071,-2.6209,-2.6453,-2.7667,-3.0234,-3.1444,-3.1469,-3.0148,-3.1787,-3.3348,-3.4431,-3.5916,-3.7086,-3.7784,-3.7872,-3.8311,-3.9377,-3.9529,-3.9681,-4.0003,-4.0087,-4.0087,-4.0087,-4.0087,-4.0087,-4.0087,-4.0087,-4.0087,-4.0087,-4.0087,-4.0087,-4.0087,-4.0087,-4.0087,-4.0087,-4.0087,-4.0087,-4.0087,-4.0087,-4.0087,-4.0087,-4.0087,-4.0336,-4.0844,-4.142,-4.2003,-4.26,-4.3105,-4.3479,-4.3479,-4.3479,-4.3479,-4.3479,-4.3479,-4.3597,-4.3992,-4.4065,-4.4065,-2.9755,-3.2527,-3.4822,-3.7297,-3.9817,-4.0065,-4.0439,-4.0856,0.0,0.0,0.0,-4.0087,-4.0087,-4.0087,-4.0087,-4.0087,-4.0087,-3.9576,-3.9607,-3.995,-3.9364,-3.934,-3.985,-3.9121,-3.8457,-3.7892,-3.7137,-3.6414,-3.5825,-3.569,-3.5639,-3.5639,-3.5639,-3.5639,-3.5588,-3.4996,-3.4015,-3.273,-3.2432,-3.2002,-3.1376,-3.0683,-2.9976,-2.9323,-2.8541,-2.7538,-2.629,-2.6143,-2.5885,-2.5364,-2.5673,-2.5877,-2.5858,-2.644,-2.7022,-2.7476,-2.7828,-2.8366,-2.9127,-2.9571,-3.0523,-3.2162,-3.4434,-3.4937,-3.295,-3.3768,-3.5005,-3.6457,-3.7206,-3.8058,-3.9073,-3.9174,-3.9428,-4.002,-4.0087,-4.007,-4.0087,-4.0087,-4.0087,-4.0087,-4.0087,-4.0087,-4.0087,-4.0087,-4.0087,-4.0087,-4.0087,-4.0087,-4.0087,-4.0087,-4.0087,-4.0087,-4.0087,-4.0087,-4.0087,-4.0087,-4.0087,-4.0087,-4.0087,-4.0121,-4.0385,-4.1122,-4.1768,-4.208,-4.2828,-4.3356,-4.3479,-4.3479,-4.3479,-4.3479,-4.3479,-4.3479,-4.3479,-4.3479,-4.3513,-3.0623,-3.3547,-3.6648,-3.8672,-3.9917,-4.1046,-4.1296,-4.0856,-4.0319,-4.0087,-4.0087,-4.0087,-4.0087,-4.0087,-4.0087,-4.0087,-4.0104,-4.0456,-4.0671,0.0,-4.0524,-4.0669,-4.1101,-4.0382,-3.9761,-3.9181,-3.8475,-3.7596,-3.6673,-3.596,-3.5639,-3.5639,-3.5639,-3.5639,-3.5622,-3.5504,-3.5047,-3.4184,-3.2933,-3.2263,-3.2161,-3.141,-3.0861,-3.0473,-2.973,-2.9164,-2.8718,-2.8289,-2.8223,-2.8541,-2.8806,-2.8876,-2.8652,-2.8924,-2.8878,-2.841,-2.8647,-2.9144,-2.9922,-3.059,-3.1902,-3.3888,-3.4857,-3.5139,-3.4874,-3.6417,-3.7551,-3.7721,-3.8817,-3.9715,-3.9918,-3.9901,-3.9985,-4.0104,-4.0087,-4.0087,-4.0087,-4.0087,-4.0087,-4.0087,-4.0087,-4.0087,-4.0087,-4.0087,-4.0087,-4.0087,-4.0087,-4.0087,-4.0087,-4.0087,-4.0087,-4.0087,-4.0087,-4.0087,-4.0087,-4.0087,-4.0087,-4.0087,-4.0087,-4.0254,-4.0577,-4.1268,-4.1895,-4.244,-4.305,-4.3444,-4.3479,-4.3479,-4.3479,-4.3479,-4.3479,-4.3479,-4.3479,-4.3479,-4.3479,-3.2572,-3.5676,-3.8145,-4.001,-4.1402,-4.169,-4.1664,-4.1313,-4.0466,-4.0087,-4.0087,-4.0087,-4.0087,-4.0087,-4.0087,-4.0252,-4.0552,-4.0792,-4.1251,-4.1877,-4.1787,-4.2021,-4.2432,-4.1739,-4.0962,-4.0139,-3.9372,-3.8465,-3.739,-3.662,-3.6248,-3.6231,-3.5825,-3.5639,-3.5639,-3.5639,-3.5569,-3.5497,-3.4185,-3.3454,-3.3311,-3.2556,-3.2236,-3.2318,-3.1194,-3.0533,-3.0396,-2.9806,-2.9453,-2.9421,-2.9973,-3.013,-2.9781,-3.0219,-3.0372,-3.0059,-3.0482,-3.092,-3.1258,-3.2341,-3.3406,-3.4421,-3.5061,-3.5617,-3.6027,-3.6456,-3.7222,-3.8376,-3.9462,-4.0087,-4.0087,-4.0087,-4.0087,-4.0087,-4.0087,-4.0087,-4.0087,-4.0087,-4.0087,-4.0087,-4.0087,-4.0087,-4.0087,-4.0087,-4.0087,-4.0087,-4.0087,-4.0087,-4.0087,-4.0087,-4.0087,-4.0087,-4.0087,-4.0087,-4.0087,-4.0087,-4.0087,-4.0087,-4.0087,-4.0204,-4.0497,-4.115,-4.1853,-4.2203,-4.2921,-4.341,-4.3479,-4.3479,-4.3479,-4.3479,-4.3479,-4.3479,-4.3479,-4.3479,-4.3479,-3.4889,-3.8068,-3.9842,-4.1513,-4.2867,-4.2126,-4.181,-4.1682,-4.0594,-4.0087,-4.0087,-4.0087,-4.0087,-4.0087,-4.0087,-4.038,-4.0878,-4.1046,-4.1664,-4.2655,-4.2826,-4.3087,-4.3389,-4.2734,-4.1867,-4.0943,-4.0029,-3.9077,-3.8153,-3.7398,-3.6941,-3.6721,-3.6011,-3.565,-3.5783,-3.5783,-3.6054,-3.6487,-3.5638,-3.4949,-3.4582,-3.3833,-3.3582,-3.3732,-3.2713,-3.2063,-3.1911,-3.1296,-3.0805,-3.06,-3.1112,-3.1265,-3.0902,-3.131,-3.1621,-3.172,-3.2084,-3.2442,-3.2797,-3.3829,-3.4573,-3.4742,-3.5436,-3.6151,-3.6636,-3.6375,-3.6907,-3.8717,-3.9648,-4.0087,-4.0087,-4.0087,-4.0087,-4.0087,-4.0087,-4.0087,-4.0087,-4.0087,-4.0087,-4.0087,-3.9952,-3.985,-4.0003,-3.9952,-3.9901,-4.007,-4.0087,-4.0087,-4.0087,-4.0087,-4.0087,-4.0087,-4.0087,-4.0087,-4.0087,-4.0087,-4.0087,-4.0087,-4.0087,-4.0121,-4.0286,-4.0984,-4.1621,-4.1877,-4.2619,-4.325,-4.3444,-4.3479,-4.3479,-4.3479,-4.3479,-4.3479,-4.3479,-4.3479,-4.3479,-3.7151,-4.0095,-4.2013,-4.3272,-4.3666,-4.2393,-4.181,-4.1682,-4.0594,-4.0087,-4.0087,-4.0087,-4.0087,-4.0087,-4.0087,-4.0429,-4.0969,-4.1464,-4.2062,-4.2732,-4.3214,-4.3463,-4.3444,-4.2923,-4.2332,-4.158,-4.0421,-3.948,-3.8901,-3.8159,-3.7449,-3.6772,-3.5994,-3.5888,-3.6266,-3.635,-3.6603,-3.7114,-3.7044,-3.6602,-3.5844,-3.5102,-3.4601,-3.433,-3.4217,-3.3966,-3.3533,-3.3151,-3.3085,-3.3359,-3.306,-3.2949,-3.2859,-3.257,-3.2527,-3.2782,-3.2508,-3.2848,-3.4117,-3.4404,-3.481,-3.547,-3.6168,-3.6642,-3.6754,-3.7267,-3.8007,-3.8888,-3.9614,-3.9952,-4.007,-4.002,-3.9952,-3.9901,-3.9952,-4.0087,-4.002,-4.0087,-4.0087,-4.0087,-3.9489,-3.9279,-3.9885,-3.961,-3.942,-4.002,-4.0087,-4.0087,-4.0087,-4.0087,-4.0087,-4.0087,-4.0087,-4.0087,-4.0087,-4.0087,-4.0087,-4.0087,-4.0087,-4.0087,-4.0254,-4.0577,-4.1133,-4.1793,-4.2342,-4.2939,-4.3321,-4.3479,-4.3479,-4.3479,-4.3479,-4.3479,-4.3479,-4.3479,-4.3479,-3.9007,-4.1444,-4.286,-4.3695,-4.3825,-4.2793,-4.2121,-4.1725,-4.092,-4.04,-4.0121,-4.0087,-4.0087,-4.0087,-4.0087,-4.0559,-4.1446,-4.1672,-4.2306,-4.3142,-4.3391,-4.3479,-4.3444,-4.2957,-4.2382,-4.1793,-4.0847,-4.0161,-3.9595,-3.8903,-3.7956,-3.692,-3.67,-3.6612,-3.6468,-3.6724,-3.7097,-3.7578,-3.7614,-3.7593,-3.7473,-3.653,-3.6056,-3.6182,-3.5757,-3.5195,-3.4559,-3.4337,-3.4032,-3.352,-3.3522,-3.3502,-3.3419,-3.3257,-3.3301,-3.3627,-3.3612,-3.4049,-3.5098,-3.5148,-3.5487,-3.6248,-3.6162,-3.639,-3.7225,-3.6841,-3.694,-3.8095,-3.8559,-3.8723,-3.8778,-3.8761,-3.8707,-3.8723,-3.8707,-3.8761,-3.8723,-3.8778,-3.8887,-3.9262,-3.9086,-3.9193,-3.985,-3.9833,-3.9765,-4.007,-4.0087,-4.0087,-4.0087,-4.0087,-4.0087,-4.0087,-4.0087,-4.0087,-4.0087,-4.0087,-4.0087,-4.0087,-4.0087,-4.0087,-4.0171,-4.0528,-4.1087,-4.1682,-4.2262,-4.2808,-4.3428,-4.3479,-4.3479,-4.3479,-4.3479,-4.3479,-4.3479,-4.3479,-4.3479,-4.0851,-4.2616,-4.3583,-4.4015,-4.4087,-4.3123,-4.244,-4.1979,-4.1206,-4.0703,-4.0319,-4.0171,-4.0087,-4.0087,-4.0087,-4.0737,-4.1725,-4.181,-4.2426,-4.3391,-4.3479,-4.3479,-4.3444,-4.277,-4.2203,-4.1768,-4.0995,-4.0431,-4.0069,-3.9506,-3.8683,-3.7803,-3.7915,-3.7749,-3.7268,-3.7567,-3.7864,-3.8065,-3.8117,-3.83,-3.8504,-3.7754,-3.7335,-3.7429,-3.6927,-3.6229,-3.5422,-3.5339,-3.4903,-3.39,-3.4102,-3.4081,-3.3759,-3.374,-3.389,-3.4186,-3.4585,-3.503,-3.5605,-3.5626,-3.5853,-3.636,-3.6075,-3.6234,-3.6825,-3.641,-3.6275,-3.6958,-3.7191,-3.7294,-3.7748,-3.7822,-3.7822,-3.7822,-3.7822,-3.7822,-3.7879,-3.7921,-3.8358,-3.8799,-3.8924,-3.9069,-3.9662,-3.9901,-4.007,-4.007,-4.0087,-4.0087,-4.0087,-4.0087,-4.0087,-4.0087,-4.0087,-4.0087,-4.0087,-4.0087,-4.0087,-4.0087,-4.0087,-4.0087,-4.0087,-4.0497,-4.0856,-4.1286,-4.1997,-4.2598,-4.3069,-4.325,-4.3444,-4.3479,-4.3444,-4.3444,-4.3479,-4.3479,-4.3479,-4.2763,-4.4049,-4.4421,-4.4553,-4.4474,-4.3281,-4.2693,-4.2541,-4.1446,-4.0903,-4.078,-4.0368,-4.0121,-4.0155,-4.0188,-4.0737,-4.1725,-4.1853,-4.2444,-4.3444,-4.3479,-4.3479,-4.3391,-4.2404,-4.1853,-4.181,-4.0844,-4.0303,-4.0153,-3.9903,-3.9732,-3.9621,-3.9529,-3.9305,-3.8906,-3.8905,-3.8876,-3.8619,-3.8627,-3.8658,-3.8707,-3.8621,-3.82,-3.7624,-3.7489,-3.7055,-3.6358,-3.6229,-3.5962,-3.5389,-3.5331,-3.4989,-3.421,-3.409,-3.4272,-3.4533,-3.5131,-3.5554,-3.5599,-3.559,-3.5663,-3.5777,-3.6185,-3.6372,-3.5982,-3.6391,-3.6384,-3.5718,-3.5797,-3.6321,-3.7413,-3.7531,-3.7589,-3.7648,-3.7706,-3.7706,-3.7748,-3.8189,-3.8745,-3.8908,-3.8978,-3.9086,-3.9086,-3.961,-4.002,-4.0087,-4.0087,-4.0087,-4.0087,-4.0087,-4.0087,-4.0087,-4.0087,-4.0087,-4.0087,-4.0087,-4.0087,-4.0087,-4.0087,-4.0087,-4.0087,-4.0204,-4.0497,-4.0874,-4.1446,-4.2038,-4.2598,-4.3014,-4.3286,-4.3356,-4.3267,-4.3267,-4.3069,-4.3356,-4.3375,-4.4069,-4.5069,-4.4992,-4.4919,-4.4806,-4.393,-4.3348,-4.2941,-4.235,-4.1621,-4.1041,-4.1105,-4.097,-4.0645,-4.1029,-4.142,-4.181,-4.2221,-4.279,-4.3444,-4.3479,-4.3479,-4.3391,-4.2714,-4.24,-4.2262,-4.1552,-4.1196,-4.1178,-4.1121,-4.0822,-4.0493,-4.0642,-4.0218,-3.9372,-3.9449,-3.9333,-3.875,-3.8707,-3.8707,-3.8707,-3.8707,-3.856,-3.8285,-3.8267,-3.7881,-3.7074,-3.7055,-3.6602,-3.5566,-3.5497,-3.5277,-3.4879,-3.4949,-3.5086,-3.5182,-3.547,-3.5639,-3.5616,-3.5625,-3.581,-3.6235,-3.6063,-3.6048,-3.6136,-3.609,-3.591,-3.5554,-3.5489,-3.5846,-3.6085,-3.6321,-3.6305,-3.6321,-3.6383,-3.66,-3.6919,-3.7306,-3.7758,-3.869,-3.9332,-3.9679,-3.9662,-3.9901,-4.007,-4.0087,-4.0087,-4.0087,-4.0087,-4.0087,-4.0087,-4.0087,-4.0087,-4.0087,-4.0087,-4.0087,-4.0087,-4.0087,-4.0087,-4.0087,-4.0087,-4.0087,-4.0385,-4.0703,-4.1133,-4.1664,-4.2284,-4.2693,-4.2958,-4.2958,-4.2865,-4.2678,-4.2386,-4.2657,-4.279,-4.501,-4.5493,-4.5243,-4.5115,-4.5011,-4.4299,-4.3806,-4.341,-4.2941,-4.2262,-4.1621,-4.1707,-4.1577,-4.1348,-4.1823,-4.2096,-4.2127,-4.2526,-4.2976,-4.3444,-4.3479,-4.3479,-4.341,-4.2939,-4.2693,-4.2598,-4.2062,-4.181,-4.1853,-4.1997,-4.1836,-4.1395,-4.1827,-4.1451,-4.0377,-4.0266,-3.99,-3.9221,-3.8836,-3.8707,-3.8707,-3.8707,-3.8707,-3.8707,-3.8707,-3.845,-3.79,-3.7881,-3.7343,-3.6245,-3.6054,-3.5827,-3.5432,-3.5511,-3.5639,-3.5639,-3.5859,-3.584,-3.5646,-3.5794,-3.6084,-3.6271,-3.5841,-3.5706,-3.6182,-3.5782,-3.5554,-3.5489,-3.5489,-3.5489,-3.5489,-3.5489,-3.5489,-3.5489,-3.5489,-3.5668,-3.615,-3.6508,-3.7365,-3.8619,-3.9315,-3.9731,-4.002,-4.007,-4.0087,-4.0087,-4.0087,-4.0087,-4.0087,-4.0087,-4.0087,-4.0087,-4.0087,-4.0087,-4.0087,-4.0087,-4.0087,-4.0087,-4.0087,-4.0087,-4.0087,-4.0087,-4.0204,-4.0528,-4.0949,-4.1429,-4.1877,-4.2284,-4.2382,-4.2382,-4.2284,-4.2144,-4.1979,-4.1895,-4.2062,-4.5566,-4.5568,-4.5243,-4.5137,-4.5033,-4.4373,-4.4016,-4.3856,-4.3105,-4.2675,-4.2422,-4.2121,-4.1931,-4.1948,-4.2418,-4.2722,-4.274,-4.2776,-4.3014,-4.3479,-4.3479,-4.3479,-4.3444,-4.3014,-4.277,-4.275,-4.2162,-4.1877,-4.1979,-4.248,-4.2639,-4.2734,-4.305,-4.2787,-4.2179,-4.1372,-4.0708,-3.9955,-3.9294,-3.8854,-3.8726,-3.8799,-3.8781,-3.8726,-3.8707,-3.8689,-3.8634,-3.8634,-3.8107,-3.7235,-3.7124,-3.6671,-3.5752,-3.5605,-3.5594,-3.5717,-3.6303,-3.6296,-3.5794,-3.6196,-3.6131,-3.5755,-3.5533,-3.5529,-3.5574,-3.5604,-3.5604,-3.5604,-3.5668,-3.5683,-3.5668,-3.5668,-3.5554,-3.5489,-3.5489,-3.5569,-3.5733,-3.6228,-3.7188,-3.858,-3.9086,-3.9299,-3.9833,-4.0087,-4.0087,-4.0087,-4.0087,-4.0087,-4.0087,-4.0087,-4.0087,-4.0087,-4.0087,-4.0087,-4.0087,-4.0087,-4.0087,-4.0087,-4.0087,-4.0087,-4.0087,-4.0087,-4.0087,-4.0368,-4.0733,-4.1206,-4.1429,-4.1793,-4.1793,-4.175,-4.1664,-4.1552,-4.142,-4.1331,-4.1552,-4.5586,-4.5586,-4.5495,-4.5438,-4.5381,-4.4688,-4.4401,-4.4337,-4.3609,-4.3069,-4.2788,-4.2884,-4.2768,-4.2609,-4.2975,-4.3248,-4.3261,-4.3266,-4.3321,-4.3479,-4.3479,-4.3479,-4.3444,-4.3321,-4.3268,-4.3214,-4.3069,-4.2977,-4.2995,-4.316,-4.3232,-4.3286,-4.341,-4.3075,-4.2359,-4.2029,-4.1534,-4.0799,-4.0487,-4.012,-3.9588,-3.9515,-3.9276,-3.8762,-3.8707,-3.8707,-3.8707,-3.8707,-3.8201,-3.7266,-3.719,-3.6724,-3.5854,-3.5639,-3.5614,-3.5625,-3.5826,-3.5926,-3.5706,-3.5758,-3.5817,-3.5582,-3.5468,-3.5509,-3.5554,-3.5958,-3.6212,-3.6337,-3.6692,-3.7055,-3.7011,-3.6585,-3.6117,-3.5569,-3.5489,-3.5733,-3.6165,-3.7231,-3.8286,-3.8783,-3.9368,-3.985,-4.002,-4.007,-4.0087,-4.0087,-4.0087,-4.0087,-4.0087,-4.0087,-4.0087,-4.0087,-4.0087,-4.0087,-4.0087,-4.0087,-4.0087,-4.0087,-4.0087,-4.0087,-4.0087,-4.0087,-4.0087,-4.0204,-4.0559,-4.081,-4.1087,-4.1178,-4.1178,-4.1059,-4.0938,-4.0814,-4.0689,-4.0767,-4.0984,-4.568,-4.568,-4.5605,-4.5513,-4.5381,-4.4806,-4.4501,-4.4308,-4.3758,-4.3304,-4.3142,-4.3321,-4.3322,-4.3123,-4.3376,-4.3479,-4.3479,-4.3479,-4.3479,-4.3479,-4.3479,-4.3479,-4.3479,-4.3479,-4.3479,-4.3479,-4.3479,-4.3479,-4.3479,-4.3479,-4.3479,-4.3479,-4.3479,-4.3259,-4.2727,-4.2433,-4.2011,-4.1589,-4.124,-4.0708,-4.0047,-3.9882,-3.9515,-3.8836,-3.8707,-3.8707,-3.8707,-3.8515,-3.8032,-3.7285,-3.6865,-3.6249,-3.565,-3.5379,-3.5338,-3.558,-3.5638,-3.5642,-3.5559,-3.5801,-3.5768,-3.5583,-3.5492,-3.5653,-3.5894,-3.6399,-3.6676,-3.7084,-3.7456,-3.7822,-3.7706,-3.7397,-3.6814,-3.643,-3.5861,-3.5797,-3.629,-3.7024,-3.7642,-3.7987,-3.8635,-3.9279,-3.9558,-4.0003,-4.007,-4.0087,-4.0087,-4.0087,-4.0087,-4.0087,-4.0087,-4.0087,-4.0087,-4.0087,-4.0087,-4.0087,-4.0087,-4.0087,-4.0087,-4.0087,-4.0087,-4.0087,-4.0087,-4.0121,-4.0368,-4.04,-4.0642,-4.0625,-4.0577,-4.0417,-4.0336,-4.0336,-4.0336,-4.0303,-4.0466,-4.5794,-4.5796,-4.5645,-4.5361,-4.5014,-4.4594,-4.4195,-4.3856,-4.356,-4.3356,-4.3375,-4.3444,-4.3497,-4.3444,-4.3479,-4.3479,-4.3479,-4.3479,-4.3479,-4.3479,-4.3479,-4.3479,-4.3479,-4.3479,-4.3479,-4.3479,-4.3479,-4.3444,-4.3375,-4.3356,-4.3391,-4.3267,-4.3232,-4.341,-4.3137,-4.2658,-4.2365,-4.2286,-4.1699,-4.102,-4.023,-4.0029,-3.9643,-3.8891,-3.8744,-3.8707,-3.8627,-3.8183,-3.7649,-3.7097,-3.6207,-3.5677,-3.5424,-3.4941,-3.4922,-3.541,-3.5573,-3.5625,-3.5696,-3.615,-3.6338,-3.5915,-3.5897,-3.5879,-3.6631,-3.6904,-3.7247,-3.779,-3.8035,-3.8092,-3.8092,-3.7921,-3.7806,-3.7589,-3.6492,-3.5797,-3.5619,-3.5782,-3.629,-3.6798,-3.7322,-3.8133,-3.8962,-3.961,-4.002,-4.0087,-4.0087,-4.0087,-4.0087,-4.0087,-4.0087,-4.0087,-4.0087,-4.0087,-4.0087,-4.0087,-4.0087,-4.0087,-4.0087,-4.0087,-4.0087,-4.0087,-4.0087,-4.0121,-4.0171,-4.0171,-4.0171,-4.0237,-4.0237,-4.0204,-4.0171,-4.0121,-4.007,-4.007,-4.0237,-4.5827,-4.5778,-4.5492,-4.5004,-4.4392,-4.3823,-4.3232,-4.2796,-4.2868,-4.2939,-4.2976,-4.3339,-4.3479,-4.3479,-4.3479,-4.3479,-4.3479,-4.3479,-4.3479,-4.3479,-4.3479,-4.3479,-4.3479,-4.3479,-4.3479,-4.3479,-4.3444,-4.3286,-4.2957,-4.2902,-4.2696,-4.2266,-4.2346,-4.2541,-4.2736,-4.2685,-4.2832,-4.3133,-4.2983,-4.2415,-4.1644,-4.1038,-4.0396,-3.9625,-3.9056,-3.8781,-3.8614,-3.7826,-3.7135,-3.6603,-3.5968,-3.5362,-3.5005,-3.4769,-3.4806,-3.4934,-3.4917,-3.5361,-3.6149,-3.6491,-3.6737,-3.7175,-3.7011,-3.7294,-3.7456,-3.8003,-3.8342,-3.8707,-3.9102,-3.9454,-3.9385,-3.8924,-3.8469,-3.7806,-3.6995,-3.6352,-3.629,-3.6337,-3.6384,-3.6676,-3.7716,-3.8525,-3.8908,-3.9542,-4.007,-4.0087,-4.0087,-4.0087,-4.0087,-4.0087,-4.0087,-4.0087,-4.0087,-4.0087,-4.0087,-4.0087,-4.0087,-4.0087,-4.0087,-4.0087,-4.0087,-4.0087,-4.0087,-4.0121,-4.0121,-4.0121,-4.0121,-4.0171,-4.0121,-4.0087,-4.0087,-4.007,-4.0121,-4.0121,-4.0368,-4.5801,-4.5587,-4.5071,-4.4229,-4.3324,-4.2951,-4.2334,-4.1823,-4.2411,-4.2657,-4.2736,-4.3213,-4.3479,-4.3479,-4.3479,-4.3479,-4.3479,-4.3479,-4.3479,-4.3479,-4.3479,-4.3479,-4.3479,-4.3479,-4.3479,-4.3444,-4.3268,-4.2995,-4.2693,-4.248,-4.2121,-4.1895,-4.181,-4.2121,-4.2693,-4.2693,-4.2976,-4.3391,-4.3461,-4.3112,-4.2323,-4.1864,-4.0983,-4.0194,-3.968,-3.9571,-3.901,-3.7922,-3.6951,-3.6225,-3.5722,-3.5407,-3.5085,-3.505,-3.5131,-3.5363,-3.5489,-3.6012,-3.6801,-3.7084,-3.7338,-3.769,-3.7822,-3.7978,-3.8246,-3.869,-3.8978,-3.9437,-3.9833,-4.007,-4.002,-3.9662,-3.9262,-3.8832,-3.8076,-3.7291,-3.6722,-3.6275,-3.618,-3.6461,-3.7381,-3.8469,-3.8469,-3.9385,-3.9952,-4.0087,-4.0087,-4.0087,-4.0087,-4.0087,-4.0087,-4.0087,-4.0087,-4.0087,-4.0087,-4.0087,-4.0087,-4.0087,-4.0087,-4.0087,-4.0087,-4.0087,-4.0087,-4.0087,-4.0087,-4.0087,-4.0087,-4.0087,-4.0087,-4.0087,-4.0087,-4.0121,-4.0121,-4.0336,-4.0577,-4.5645,-4.5227,-4.4361,-4.3148,-4.1969,-4.1956,-4.1372,-4.0809,-4.1932,-4.2447,-4.251,-4.3141,-4.3479,-4.3479,-4.3479,-4.3479,-4.3479,-4.3479,-4.3479,-4.3479,-4.3479,-4.3479,-4.3479,-4.3479,-4.341,-4.3286,-4.2902,-4.2616,-4.2302,-4.1895,-4.1682,-4.1508,-4.1552,-4.2021,-4.2422,-4.2616,-4.2976,-4.341,-4.3479,-4.3204,-4.2616,-4.2268,-4.157,-4.0708,-4.0485,-4.0113,-3.9238,-3.8213,-3.7145,-3.5972,-3.5814,-3.5903,-3.5828,-3.5776,-3.6023,-3.6453,-3.6587,-3.6974,-3.776,-3.7921,-3.7978,-3.8206,-3.8206,-3.8262,-3.8924,-3.9139,-3.9385,-3.9901,-4.007,-4.0087,-4.007,-4.0003,-3.9833,-3.961,-3.9209,-3.8117,-3.7084,-3.6117,-3.5683,-3.5797,-3.7055,-3.7648,-3.8262,-3.9065,-4.0087,-4.0087,-4.0087,-4.0087,-4.0087,-4.0087,-4.0087,-4.0087,-4.0087,-4.0087,-4.0087,-4.0087,-4.0087,-4.0087,-4.0087,-4.0087,-4.0087,-4.0087,-4.0087,-4.0087,-4.0087,-4.0087,-4.0087,-4.0087,-4.0087,-4.0087,-4.0087,-4.0154,-4.0237,-4.0546,-4.0844,-4.5247,-4.4493,-4.3178,-4.1902,-4.0744,-4.0417,-3.9948,-3.9426,-4.1198,-4.1961,-4.2208,-4.3014,-4.3463,-4.3479,-4.3479,-4.3479,-4.3479,-4.3479,-4.3479,-4.3479,-4.3479,-4.3479,-4.3479,-4.3479,-4.3304,-4.3014,-4.277,-4.2221,-4.1534,-4.1268,-4.0874,-4.0642,-4.1059,-4.1402,-4.2021,-4.2559,-4.2976,-4.341,-4.3479,-4.3406,-4.3112,-4.2616,-4.2176,-4.1595,-4.0868,-3.9884,-3.9003,-3.8538,-3.8064,-3.7555,-3.7368,-3.7175,-3.6686,-3.6572,-3.6713,-3.6885,-3.6938,-3.7446,-3.8345,-3.869,-3.8924,-3.9385,-3.9385,-3.9662,-3.9782,-3.9782,-3.9901,-4.0087,-4.0087,-4.007,-3.9952,-3.9489,-3.9542,-3.961,-3.8941,-3.8246,-3.8117,-3.7188,-3.6692,-3.7115,-3.7515,-3.8035,-3.8564,-3.9385,-4.002,-4.007,-4.0087,-4.0087,-4.0087,-4.0087,-4.0087,-4.0087,-4.0087,-4.0087,-4.0087,-4.0087,-4.0087,-4.0087,-4.0087,-4.0087,-4.0087,-4.0087,-4.0087,-4.0087,-4.0087,-4.0087,-4.0087,-4.0087,-4.0087,-4.0087,-4.0171,-4.0319,-4.0546,-4.0861,-4.1258,-4.4997,-4.4008,-4.2418,-4.0868,-3.9628,-3.9377,-3.902,-3.8859,-4.0504,-4.1534,-4.1919,-4.2752,-4.325,-4.3479,-4.3479,-4.3479,-4.3479,-4.3479,-4.3479,-4.3479,-4.3479,-4.3479,-4.3479,-4.3497,-4.3339,-4.2995,-4.2462,-4.1895,-4.1358,-4.0797,-4.0546,-4.0497,-4.078,-4.1446,-4.2103,-4.2577,-4.2995,-4.341,-4.3479,-4.3479,-4.3369,-4.3112,-4.2699,-4.2159,-4.0903,-3.9722,-3.9728,-3.9078,-3.8901,-3.8899,-3.8903,-3.8434,-3.7635,-3.7636,-3.7801,-3.7876,-3.8233,-3.857,-3.9301,-3.9489,-3.9662,-4.007,-4.0087,-4.0087,-4.0087,-4.0087,-4.0087,-4.0087,-4.007,-4.0003,-3.961,-3.9246,-3.9193,-3.9262,-3.8816,-3.8652,-3.8978,-3.8117,-3.7263,-3.7806,-3.8076,-3.8414,-3.9032,-3.9679,-3.9969,-4.0087,-4.0087,-4.0087,-4.0087,-4.0087,-4.0087,-4.0087,-4.0087,-4.0087,-4.0087,-4.0087,-4.0087,-4.0087,-4.0087,-4.0087,-4.0087,-4.0087,-4.0087,-4.0087,-4.0087,-4.0087,-4.0087,-4.0087,-4.0121,-4.0171,-4.0303,-4.0528,-4.0827,-4.115,-4.1682,-4.471,-4.3554,-4.1734,-4.0057,-3.8805,-3.8717,-3.8453,-3.8381,-4.0165,-4.1429,-4.1877,-4.2501,-4.3178,-4.341,-4.3479,-4.3479,-4.3479,-4.3479,-4.3479,-4.3479,-4.3479,-4.3479,-4.3479,-4.3497,-4.3497,-4.3338,-4.2386,-4.175,-4.1241,-4.075,-4.0577,-4.0874,-4.1178,-4.1768,-4.2519,-4.2808,-4.305,-4.3444,-4.3479,-4.3479,-4.3444,-4.3301,-4.2905,-4.1984,-4.0925,-4.0131,-4.0215,-3.9754,-3.9443,-4.002,-4.0087,-3.9428,-3.8802,-3.8734,-3.9157,-3.9141,-3.9548,-3.9783,-3.9868,-4.002,-4.007,-4.0087,-4.0087,-4.0087,-4.0087,-4.0087,-4.0087,-4.002,-3.9901,-3.9489,-3.8854,-3.8635,-3.8635,-3.8745,-3.8799,-3.9193,-3.9506,-3.8778,-3.843,-3.8318,-3.858,-3.8799,-3.9209,-3.9782,-3.9952,-4.0087,-4.0087,-4.0087,-4.0087,-4.0087,-4.0087,-4.0087,-4.0087,-4.0087,-4.0087,-4.0087,-4.0087,-4.0087,-4.0087,-4.0087,-4.0087,-4.0087,-4.0087,-4.0087,-4.0087,-4.0087,-4.0087,-4.0087,-4.0121,-4.0221,-4.0286,-4.0497,-4.0874,-4.1402,-4.1979,-4.4184,-4.2809,-4.0665,-3.9413,-3.8842,-3.823,-3.8302,-3.902,-4.074,-4.1664,-4.1919,-4.2847,-4.3339,-4.3479,-4.3479,-4.3479,-4.3479,-4.3479,-4.3479,-4.3479,-4.3479,-4.3479,-4.3479,-4.3479,-4.3479,-4.3196,-4.2404,-4.1508,-4.0955,-4.0625,-4.0874,-4.1133,-4.1853,-4.2519,-4.277,-4.3105,-4.3321,-4.3444,-4.3479,-4.3479,-4.341,-4.3087,-4.2386,-4.1516,-4.0752,-4.0481,-4.0246,-4.0052,-3.9969,-4.0087,-4.0087,-3.9918,-3.9665,-3.9732,-3.98,-3.9851,-3.9952,-4.0087,-4.0087,-4.0087,-4.0087,-4.0087,-4.0087,-4.0087,-4.0087,-4.002,-3.9901,-3.9731,-3.9332,-3.8799,-3.8092,-3.7962,-3.7978,-3.8092,-3.8469,-3.8908,-3.9156,-3.9385,-3.9454,-3.9385,-3.9262,-3.9139,-3.9558,-3.985,-4.002,-4.0087,-4.0087,-4.0087,-4.0087,-4.0087,-4.0087,-4.0087,-4.0087,-4.0087,-4.0087,-4.0087,-4.0087,-4.0087,-4.0087,-4.0087,-4.0087,-4.0087,-4.0087,-4.0087,-4.0087,-4.0087,-4.0087,-4.0087,-4.0121,-4.0121,-4.0286,-4.04,-4.0967,-4.1578,-4.2062,-4.4009,-4.2627,-4.0832,-3.9648,-3.8929,-3.8525,-3.875,-3.9495,-4.0758,-4.1611,-4.219,-4.2806,-4.3233,-4.341,-4.3479,-4.3479,-4.3479,-4.3479,-4.3479,-4.3479,-4.3479,-4.3479,-4.3444,-4.3444,-4.3304,-4.305,-4.248,-4.1997,-4.1481,-4.1375,-4.1534,-4.1937,-4.248,-4.2808,-4.3087,-4.3356,-4.3479,-4.3479,-4.3479,-4.3444,-4.3391,-4.2939,-4.2062,-4.1206,-4.0856,-4.0607,-4.0204,-4.0087,-4.007,-4.0087,-4.0087,-4.0087,-4.0087,-4.0087,-4.0087,-4.0087,-4.0087,-4.0087,-4.0087,-4.0087,-4.0087,-4.0087,-4.0087,-4.0087,-3.9952,-3.9714,-3.9385,-3.8941,-3.8668,-3.8019,-3.7263,-3.7219,-3.7144,-3.7322,-3.7889,-3.8469,-3.8978,-3.9662,-3.9952,-4.0087,-3.985,-3.9662,-3.985,-4.007,-4.007,-4.0087,-4.0087,-4.0087,-4.0087,-4.0087,-4.0087,-4.0087,-4.0087,-4.0087,-4.0087,-4.0087,-4.0087,-4.0087,-4.0087,-4.0087,-4.0087,-4.0087,-4.0087,-4.0087,-4.0087,-4.0087,-4.0087,-4.0087,-4.0087,-4.0171,-4.0417,-4.075,-4.1223,-4.1707,-4.2244,-4.3873,-4.2575,-4.1198,-4.0029,-3.9229,-3.9106,-3.9425,-4.0082,-4.0943,-4.1782,-4.2433,-4.2786,-4.3141,-4.3393,-4.3479,-4.3444,-4.3375,-4.3321,-4.3196,-4.3032,-4.3014,-4.3105,-4.3142,-4.3142,-4.2958,-4.2826,-4.2693,-4.2616,-4.2221,-4.208,-4.2302,-4.2519,-4.2732,-4.305,-4.341,-4.3479,-4.3479,-4.3479,-4.3356,-4.3286,-4.294,-4.2523,-4.1853,-4.0874,-4.0733,-4.0497,-4.0171,-4.0087,-4.0087,-4.0087,-4.0087,-4.0087,-4.0087,-4.0087,-4.0087,-4.0087,-4.0087,-4.0087,-4.0087,-4.0087,-4.0087,-4.0087,-4.0087,-4.0087,-3.9901,-3.9437,-3.8635,-3.779,-3.7499,-3.7219,-3.6569,-3.6384,-3.6508,-3.6843,-3.7381,-3.8092,-3.8854,-3.9489,-4.002,-4.0087,-4.0087,-4.0087,-4.0087,-4.0087,-4.0087,-4.0087,-4.0087,-4.0087,-4.0087,-4.0087,-4.0087,-4.0087,-4.0087,-4.0087,-4.0087,-4.0087,-4.0087,-4.0087,-4.0087,-4.0087,-4.0087,-4.0087,-4.0087,-4.0087,-4.0087,-4.0087,-4.0087,-4.0087,-4.0087,-4.0254,-4.0625,-4.0903,-4.1178,-4.175,-4.2382,-4.3521,-4.226,-4.1095,-4.0371,-3.9952,-3.9733,-4.0099,-4.0868,-4.1937,-4.2519,-4.2734,-4.3142,-4.3393,-4.3444,-4.3444,-4.3214,-4.2939,-4.277,-4.258,-4.2284,-4.2185,-4.2167,-4.2044,-4.2003,-4.2404,-4.2519,-4.2655,-4.2382,-4.2284,-4.2422,-4.2616,-4.2826,-4.3124,-4.3444,-4.3444,-4.3479,-4.3479,-4.341,-4.3014,-4.2324,-4.1516,-4.1251,-4.0874,-4.0417,-4.0254,-4.0204,-4.0121,-4.0087,-4.0087,-4.0087,-4.0087,-4.0087,-4.0087,-4.0087,-4.0087,-4.0087,-4.0087,-4.0087,-4.0087,-4.0087,-4.0087,-4.0087,-4.0087,-4.0087,-3.9662,-3.9086,-3.8101,-3.6843,-3.6722,-3.6569,-3.6054,-3.5782,-3.6006,-3.6692,-3.7499,-3.8189,-3.8854,-3.9594,-4.002,-4.0087,-4.0087,-4.0087,-4.0087,-4.0087,-4.0087,-4.0087,-4.0087,-4.0087,-4.0087,-4.0087,-4.0087,-4.0087,-4.0087,-4.0087,-4.0087,-4.0087,-4.0087,-4.0087,-4.0087,-4.0087,-4.0087,-4.0087,-4.0087,-4.0087,-4.0087,-4.0087,-4.0087,-4.0087,-4.0087,-4.0336,-4.0703,-4.0827,-4.0949,-4.1664,-4.2559,-4.2939,-4.2219,-4.1192,-4.0491,-4.0154,-4.0331,-4.0804,-4.1473,-4.2284,-4.2864,-4.3142,-4.3356,-4.3479,-4.341,-4.3214,-4.2939,-4.2655,-4.2342,-4.208,-4.181,-4.1768,-4.1768,-4.1853,-4.181,-4.2038,-4.2162,-4.248,-4.2598,-4.2501,-4.279,-4.3124,-4.3142,-4.3321,-4.3479,-4.3356,-4.3479,-4.3304,-4.2976,-4.2462,-4.175,-4.1133,-4.0874,-4.0672,-4.0121,-4.0121,-4.0087,-4.0087,-4.0087,-4.0087,-4.0087,-4.0087,-4.0087,-4.0087,-4.0087,-4.0087,-4.0087,-4.0087,-4.0087,-4.0087,-4.0087,-4.0087,-4.007,-4.002,-3.9731,-3.8978,-3.8117,-3.7247,-3.6117,-3.6006,-3.5943,-3.6117,-3.6102,-3.6585,-3.7219,-3.7905,-3.8358,-3.8978,-3.961,-4.0087,-4.0087,-4.0087,-4.0087,-4.0087,-4.0087,-4.0087,-4.0087,-4.0087,-4.0087,-4.0087,-4.0087,-4.0087,-4.0087,-4.0087,-4.0087,-4.0087,-4.0087,-4.0087,-4.0087,-4.0087,-4.0087,-4.0087,-4.0087,-4.0087,-4.0087,-4.0087,-4.0087,-4.0087,-4.0121,-4.0171,-4.04,-4.0733,-4.1087,-4.1446,-4.1979,-4.277,-4.2515,-4.2095,-4.127,-4.0577,-4.0154,-4.0655,-4.1133,-4.1621,-4.2382,-4.2939,-4.3214,-4.325,-4.3214,-4.3032,-4.2637,-4.2342,-4.2144,-4.175,-4.149,-4.142,-4.1375,-4.1331,-4.1258,-4.1286,-4.1358,-4.1578,-4.1895,-4.2162,-4.2501,-4.2752,-4.2958,-4.3304,-4.3178,-4.3124,-4.3069,-4.294,-4.2696,-4.2144,-4.1793,-4.1268,-4.0797,-4.0655,-4.0449,-4.0204,-4.0087,-4.0087,-4.0087,-4.0087,-4.0087,-4.0087,-4.0087,-4.0087,-4.0087,-4.0087,-4.0087,-4.0087,-4.0087,-4.0087,-4.0087,-4.0087,-4.0087,-4.002,-3.9731,-3.9209,-3.8092,-3.7084,-3.6337,-3.5668,-3.6022,-3.6228,-3.6508,-3.6722,-3.7322,-3.7905,-3.8525,-3.8854,-3.9193,-3.9782,-4.0087,-4.0087,-4.0087,-4.0087,-4.0087,-4.0087,-4.0087,-4.0087,-4.0087,-4.0087,-4.0087,-4.0087,-4.0087,-4.0087,-4.0087,-4.0087,-4.0087,-4.0087,-4.0087,-4.0087,-4.0087,-4.0087,-4.0087,-4.0087,-4.0087,-4.0087,-4.0087,-4.0087,-4.0087,-4.0171,-4.0254,-4.0625,-4.1041,-4.1664,-4.2162,-4.2598,-4.2939,-4.2336,-4.1775,-4.1161,-4.0577,-4.0138,-4.0638,-4.0949,-4.1115,-4.2203,-4.2655,-4.2732,-4.275,-4.2462,-4.2062,-4.1937,-4.1578,-4.1087,-4.0995,-4.075,-4.0466,-4.0254,-4.0385,-4.0434,-4.0514,-4.0594,-4.0903,-4.1268,-4.1534,-4.181,-4.2062,-4.2364,-4.2655,-4.2693,-4.2382,-4.2185,-4.2085,-4.1817,-4.1358,-4.1041,-4.075,-4.0368,-4.0254,-4.0154,-4.0171,-4.0087,-4.0087,-4.0087,-4.0087,-4.0087,-4.0087,-4.0087,-4.0087,-4.0087,-4.0087,-4.0087,-4.0087,-4.0087,-4.0087,-4.0087,-4.0087,-4.0087,-3.9901,-3.9385,-3.8707,-3.7863,-3.7279,-3.6477,-3.5733,-3.6133,-3.6631,-3.6919,-3.7263,-3.8019,-3.8652,-3.9086,-3.9315,-3.961,-3.9833,-4.0087,-4.0087,-4.0087,-4.0087,-4.0087,-4.0087,-4.0087,-4.0087,-4.0087,-4.0087,-4.0087,-4.0087,-4.0087,-4.0087,-4.0087,-4.0087,-4.0087,-4.0087,-4.0087,-4.0087,-4.0087,-4.0087,-4.0087,-4.0087,-4.0087,-4.0087,-4.0087,-4.0087,-4.0087,-4.0121,-4.0336,-4.0844,-4.1358,-4.1937,-4.2523,-4.2958,-4.3214,-4.2024,-4.1707,-4.0814,-4.0286,-4.0138,-4.0638,-4.0903,-4.1041,-4.175,-4.2162,-4.2162,-4.2121,-4.2021,-4.175,-4.1358,-4.1133,-4.0874,-4.0546,-4.0286,-4.0154,-4.0121,-4.0087,-4.0087,-4.0121,-4.0254,-4.0449,-4.0703,-4.0949,-4.1223,-4.149,-4.1534,-4.1768,-4.1955,-4.2038,-4.181,-4.1402,-4.1087,-4.0874,-4.0577,-4.0286,-4.0204,-4.0087,-4.0087,-4.0087,-4.0087,-4.0087,-4.0087,-4.0087,-4.0087,-4.0087,-4.0087,-4.0087,-4.0087,-4.0087,-4.0087,-4.0087,-4.0087,-4.0087,-4.0087,-4.0087,-4.0087,-3.985,-3.8995,-3.8092,-3.7748,-3.6829,-3.607,-3.591,-3.643,-3.698,-3.744,-3.8003,-3.8745,-3.9385,-3.9679,-3.9782,-3.9901,-4.007,-4.0087,-4.0087,-4.0087,-4.0087,-4.0087,-4.0087,-4.0087,-4.0087,-4.0087,-4.0087,-4.0087,-4.0087,-4.0087,-4.0087,-4.0087,-4.0087,-4.0087,-4.0087,-4.0087,-4.0087,-4.0087,-4.0087,-4.0087,-4.0087,-4.0087,-4.0087,-4.0087,-4.0087,-4.0087,-4.0087,-4.0417,-4.1013,-4.1578,-4.2144,-4.2696,-4.3286,-4.341,-4.2109,-4.1707,-4.0955,-4.0385,-4.0171,-4.0497,-4.0638,-4.075,-4.1268,-4.1534,-4.1534,-4.1534,-4.142,-4.1196,-4.0874,-4.0655,-4.0528,-4.0319,-4.0171,-4.0087,-4.0087,-4.0087,-4.0087,-4.0121,-4.0121,-4.0204,-4.0417,-4.0655,-4.0655,-4.1105,-4.1013,-4.0938,-4.1059,-4.1196,-4.1168,-4.0938,-4.0655,-4.0528,-4.0368,-4.007,-4.0087,-4.0087,-4.0087,-4.0087,-4.0087,-4.0087,-4.0087,-4.0087,-4.0087,-4.0087,-4.0087,-4.0087,-4.0087,-4.0087,-4.0087,-4.0087,-4.0087,-4.0087,-4.0087,-4.0087,-4.0087,-3.9952,-3.8723,-3.8051,-3.7472,-3.643,-3.5604,-3.5668,-3.6477,-3.7397,-3.7863,-3.8596,-3.9262,-3.9833,-3.9901,-4.002,-4.002,-4.0087,-4.0087,-4.0087,-4.0087,-4.0087,-4.0087,-4.0087,-4.0087,-4.0087,-4.0087,-4.0087,-4.0087,-4.0087,-4.0087,-4.0087,-4.0087,-4.0087,-4.0087,-4.0087,-4.0087,-4.0087,-4.0087,-4.0087,-4.0087,-4.0087,-4.0087,-4.0087,-4.0087,-4.0087,-4.0087,-4.0087,-4.0594,-4.1268,-4.1835,-4.2501,-4.2903,-4.3444,-4.3444,-4.2754,-4.1853,-4.1707,-4.1059,-4.0121,-4.0121,-4.0171,-4.0254,-4.0703,-4.092,-4.0903,-4.0903,-4.0672,-4.0336,-4.0286,-4.0237,-4.0237,-4.0171,-4.0087,-4.0087,-4.0087,-4.0087,-4.002,-3.9952,-3.9731,-4.002,-3.9919,-3.9834,-3.9969,-3.9986,-3.9952,-3.9952,-3.9986,-4.0086,-4.0104,-4.0121,-4.0121,-4.007,-3.9952,-3.985,-3.9799,-3.9731,-3.9731,-3.9901,-3.9901,-3.9833,-4.0087,-4.0087,-4.0087,-4.0087,-4.0087,-4.0087,-4.0087,-4.0087,-4.0087,-4.0087,-4.0087,-4.0087,-4.0087,-4.0087,-4.007,-3.9799,-3.8502,-3.7806,-3.7472,-3.6477,-3.5604,-3.5782,-3.6829,-3.7632,-3.8302,-3.9049,-3.9714,-4.0054,-4.007,-4.0087,-4.0087,-4.0087,-4.0087,-4.0087,-4.0087,-4.0087,-4.0087,-4.0087,-4.0087,-4.0087,-4.0087,-4.0087,-4.0087,-4.0087,-4.0087,-4.0087,-4.0087,-4.0087,-4.0087,-4.0087,-4.0087,-4.0087,-4.0087,-4.0087,-4.0087,-4.0087,-4.0087,-4.0087,-4.0087,-4.0087,-4.0087,-4.0087,-4.0577,-4.1133,-4.2203,-4.2864,-4.325,-4.3444,-4.3356,-4.2512,-4.1768,-4.1358,-4.075,-4.0171,-4.0087,-4.0087,-4.0121,-4.0286,-4.0368,-4.0368,-4.0385,-4.0336,-4.0121,-4.0087,-4.0087,-4.0087,-4.0087,-4.0087,-4.007,-4.002,-3.9714,-3.9489,-3.9262,-3.9086,-3.8723,-3.8596,-3.8707,-3.8541,-3.8723,-3.8668,-3.8541,-3.8832,-3.887,-3.9193,-3.9262,-3.9156,-3.8652,-3.8541,-3.8541,-3.8613,-3.8652,-3.887,-3.9262,-3.9315,-3.9542,-3.9969,-3.9969,-4.002,-4.007,-4.0087,-4.0087,-4.0087,-4.0087,-4.0087,-4.0087,-4.0087,-4.0087,-4.0087,-4.007,-3.9799,-3.9226,-3.8486,-3.7573,-3.698,-3.6133,-3.591,-3.6305,-3.7279,-3.8019,-3.8652,-3.9454,-4.002,-4.007,-4.0087,-4.0087,-4.0087,-4.0087,-4.0087,-4.0087,-4.0087,-4.0087,-4.0087,-4.0087,-4.0087,-4.0087,-4.0087,-4.0087,-4.0087,-4.0087,-4.0087,-4.0087,-4.0087,-4.0087,-4.0087,-4.0087,-4.0087,-4.0087,-4.0087,-4.0087,-4.0087,-4.0087,-4.0087,-4.0087,-4.0087,-4.0087,-4.0121,-4.0204,-4.04,-4.1013,-4.2021,-4.2732,-4.2976,-4.3087,-4.3105,-4.2649,-4.2062,-4.1473,-4.0874,-4.0417,-4.0154,-4.0087,-4.0087,-4.0087,-4.0087,-4.0121,-4.0121,-4.0121,-4.0121,-4.0087,-4.0087,-4.0087,-4.0087,-3.9782,-3.9782,-3.9662,-3.9156,-3.8761,-3.8486,-3.8302,-3.7863,-3.7764,-3.7879,-3.7978,-3.7879,-3.7937,-3.7937,-3.7764,-3.7905,-3.8173,-3.8173,-3.8374,-3.8035,-3.8035,-3.7978,-3.7937,-3.7978,-3.8092,-3.8414,-3.8635,-3.8854,-3.9437,-3.9731,-3.985,-3.9969,-4.0087,-4.0087,-4.007,-4.007,-4.007,-4.0087,-4.0087,-4.0087,-4.0087,-4.0087,-3.961,-3.858,-3.8035,-3.7456,-3.6676,-3.5943,-3.5846,-3.6368,-3.7557,-3.8133,-3.8707,-3.9506,-4.002,-4.0087,-4.0087,-4.0087,-4.0087,-4.0087,-4.0087,-4.0087,-4.0087,-4.0087,-4.007,-4.0087,-4.0087,-4.0087,-4.0087,-4.0087,-4.0087,-4.0087,-4.0087,-4.0087,-4.0087,-4.0087,-4.0087,-4.0087,-4.0087,-4.0087,-4.0087,-4.0087,-4.0087,-4.0087,-4.0087,-4.0087,-4.0087,-4.0121,-4.0171,-4.0286,-4.0528,-4.0995,-4.1835,-4.2324,-4.2616,-4.2714,-4.2772,-4.316,-4.2598,-4.2021,-4.1402,-4.0827,-4.0286,-4.0087,-4.0087,-4.0087,-4.0087,-4.0087,-4.0087,-4.0087,-4.0087,-4.0087,-4.0087,-4.002,-4.002,-3.9542,-3.9086,-3.8978,-3.8414,-3.7962,-3.7732,-3.7515,-3.7573,-3.7472,-3.7251,-3.7648,-3.7354,-3.7354,-3.7531,-3.7354,-3.716,-3.7024,-3.7203,-3.7397,-3.7294,-3.7294,-3.7235,-3.7235,-3.7413,-3.7456,-3.7674,-3.779,-3.8302,-3.8816,-3.9102,-3.9489,-3.9782,-4.0087,-4.007,-4.002,-4.0054,-4.007,-3.9969,-3.9901,-3.9952,-3.9901,-3.9901,-3.9279,-3.8189,-3.7748,-3.7279,-3.6569,-3.5831,-3.5831,-3.6523,-3.7674,-3.8035,-3.8446,-3.9279,-4.007,-4.0087,-4.0087,-4.0087,-4.0087,-4.0087,-4.0087,-4.0087,-4.0087,-4.007,-3.9901,-3.9901,-3.9952,-3.9833,-3.985,-4.0087,-4.0087,-4.0087,-4.0087,-4.0087,-4.0087,-4.0087,-4.0087,-4.0087,-4.0087,-4.0087,-4.0087,-4.0087,-4.0087,-4.0087,-4.0087,-4.0087,-4.0087,-4.0121,-4.0171,-4.0319,-4.0655,-4.1178,-4.149,-4.1793,-4.1979,-4.2342,-4.2501,-4.2958,-4.2062,-4.1877,-4.1241,-4.0368,-4.0154,-4.0087,-4.0087,-4.0087,-4.0087,-4.0087,-4.0087,-4.0087,-4.0087,-4.0087,-4.0087,-3.985,-3.9542,-3.9193,-3.8745,-3.8246,-3.7616,-3.7203,-3.6919,-3.6646,-3.6368,-3.6258,-3.6383,-3.6196,-3.6243,-3.6243,-3.6148,-3.6368,-3.607,-3.607,-3.607,-3.6243,-3.6305,-3.6368,-3.6368,-3.6305,-3.6368,-3.6585,-3.6814,-3.698,-3.7541,-3.8398,-3.869,-3.9139,-3.9782,-4.002,-3.9901,-3.9262,-3.9209,-3.9156,-3.8596,-3.8816,-3.9262,-3.9262,-3.9262,-3.8799,-3.7847,-3.7338,-3.6585,-3.6006,-3.5718,-3.5718,-3.6585,-3.7279,-3.7573,-3.8149,-3.8995,-3.9662,-3.985,-3.985,-3.9731,-3.9731,-3.9731,-3.9731,-3.9679,-3.9679,-3.9627,-3.9506,-3.9782,-3.9782,-3.961,-3.961,-3.9952,-4.0087,-4.0087,-4.0087,-4.0087,-4.0087,-4.0087,-4.0087,-4.0087,-4.0087,-4.0087,-4.0087,-4.0087,-4.0087,-4.0087,-4.0087,-4.0087,-4.0087,-4.0087,-4.0121,-4.0336,-4.048,-4.0528,-4.0797,-4.1087,-4.1402,-4.175,-4.1853,-4.2995,-4.2162,-4.1895,-4.115,-4.0221,-4.0087,-4.0087,-4.0087,-4.0087,-4.0087,-4.0087,-4.0087,-4.0087,-4.0087,-4.0087,-3.9935,-3.9537,-3.9172,-3.8619,-3.77,-3.7557,-3.6874,-3.6399,-3.6165,-3.5958,-3.5619,-3.5489,-3.5668,-3.5489,-3.5489,-3.5554,-3.5619,-3.5489,-3.5489,-3.5554,-3.5604,-3.5554,-3.5619,-3.5554,-3.5489,-3.5489,-3.5489,-3.5831,-3.6054,-3.6165,-3.6964,-3.7815,-3.8044,-3.8453,-3.9049,-3.9172,-3.9011,-3.8469,-3.8414,-3.8414,-3.8035,-3.858,-3.869,-3.8652,-3.8854,-3.8286,-3.7541,-3.6859,-3.629,-3.5831,-3.5554,-3.5718,-3.618,-3.66,-3.7131,-3.7905,-3.8635,-3.9102,-3.9558,-3.9437,-3.9262,-3.9262,-3.9262,-3.9226,-3.9119,-3.9119,-3.9049,-3.9156,-3.9437,-3.9714,-3.9782,-3.9833,-3.9952,-4.0087,-4.0087,-4.0087,-4.0087,-4.0087,-4.0087,-4.0087,-4.0087,-4.0087,-4.0087,-4.0087,-4.0087,-4.0087,-4.0087,-4.0087,-4.0087,-4.0087,-4.0087,-4.0087,-4.0087,-4.0204,-4.0237,-4.0336,-4.0546,-4.0844,-4.1133,-4.1059,-4.3069,-4.2537,-4.1955,-4.103,-4.0171,-4.0087,-4.0087,-4.0087,-4.0087,-4.0087,-4.0087,-4.0087,-4.0087,-4.007,-3.9901,-3.9554,-3.9056,-3.859,-3.7815,-3.66,-3.6569,-3.618,-3.5846,-3.5489,-3.5619,-3.5554,-3.5489,-3.5489,-3.5489,-3.5489,-3.5489,-3.5489,-3.5489,-3.5489,-3.5489,-3.5489,-3.5489,-3.5489,-3.5489,-3.5489,-3.5489,-3.5489,-3.5489,-3.5554,-3.5653,-3.5943,-3.6492,-3.6783,-3.6964,-3.7515,-3.7863,-3.7937,-3.7748,-3.7515,-3.7456,-3.769,-3.8003,-3.8003,-3.7889,-3.8044,-3.77,-3.7128,-3.6492,-3.6117,-3.5668,-3.5489,-3.5668,-3.5831,-3.6321,-3.6646,-3.7322,-3.7962,-3.8486,-3.8707,-3.8652,-3.8652,-3.8652,-3.8596,-3.8486,-3.8446,-3.8446,-3.8374,-3.8342,-3.8564,-3.9156,-3.9558,-4.0003,-4.007,-4.007,-4.007,-4.0087,-4.0087,-4.0087,-4.0087,-4.0087,-4.0087,-4.0087,-4.0087,-4.0087,-4.0087,-4.0087,-4.0087,-4.0087,-4.0087,-4.0087,-4.0087,-4.0087,-4.0087,-4.0087,-4.0121,-4.0171,-4.0121,-4.0336,-4.0625,-4.0607,-4.2359,-4.1919,-4.0955,-4.0353,-4.0121,-4.0087,-4.0087,-4.0087,-4.0087,-4.0087,-4.0087,-4.0087,-4.0087,-4.007,-3.9489,-3.9077,-3.876,-3.7854,-3.7024,-3.6446,-3.6117,-3.5831,-3.5569,-3.5489,-3.5489,-3.5489,-3.5489,-3.5489,-3.5489,-3.5489,-3.5489,-3.5489,-3.5489,-3.5489,-3.5489,-3.5489,-3.5489,-3.5489,-3.5489,-3.5489,-3.5489,-3.5489,-3.5489,-3.5489,-3.5539,-3.5831,-3.6275,-3.6554,-3.71,-3.7632,-3.7764,-3.7515,-3.6964,-3.6415,-3.6148,-3.6196,-3.6935,-3.7084,-3.7084,-3.7188,-3.7008,-3.6615,-3.6165,-3.5782,-3.5569,-3.5504,-3.5554,-3.5733,-3.5958,-3.6352,-3.6692,-3.7279,-3.7748,-3.7806,-3.7806,-3.7921,-3.7962,-3.7863,-3.7706,-3.7706,-3.7706,-3.769,-3.76,-3.7873,-3.8414,-3.9049,-3.9782,-4.007,-4.002,-4.002,-4.0087,-4.0087,-4.0087,-4.0087,-4.0087,-4.0087,-4.0087,-4.0087,-4.0087,-4.0087,-4.0087,-4.0087,-4.0087,-4.0087,-4.0087,-4.0087,-4.0087,-4.0087,-4.0087,-4.0087,-4.0087,-4.0087,-4.0087,-4.0336,-4.0286,-4.1379,-4.0718,-3.9928,-3.9783,-4.0054,-4.0087,-4.0087,-4.0087,-4.0087,-4.0087,-4.0087,-4.0087,-4.007,-3.9952,-3.9262,-3.8613,-3.8262,-3.7191,-3.6523,-3.6054,-3.5831,-3.5604,-3.5489,-3.5489,-3.5489,-3.5489,-3.5489,-3.5489,-3.5489,-3.5489,-3.5489,-3.5489,-3.5489,-3.5489,-3.5489,-3.5489,-3.5489,-3.5489,-3.5489,-3.5489,-3.5489,-3.5489,-3.5489,-3.5489,-3.5604,-3.5831,-3.5894,-3.6117,-3.6352,-3.6646,-3.6662,-3.66,-3.6133,-3.5846,-3.5619,-3.5782,-3.6165,-3.6446,-3.6337,-3.6384,-3.643,-3.6165,-3.5894,-3.5569,-3.5569,-3.5489,-3.5489,-3.5668,-3.5668,-3.6006,-3.6006,-3.643,-3.6829,-3.7055,-3.6768,-3.66,-3.6585,-3.6538,-3.6492,-3.6492,-3.66,-3.6753,-3.6737,-3.7068,-3.7658,-3.8318,-3.9049,-3.9542,-3.961,-3.9901,-3.9969,-4.0087,-4.0087,-4.0087,-4.0087,-4.0087,-4.0087,-4.0087,-4.0087,-4.0087,-4.0087,-4.0087,-4.0087,-4.0087,-4.0087,-4.0087,-4.0087,-4.0087,-4.0087,-4.0087,-4.0087,-4.0087,-4.0087,-4.0087,-4.0121,-4.0401,-3.9517,-3.9157,-3.936,-3.9901,-4.0037,-4.0087,-4.0087,-4.0087,-4.0087,-4.007,-3.9969,-3.9969,-3.9662,-3.9102,-3.8358,-3.7557,-3.6707,-3.6006,-3.5718,-3.5554,-3.5489,-3.5489,-3.5489,-3.5489,-3.5489,-3.5489,-3.5489,-3.5489,-3.5489,-3.5489,-3.5489,-3.5489,-3.5489,-3.5489,-3.5489,-3.5489,-3.5489,-3.5489,-3.5489,-3.5489,-3.5489,-3.5489,-3.5489,-3.5489,-3.5489,-3.5504,-3.5504,-3.5504,-3.5619,-3.5733,-3.5733,-3.5733,-3.5554,-3.5554,-3.5653,-3.615,-3.6212,-3.6102,-3.6337,-3.618,-3.5894,-3.5604,-3.5489,-3.5489,-3.5489,-3.5489,-3.5489,-3.5554,-3.5554,-3.5619,-3.5668,-3.607,-3.629,-3.5894,-3.5619,-3.5604,-3.5604,-3.5619,-3.5619,-3.5797,-3.5943,-3.6165,-3.6446,-3.6964,-3.7616,-3.8133,-3.858,-3.8962,-3.9437,-3.9714,-3.9952,-4.0087,-4.0087,-4.0087,-4.0087,-4.0087,-4.0087,-4.0087,-4.0087,-4.0087,-4.0087,-4.0087,-4.0087,-4.0087,-4.0087,-4.0087,-4.0087,-4.0087,-4.0087,-4.0087,-4.0087,-4.0087,-4.0087,-4.0087,-3.9876,-3.9481,-3.914,-3.9089,-3.9292,-3.98,-4.0087,-4.0087,-4.0087,-4.0087,-3.9901,-3.9385,-3.9139,-3.9086,-3.8374,-3.7632,-3.6964,-3.6165,-3.5846,-3.5489,-3.5489,-3.5489,-3.5489,-3.5489,-3.5489,-3.5489,-3.5489,-3.5489,-3.5489,-3.5489,-3.5489,-3.5489,-3.5489,-3.5489,-3.5489,-3.5489,-3.5489,-3.5489,-3.5489,-3.5489,-3.5489,-3.5489,-3.5489,-3.5489,-3.5489,-3.5489,-3.5489,-3.5489,-3.5489,-3.5489,-3.5489,-3.5489,-3.5489,-3.5489,-3.5554,-3.5718,-3.6212,-3.6322,-3.6337,-3.6337,-3.6117,-3.6117,-3.5831,-3.5489,-3.5489,-3.5489,-3.5489,-3.5489,-3.5489,-3.5489,-3.5554,-3.5554,-3.5782,-3.5782,-3.5554,-3.5554,-3.5554,-3.5554,-3.5554,-3.5554,-3.5554,-3.5668,-3.5718,-3.6054,-3.6508,-3.71,-3.7515,-3.8019,-3.869,-3.9032,-3.942,-3.9782,-4.007,-4.0087,-4.0087,-4.0087,-4.0087,-4.0087,-4.0087,-4.0087,-4.0087,-4.0087,-4.0087,-4.0087,-4.0087,-4.0087,-4.0087,-4.0087,-4.0087,-4.0087,-4.0087,-4.0087,-4.0087,-4.0087,-4.0087]}]]